     2              OBSERVATION DATA    GPS                 RINEX VERSION / TYPE
teqc 1997Jul24 19970805                                     PGM / RUN BY / DATE
                                                            COMMENT
Original Marker Name: 0001                                  COMMENT
Campaign Name: Imperial Valley Vert. GPS 1995               COMMENT
4-Character Station Name: MONU                              COMMENT
6-Character Antenna Code: TRMSSE                            COMMENT
Vertical Measurement Point: BPA                             COMMENT
Vertical Offset to Rinex Ref. Point: 0.0000                 COMMENT
Radial Measurement Point: RRP                               COMMENT
Radial Offset to Rinex Ref. Point: 0.0000                   COMMENT
Antenna Height from Field Measurement: 2.2160 m             COMMENT
Original XYZ: -2386290.2303 -4802336.2591 3444884.0540      COMMENT
New XYZ position is based on association with SCEC monument COMMENT
E1C8W5H0+0011. Position of that monument is believed to be  COMMENT
valid to within 1 m horizontally; vertical accuracy         COMMENT
should be no worse than 3-times this value.                 COMMENT
                                                            COMMENT
Revised Rinex header created by UCSD GPS archive for        COMMENT
GSAC on 10-Apr-1999 (1999:100) 06:58:29 GMT                 COMMENT
For assistance contact dagnew@ucsd.edu or hjohnson@ucsd.edu COMMENT
                                                            COMMENT
MONUMENT PEAK                                               MARKER NAME
unknown CALIF DEPT TRANSPORTATION                           OBSERVER / AGENCY
7377 TRIMBLE 4000 SSE NP 6.11; SP 2.12                      REC # / TYPE / VERS
64333 TR 4000SSE L1/L2 GEO                                  ANT # / TYPE
 -2386290.0000 -4802346.0000  3444884.0000                  APPROX POSITION XYZ
        2.2160        0.0000        0.0000                  ANTENNA: DELTA H/E/N
     1     1     0                                          WAVELENGTH FACT L1/2
     7    L1    L2    C1    P2    P1    D1    D2            # / TYPES OF OBSERV
     0                                                      INTERVAL
  1995     4    11    16     0   45.000000                  TIME OF FIRST OBS
  1995     4    11    22    32   45.000000                  TIME OF LAST OBS
     0                                                      # OF SATELLITES
                                                            END OF HEADER
 95  4 11 16  0 45.0000000  0  6G14G19G22G27G28G29
    183572.86855        -4.23753  23759717.1804   23759719.6884
     -4238.8594      -3303.0074
    -25063.83457     -2831.41557  21322922.2894   21322924.8914
       608.9224        474.4854
    173774.60555        -3.76055  23973392.6094   23973397.6134
     -4013.8914      -3127.7074
    -76122.86755         0.82855  23882689.0004   23882691.8244
      1799.0314       1401.8434
    -15039.45515    -11719.60315  23420761.211    23420758.867
       369.750         288.117
     59143.47457      5285.22958  20683505.0864   20683506.2464
     -1354.6094      -1055.5404
 95  4 11 16  1  0.0000000  0  7G14G18G19G22G27G28G29
    247008.62145     49426.21644  23771788.0164   23771790.8164
     -4219.3594      -3287.8124
    -16568.09757     -4287.16558  20336622.4614   20336624.8404
       313.7974        244.5174
    -34322.72047    -10046.12647  21321160.4224   21321163.0004
       625.5944        487.4764
    233852.57445     46810.22845  23984824.7664   23984829.3484
     -3996.6094      -3114.2414
   -103246.44745    -21134.40245  23877527.7664   23877530.6374
      1817.3284       1416.1004
    -20677.796 5    -16113.101 5  23419688.316    23419685.945
       381.891         297.577
     79365.33747     21042.55548  20687352.8754   20687354.1644
     -1341.7194      -1045.4954
 95  4 11 16  1 15.0000000  0  8G31G14G18G19G22G27G28G29
    -17052.99015                  23257141.234
      2135.703
    310164.90645     98638.88244  23783806.6174   23783810.0394
     -4201.5944      -3273.9694
    -21365.32647     -8025.24548  20335709.4534   20335711.8674
       325.7974        253.8684
    -43821.67947    -17447.89447  21319352.7504   21319355.3524
       640.8594        499.3714
    293679.27245     93428.43245  23996209.8524   23996214.8914
     -3980.5624      -3101.7374
   -130634.26245    -42475.54745  23872316.5004   23872319.2774
      1834.3594       1429.3714
    -26486.121 5    -20639.050 5  23418582.965    23418580.516
       392.422         305.783
     99407.33347     36659.69948  20691166.8834   20691168.2424
     -1330.6564      -1036.8754
 95  4 11 16  1 30.0000000  0  8G31G14G18G19G22G27G28G29
    -49196.16645                  23251024.8444
      2150.0004
    373057.41145    147646.01444  23795774.7034   23795778.4774
     -4184.1564      -3260.3814
    -26342.81447    -11903.78948  20334762.0784   20334764.4694
       337.7504        263.1824
    -53549.23047    -25027.78847  21317501.7974   21317504.2234
       656.0634        511.2184
    353268.04945    139861.22745  24007549.0864   24007554.0204
     -3964.8444      -3089.4894
   -158278.93945    -64016.82045  23867055.6884   23867058.7704
      1851.5944       1442.8004
    -32450.953 5    -25286.961 5  23417448.074    23417445.422
       402.828         313.892
    119285.97547     52149.56048  20694949.5784   20694950.8794
     -1319.8754      -1028.4744
 95  4 11 16  1 45.0000000  0  8G31G14G18G19G22G27G28G29
    -81545.17145                  23244868.1484
      2162.9844
    435697.69445    196456.59743  23807694.8524   23807697.3484
     -4168.1414      -3247.9024
    -31490.42347    -15914.89848  20333782.8834   20333785.1684
       348.3444        271.4374
    -63495.66647    -32778.24147  21315608.8054   21315611.2194
       669.9064        522.0054
    412629.15045    186116.63745  24018845.5004   24018850.2344
     -3950.3594      -3078.2024
   -186173.80245    -85753.06845  23861747.2584   23861749.9304
      1867.4844       1455.1834
    -38563.219 5    -30049.751 5  23416285.031    23416282.070
       411.875         320.942
    139011.78947     67520.33348  20698703.1954   20698704.4964
     -1310.4694      -1021.1444
 95  4 11 16  2  0.0000000  0  8G31G14G18G19G22G27G28G29
   -114080.37445    -13538.16355  23238676.6024   23238681.2424
      2175.2974       1695.0374
    498108.38445    245088.27444  23819570.4774   23819574.3444
     -4153.0944      -3236.1774
    -36786.14847    -20041.42248  20332775.2424   20332777.4344
       357.9224        278.9004
    -73640.60947    -40683.37548  21313678.7114   21313681.1954
       682.9844        532.1964
    471784.77145    232211.91345  24030102.3984   24030107.8714
     -3936.8444      -3067.6704
   -214297.22545   -107667.40345  23856395.2344   23856398.3164
      1882.5634       1466.9324
    -44800.216 5    -34909.737 5  23415098.164    23415095.328
       419.906         327.200
    158606.62947     82789.04848  20702431.8834   20702433.3484
     -1301.9694      -1014.5214
 95  4 11 16  2 15.0000000  0  8G31G14G18G19G22G27G28G29
   -146796.50945    -39031.21945  23232451.2114   23232456.0164
      2186.7814       1703.9854
    560299.12345    293548.57343  23831405.1644   23831408.7504
     -4139.0784      -3225.2564
    -42220.80247    -24276.20248  20331740.7894   20331743.0744
       366.6884        285.7314
    -83978.13547    -48738.57447  21311711.3914   21311713.9804
       695.3284        541.8144
    530740.72345    278151.61445  24041321.5084   24041325.6564
     -3923.9224      -3057.6014
   -242643.37945   -129755.29345  23851001.2274   23851004.1334
      1896.9064       1478.1094
    -51153.163 5    -39860.080 5  23413889.430    23413886.523
       427.156         332.849
    178077.79647     97961.39548  20706137.3674   20706138.9734
     -1294.1254      -1008.4094
 95  4 11 16  2 30.0000000  0  8G31G14G18G19G22G27G28G29
   -179682.61545    -64656.73345  23226193.4614   23226197.6804
      2197.9694       1712.7034
    622280.44645    341845.68144  23843200.4844   23843204.9384
     -4125.1724      -3214.4204
    -47786.56647    -28613.14848  20330681.6174   20330684.0084
       375.2504        292.4034
    -94501.41147    -56938.51547  21309708.7814   21309711.4414
       707.6724        551.4334
    589502.00745    323939.59245  24052503.7734   24052507.9454
     -3910.9694      -3047.5084
   -271204.33845   -152010.56945  23845566.0004   23845569.3164
      1911.2034       1489.2494
    -57614.158 5    -44894.621 5  23412660.234    23412656.563
       434.219         338.352
    197432.11947    113042.69248  20709820.2894   20709821.7894
     -1286.5474      -1002.5044
 95  4 11 16  2 45.0000000  0  8G31G14G18G19G22G27G28G29
   -212733.05945    -90410.29845  23219904.6414   23219908.6604
      2208.7664       1721.1164
    684059.46345    389985.14044  23854956.8284   23854960.5314
     -4112.0624      -3204.2054
    -53473.74447    -33044.70048  20329599.6334   20329601.9534
       383.0634        298.4904
   -105204.21947    -65278.35047  21307672.4534   21307675.0784
       719.3914        560.5644
    648072.88045    369579.25245  24063649.0864   24063652.5204
     -3898.4844      -3037.7804
   -299976.88245   -174430.70745  23840090.7114   23840094.0164
      1925.1254       1500.0974
    -64176.428 5    -50008.074 5  23411411.293    23411407.727
       440.766         343.454
    216677.16747    128038.84348  20713482.4144   20713483.8204
     -1279.4694       -996.9894
 95  4 11 16  3  0.0000000  0  8G31G14G18G19G22G27G28G29
   -245940.84245   -116286.47745  23213585.3984   23213589.1134
      2219.0474       1729.1274
    745648.29445    437976.42544  23866677.0084   23866681.1804
     -4099.6724      -3194.5504
    -59274.19047    -37564.51848  20328495.7894   20328498.0744
       390.4224        304.2254
   -116076.71947    -73750.41747  21305603.3754   21305605.8714
       730.3594        569.1114
    706461.40645    415076.80245  24074760.2734   24074764.0124
     -3886.5474      -3028.4784
   -328952.61945   -197009.18845  23834576.8284   23834580.4384
      1938.3754       1510.4224
    -70832.262 5    -55194.429 5  23410144.566    23410141.102
       446.766         348.129
    235820.31047    142955.58348  20717125.4534   20717126.8014
     -1272.8444       -991.8264
 95  4 11 16  3 15.0000000  0  8G31G14G18G19G22G27G28G29
   -279305.45545   -142284.85545  23207236.3914   23207239.5904
      2229.3754       1737.1754
    807046.80745    485819.39845  23878360.6024   23878364.5864
     -4087.0474      -3184.7124
    -65187.50447    -42172.28548  20327370.7034   20327372.8834
       397.7504        309.9354
   -127117.74147    -82353.79747  21303502.0004   21303504.7074
       741.5634        577.8414
    764665.65245    460430.72744  24085836.1644   24085839.6094
     -3874.2034      -3018.8604
   -358132.04545   -219746.38745  23829022.9304   23829027.7464
      1951.9064       1520.9664
    -77581.407 5    -60453.498 5  23408860.180    23408857.148
       452.875         352.890
    254858.72047    157790.71048  20720748.1334   20720749.5514
     -1265.8754       -986.3964
 95  4 11 16  3 30.0000000  0  8G31G14G18G19G22G27G28G29
   -312821.62445   -168401.34745  23200858.1414   23200862.1024
      2239.2974       1744.9074
    868259.40945    533517.51045  23890008.7814   23890012.3794
     -4074.8444      -3175.2034
    -71204.77447    -46861.05748  20326225.3594   20326227.3754
       404.3754        315.0974
   -138321.41947    -91083.92447  21301370.4694   21301373.1884
       752.0634        586.0234
    822688.63345    505643.46445  24096877.7114   24096881.2504
     -3862.3444      -3009.6194
   -387508.09545   -242636.80345  23823433.6334   23823437.5594
      1964.6414       1530.8894
    -84417.604 5    -65780.400 5  23407559.238    23407556.555
       458.406         357.200
    273797.88847    172548.50648  20724352.3444   20724353.8094
     -1259.5474       -981.4654
 95  4 11 16  3 45.0000000  0  8G31G14G18G19G22G27G28G29
   -346489.44445   -194635.98745  23194451.1724   23194455.2274
      2250.2974       1753.4784
    929287.31045    581071.68644  23901621.9454   23901626.0704
     -4061.5474      -3164.8424
    -77321.62147    -51627.42448  20325061.4454   20325063.5554
       411.7194        320.8204
   -149683.43947    -99937.43547  21299207.9774   21299210.6954
       763.4224        594.8744
    880532.22745    550716.34843  24107884.8754   24107890.2664
     -3849.5784      -2999.6714
   -417073.53045   -265674.79845  23817808.2034   23817811.9654
      1977.9224       1541.2384
    -91338.048 5    -71172.955 5  23406242.145    23406239.633
       464.875         362.240
    292640.42647    187231.00448  20727937.9534   20727939.4884
     -1252.1414       -975.6944
 95  4 11 16  4  0.0000000  0  8G31G14G18G19G22G27G28G29
   -380309.87745   -220989.54845  23188015.0864   23188019.1174
      2259.2974       1760.4914
    990125.78945    628478.23945  23913199.1024   23913203.6024
     -4050.0624      -3155.8934
    -83535.63948    -56469.50748  20323878.9924   20323881.0784
       417.0164        324.9474
   -161203.86747   -108914.38448  21297015.8204   21297018.4574
       772.8444        602.2164
    938195.72645    595648.95444  24118857.8984   24118862.0594
     -3838.6564      -2991.1614
   -446824.18245   -288857.10545  23812146.8834   23812150.2814
      1989.0314       1549.8944
    -98342.928 5    -76631.297 5  23404909.023    23404906.547
       469.328         365.710
    311382.17147    201834.96248  20731504.5634   20731505.8984
     -1246.5314       -971.3234
 95  4 11 16  4 15.0000000  0  8G31G14G18G19G22G27G28G29
   -414263.55345   -247446.94945  23181553.6724   23181557.5514
      2267.8284       1767.1394
   1050791.87644    675750.50544  23924743.4304   23924748.7504
     -4038.7814      -3147.1024
    -89830.44447    -61374.54048  20322681.1094   20322683.2304
       422.3284        329.0874
   -172866.66147   -118002.26447  21294796.2424   21294799.0314
       782.2194        609.5214
    995691.92945    640451.16043  24129799.1724   24129804.3164
     -3827.5004      -2982.4684
   -476743.55345   -312170.88345  23806453.5004   23806456.3954
      2000.2344       1558.6244
   -105416.173 5    -82142.919 5  23403563.039    23403560.570
       473.797         369.192
    330037.94747    216371.93548  20735054.3204   20735055.8794
     -1240.9064       -966.9404
 95  4 11 16  4 30.0000000  0  8G31G14G18G19G22G27G28G29
   -448320.07045   -273984.48145  23175073.1644   23175077.4774
      2273.7504       1771.7534
   1111310.97744    722908.20243  23936259.7664   23936265.8484
     -4029.6724      -3140.0044
    -96183.30548    -66324.81348  20321472.1884   20321474.3794
       425.4224        331.4984
   -184646.87447   -127181.64548  21292554.7734   21292557.4104
       789.1724        614.9394
   1053043.55945    685140.72944  24140712.2894   24140716.2274
     -3818.6724      -2975.5884
   -506805.81545   -335596.02045  23800732.9224   23800735.5824
      2008.7664       1565.2724
   -112533.329 5    -87688.753 5  23402208.910    23402206.164
       475.906         370.836
    348631.78447    230860.63848  20738592.7974   20738594.2624
     -1237.5314       -964.3104
 95  4 11 16  4 45.0000000  0  8G31G14G18G19G22G27G28G29
   -482481.49045   -300603.74545  23168572.1254   23168576.7544
      2281.2974       1777.6344
   1171676.90044    769946.55045  23947746.7974   23947752.4454
     -4018.9224      -3131.6274
   -102597.13747    -71322.59648  20320251.7194   20320253.8164
       429.8444        334.9434
   -196546.21047   -136453.84647  21290290.4844   21290293.1454
       797.5634        621.4774
   1110248.46745    729715.93843  24151598.3754   24151603.3204
     -3808.5474      -2967.6994
   -537013.00445   -359134.07145  23794985.0164   23794988.0634
      2018.9534       1573.2104
   -119698.051 5    -93271.639 5  23400845.773    23400842.641
       479.531         373.661
    367159.54047    245297.85248  20742118.6254   20742119.8794
     -1232.6874       -960.5364
 95  4 11 16  5  0.0000000  0  8G31G14G18G19G22G27G28G29
   -516762.14845   -327315.92745  23162048.6414   23162053.9964
      2289.2034       1783.7954
   1231876.81944    816855.53043  23959202.4924   23959207.6604
     -4007.9064      -3123.0444
   -109081.42248    -76375.27548  20319017.8134   20319019.9344
       434.4844        338.5594
   -208577.40347   -145828.78548  21288000.7584   21288003.4414
       806.3754        628.3444
   1167298.12545    774170.24042  24162454.3444   24162456.8524
     -3798.3754      -2959.7734
   -567376.38245   -382793.82745  23789206.9454   23789210.0744
      2029.2194       1581.2094
   -126921.570 5    -98900.348 5  23399471.168    23399468.086
       483.359         376.644
    385608.85047    259673.94248  20745629.3444   20745630.3524
     -1227.5164       -956.5064
 95  4 11 16  5 15.0000000  0  8G31G14G18G19G22G27G28G29
   -551153.37145   -354114.25145  23155503.6884   23155509.3364
      2296.5314       1789.5054
   1291917.30144    863640.25944  23970628.8524   23970635.2034
     -3997.1874      -3114.6924
   -115627.91348    -81476.43048  20317772.0634   20317774.2424
       438.6254        341.7864
   -220735.76047   -155302.82048  21285687.2974   21285690.0864
       815.0164        635.0774
   1224202.57945    818511.33643  24173283.2424   24173287.6724
     -3788.6094      -2952.1634
   -597888.20245   -406569.26945  23783400.4844   23783404.3524
      2039.2974       1589.0634
   -134196.344 5   -104568.997 5  23398087.188    23398083.625
       486.891         379.395
    403987.46947    273994.94148  20749126.5474   20749127.4384
     -1222.7504       -952.7924
 95  4 11 16  5 30.0000000  0  8G31G14G18G19G22G27G28G29
   -585649.57945   -380994.39545  23148939.5634   23148945.5514
      2302.7194       1794.3264
   1351799.32844    910301.56043  23982021.8914   23982027.9384
     -3987.4224      -3107.0824
   -122230.73948    -86621.48048  20316515.5944   20316517.8554
       441.5314        344.0504
   -233019.63947   -164874.66547  21283349.7974   21283352.2934
       822.5634        640.9584
   1280966.37545    862742.87842  24184084.4694   24184090.5514
     -3780.1724      -2945.5884
   -628544.32945   -430457.13845  23777566.2114   23777569.8554
      2047.9224       1595.7834
   -141518.664 5   -110274.692 5  23396693.383    23396690.156
       489.203         381.197
    422300.00047    288264.44848  20752611.4454   20752612.5354
     -1219.2664       -950.0774
 95  4 11 16  5 45.0000000  0  8G31G14G18G19G22G27G28G29
   -620239.35445   -407947.44545  23142358.1024   23142363.5864
      2309.0634       1799.2694
   1411535.34944    956849.04845  23993391.2814   23993396.6724
     -3977.5784      -3099.4124
   -128877.92648    -91801.09848  20315250.6564   20315252.9414
       444.6414        346.4734
   -245415.00047   -174533.37948  21280991.2114   21280993.5784
       830.0004        646.7534
   1337606.01145    906877.61342  24194863.5864   24194867.7234
     -3771.9844      -2939.2094
   -659329.93745   -454445.91445  23771708.0634   23771711.9774
      2056.7034       1602.6264
   -148875.399 5   -116007.204 5  23395293.445    23395290.469
       491.516         382.999
    440562.83547    302495.22148  20756086.9224   20756087.9414
     -1215.8754       -947.4354
 95  4 11 16  6  0.0000000  0  8G31G14G18G19G22G27G28G29
   -654919.61745   -434970.99845  23135758.6954   23135763.0084
      2315.0474       1803.9334
   1471127.96644   1003284.79243  24004730.8134   24004736.1214
     -3968.0004      -3091.9484
   -135569.50148    -97015.30548  20313977.3204   20313979.6524
       447.7194        348.8724
   -257918.48147   -184276.33948  21278611.7734   21278614.0944
       837.2344        652.3904
   1394127.42045    950920.25743  24205619.0084   24205624.2234
     -3764.0784      -2933.0484
   -690244.38245   -478535.08145  23765825.3674   23765829.0824
      2065.3594       1609.3714
   -156263.187 5   -121763.914 5  23393887.582    23393884.758
       493.641         384.655
    458777.07047    316688.13248  20759552.8594   20759554.0554
     -1212.5784       -944.8664
 95  4 11 16  6 15.0000000  0  8G31G14G18G19G22G27G28G29
   -689680.75545   -462057.59845  23129144.1024   23129148.2974
      2320.0164       1807.8044
   1530585.61144   1049615.39845  24016046.2194   24016051.5514
     -3959.4374      -3085.2764
   -142301.26648   -102260.83048  20312696.2504   20312698.4304
       450.1094        350.7354
   -270523.82547   -194098.68048  21276213.0164   21276215.3834
       843.7194        657.4434
   1450536.92645    994875.69343  24216353.7814   24216358.4924
     -3756.9374      -2927.4844
   -721282.00845   -502720.24545  23759918.8524   23759922.4384
      2073.2504       1615.5194
   -163675.562 5   -127539.780 5  23392477.070    23392474.078
       494.906         385.641
    476950.32147    330849.09948  20763011.0084   20763012.2974
     -1210.3284       -943.1134
 95  4 11 16  6 30.0000000  0  8G31G14G18G19G22G27G28G29
   -724516.36846   -489202.20645  23122515.8674   23122520.1214
      2324.9064       1811.6154
   1589915.12245   1095846.13844  24027335.6254   24027340.2664
     -3951.0164      -3078.7134
   -149069.31048   -107534.62748  20311408.3754   20311410.5664
       452.3134        352.4514
   -283225.91847   -203996.40648  21273796.0314   21273798.3284
       849.9224        662.2774
   1506840.83745   1038748.86044  24227068.8594   24227074.0044
     -3750.2664      -2922.2854
   -752437.45745   -526997.21545  23753990.4384   23753994.3874
      2080.8754       1621.4614
   -171106.072 5   -133329.780 5  23391063.242    23391059.773
       495.891         386.408
    495091.43147    344985.02748  20766463.2424   20766464.7074
     -1208.4534       -941.6524
 95  4 11 16  6 45.0000000  0  8G31G14G18G19G22G27G28G29
   -759426.48646   -516404.88845  23115872.5234   23115876.0394
      2329.7504       1815.3904
   1649120.04245   1141979.82045  24038602.3364   24038606.8834
     -3942.9374      -3072.4194
   -155866.81848   -112831.38148  20310114.9454   20310117.1024
       453.9534        353.7304
   -296018.41047   -213964.57548  21271361.6094   21271363.9414
       855.6884        666.7694
   1563047.24145   1082546.01643  24237764.4064   24237768.4384
     -3744.0004      -2917.4034
   -783706.36145   -551362.58745  23748040.5554   23748043.9884
      2088.2814       1627.2324
   -178548.870 5   -139129.356 5  23389646.840    23389643.367
       496.453         386.847
    513207.08247    359101.11848  20769910.6804   20769912.0164
     -1207.0164       -940.5324
 95  4 11 16  7  0.0000000  0  8G31G14G18G19G22G27G28G29
   -794409.97846   -543664.73745  23109215.1484   23109218.3134
      2334.1414       1818.8114
   1708203.74644   1188019.04244  24049845.3984   24049849.7814
     -3935.4224      -3066.5624
   -162688.02248   -118146.60048  20308816.9144   20308819.0354
       455.0474        354.5824
   -308897.57947   -224000.28348  21268910.5704   21268913.0664
       860.9534        670.8734
   1619159.65545   1126269.94243  24248443.0944   24248445.7774
     -3738.2034      -2912.8864
   -815086.94945   -575814.98645  23742069.1024   23742071.8204
      2095.2034       1632.6264
   -186000.094 5   -144935.502 5  23388228.711    23388225.563
       496.500         386.883
    531301.51447    373200.67548  20773354.0394   20773355.3754
     -1206.0784       -939.8014
 95  4 11 16  7 15.0000000  0  8G31G14G18G19G22G27G28G29
   -829456.05546   -570973.35845  23102546.2274   23102549.5554
      2338.9694       1822.5734
   1767174.16144   1233969.97543  24061067.3674   24061072.0084
     -3926.9534      -3059.9634
   -169526.74348   -123475.46948  20307515.5554   20307517.4534
       457.1254        356.2014
   -321853.22847   -234095.58948  21266444.9774   21266447.6134
       866.7814        675.4144
   1675185.36745   1169926.34743  24259104.3204   24259108.5634
     -3731.4844      -2907.6504
   -846568.52545   -600346.07645  23736078.3284   23736081.5274
      2102.7344       1638.4944
   -193450.897 5   -150741.323 5  23386810.719    23386807.828
       497.266         387.480
    549382.67747    387289.89248  20776794.3364   20776795.9304
     -1204.4064       -938.4984
 95  4 11 16  7 30.0000000  0  8G31G14G18G19G22G27G28G29
   -864585.37946   -598346.83845  23095861.0234   23095863.5554
      2344.2344       1826.6764
   1826006.59244   1279813.38843  24072262.2814   24072268.3284
     -3918.0314      -3053.0114
   -176409.61148   -128838.74048  20306205.8834   20306207.7464
       459.9224        358.3814
   -334905.63147   -244266.28448  21263961.2734   21263964.0984
       872.7814        680.0894
   1731097.30545   1213494.06143  24269744.0314   24269747.1374
     -3724.1414      -2901.9284
   -878174.90745   -624974.41045  23730063.6724   23730066.9774
      2110.6884       1644.6924
   -200924.738 5   -156565.089 5  23385388.387    23385385.477
       498.500         388.442
    567425.31347    401349.08548  20780227.8134   20780229.5124
     -1202.0164       -936.6364
 95  4 11 16  7 45.0000000  0  8G31G14G18G19G22G27G28G29
   -899782.30046   -625772.99045  23089163.8754   23089166.8054
      2348.6094       1830.0854
   1884717.73244   1325562.30544  24083434.3984   24083438.9224
     -3910.2034      -3046.9124
   -183321.98248   -134225.00248  20304890.3984   20304892.1914
       461.6414        359.7204
   -348035.10947   -254497.04147  21261462.8524   21261465.7114
       877.7034        683.9254
   1786912.27245   1256986.23443  24280365.2974   24280368.7304
     -3717.9374      -2897.0944
   -909886.56845   -649684.78645  23724029.2274   23724032.7424
      2117.5004       1650.0004
   -208403.387 5   -162392.603 5  23383965.527    23383962.688
       498.563         388.490
    585445.96747    415391.15148  20783657.2504   20783658.7734
     -1200.8284       -935.7104
 95  4 11 16  8  0.0000000  0  8G31G14G18G19G22G27G28G29
   -935044.56346   -653250.06245  23082453.4144   23082456.2504
      2352.7814       1833.3364
   1943312.72244   1371220.70943  24094585.5084   24094589.7624
     -3902.6414      -3041.0194
   -190259.12348   -139630.56348  20303570.4144   20303572.3134
       463.0944        360.8524
   -361237.62247   -264784.70848  21258950.7274   21258953.1644
       882.4844        687.6504
   1842633.98345   1300405.71142  24290968.9384   24290972.1254
     -3711.7194      -2892.2484
   -941701.64245   -674475.74945  23717974.7814   23717977.9924
      2124.2974       1655.2964
   -215882.347 5   -168220.359 5  23382542.293    23382539.500
       498.438         388.393
    603447.78447    429418.53648  20787082.9304   20787084.3834
     -1199.5314       -934.7004
 95  4 11 16  8 15.0000000  0  8G31G14G18G19G22G27G28G29
   -970363.68646   -680771.44845  23075732.0784   23075734.6094
      2356.1414       1835.9544
   2001796.00543   1416792.04243  24105714.0084   24105719.3284
     -3895.4224      -3035.3944
   -197214.45448   -145050.29948  20302246.6024   20302248.6174
       463.9384        361.5104
   -374510.85547   -275127.47748  21256424.8444   21256427.2464
       887.0164        691.1814
   1898263.12245   1343753.09543  24301554.7424   24301558.7384
     -3705.7814      -2887.6224
   -973614.37945   -699342.81945  23711902.3984   23711905.5514
      2130.4844       1660.1184
   -223356.918 5   -174044.698 5  23381119.695    23381117.266
       497.859         387.942
    621432.07947    443432.26648  20790504.9614   20790506.2734
     -1198.7034       -934.0544
 95  4 11 16  8 30.0000000  0  8G31G14G18G19G22G27G28G29
  -1005733.52046   -708332.33845  23069001.4774   23069004.2774
      2359.6564       1838.6934
   2060172.51543   1462280.20543  24116822.6484   24116828.3914
     -3888.2664      -3029.8174
   -204179.54048   -150477.63848  20300921.6804   20300923.5314
       464.5314        361.9724
   -387851.68647   -285522.92448  21253886.3134   21253888.7154
       891.5634        694.7244
   1953803.74145   1387031.46643  24312123.8444   24312126.3754
     -3699.8594      -2883.0074
  -1005620.32745   -724282.51345  23705811.9534   23705815.3634
      2136.8444       1665.0734
   -230821.613 5   -179861.343 5  23379698.785    23379696.867
       497.203         387.431
    639405.63747    457437.62848  20793925.2814   20793926.8284
     -1197.9064       -933.4334
 95  4 11 16  8 45.0000000  0  8G31G14G18G19G22G27G28G29
  -1041151.39746   -735930.66545  23062261.9224   23062264.8284
      2362.8134       1841.1534
   2118446.09243   1507688.14443  24127912.3754   24127917.5084
     -3881.4224      -3024.4854
   -211147.19347   -155906.98048  20299595.3754   20299597.0744
       464.5634        361.9974
   -401254.80447   -295966.90648  21251335.6334   21251338.0824
       895.6254        697.8904
   2009261.47244   1430245.26143  24322676.5864   24322679.8794
     -3694.3284      -2878.6974
  -1037717.28745   -749293.11845  23699703.5864   23699707.2304
      2142.8754       1669.7734
   -238271.223 5   -185666.231 5  23378281.301    23378279.141
       496.188         386.640
    657369.99947    471435.82848  20797343.9224   20797345.6214
     -1197.2344       -932.9104
 95  4 11 16  9  0.0000000  0  8G31G14G18G19G22G27G28G29
  -1076614.10546   -763563.92545  23055513.6024   23055516.8364
      2365.4224       1843.1864
   2176617.18743   1553016.21243  24138982.0394   24138985.5314
     -3874.7504      -3019.2864
   -218115.23648   -161336.61848  20298269.6414   20298271.5164
       464.4844        361.9364
   -414718.85647   -306458.37048  21248773.5004   21248775.9614
       899.5164        700.9214
   2064634.38444   1473392.95443  24333214.1884   24333218.6174
     -3688.8284      -2874.4124
  -1069904.33845   -774373.93545  23693578.9144   23693582.6994
      2148.6724       1674.2904
   -245705.619 5   -191459.263 5  23376867.047    23376864.672
       495.016         385.726
    675322.97947    485425.15848  20800760.0864   20800761.8674
     -1196.5784       -932.3994
 95  4 11 16  9 15.0000000  0  8G31G14G18G19G22G27G28G29
  -1112114.60546   -791226.63845  23048757.8134   23048760.7424
      2367.3444       1844.6834
   2234687.27443   1598265.57943  24150032.8914   24150038.7854
     -3868.5314      -3014.4404
   -225082.61248   -166765.74148  20296943.5784   20296945.5124
       463.8754        361.4614
   -428240.51347   -316994.72048  21246200.5474   21246202.9494
       902.7504        703.4424
   2119925.90444   1516477.25442  24343735.4694   24343740.4734
     -3684.0004      -2870.6494
  -1102176.15445   -799520.78445  23687437.7194   23687441.7154
      2153.6094       1678.1374
   -253121.153 5   -197237.597 5  23375456.133    23375453.742
       493.094         384.229
    693266.43047    499407.06748  20804174.6174   20804176.3984
     -1196.5624       -932.3864
 95  4 11 16  9 30.0000000  0  8G31G14G18G19G22G27G28G29
  -1147643.82246   -818911.72345  23041997.3444   23042000.0984
      2369.7664       1846.5714
   2292662.61643   1643441.14043  24161065.3524   24161071.0824
     -3861.7194      -3009.1314
   -232039.56348   -172186.73648  20295619.6884   20295621.5044
       463.5634        361.2184
   -441811.65947   -327569.63348  21243617.9534   21243620.3674
       906.6414        706.4734
   2175145.03644   1559505.09041  24354243.5784   24354248.4304
     -3678.7034      -2866.5224
  -1134523.55945   -824726.55145  23681282.0554   23681285.7464
      2159.2814       1682.5574
   -260507.955 5   -202993.548 5  23374050.645    23374048.297
       491.703         383.145
    711211.62047    513390.32748  20807589.3204   20807591.2544
     -1196.2504       -932.1434
 95  4 11 16  9 45.0000000  0  8G31G14G18G19G22G27G28G29
  -1183206.12246   -846622.59645  23035229.5784   23035232.0274
      2371.7034       1848.0804
   2350541.24243   1688541.30043  24172078.8594   24172083.1604
     -3855.5784      -3004.3474
   -238986.75148   -177600.12948  20294297.8914   20294299.7424
       462.5164        360.4024
   -455438.19247   -338187.70648  21241025.0474   21241027.5554
       910.1254        709.1884
   2230289.48844   1602474.78541  24364737.3984   24364742.4614
     -3674.0784      -2862.9184
  -1166952.99845   -849996.23245  23675110.6484   23675114.1524
      2164.5164       1686.6364
   -267869.816 5   -208730.057 5  23372649.664    23372647.195
       489.734         381.611
    729156.90247    527373.65948  20811004.3674   20811006.2074
     -1196.6564       -932.4594
 95  4 11 16 10  0.0000000  0  8G31G14G18G19G22G27G28G29
  -1218799.44746   -874357.64845  23028456.8364   23028459.5904
      2373.6094       1849.5664
   2408323.22143   1733566.17643  24183074.9304   24183078.8794
     -3849.0784      -2999.2824
   -245919.95648   -183002.62548  20292978.3984   20292980.3554
       461.5314        359.6354
   -469122.75747   -348851.00047  21238420.8984   21238423.5354
       914.0784        712.2694
   2285360.36044   1645387.14941  24375216.7034   24375220.9344
     -3669.0624      -2859.0104
  -1199465.79645   -875330.87745  23668923.4064   23668926.8284
      2170.1254       1691.0064
   -275206.745 5   -214447.144 5  23371253.273    23371250.617
       488.094         380.333
    747105.68147    541359.71648  20814420.1884   20814422.0044
     -1196.8754       -932.6304
 95  4 11 16 10 15.0000000  0  8G31G14G18G19G22G27G28G29
  -1254412.09246   -902107.73845  23021679.5944   23021682.6054
      2374.7814       1850.4794
   2466014.68944   1778520.53143  24194053.6024   24194058.1844
     -3843.0164      -2994.5584
   -252831.66648   -188388.37348  20291663.4224   20291665.3794
       460.0944        358.5154
   -482859.30447   -359554.79748  21235806.8134   21235809.4964
       917.5164        714.9474
   2340361.26744   1688244.96442  24385683.4224   24385685.3444
     -3664.3124      -2855.3084
  -1232054.64745   -900724.78145  23662722.3364   23662725.6054
      2175.1094       1694.8904
   -282512.275 5   -220139.760 5  23369863.008    23369860.117
       486.000         378.701
    765063.95447    555353.17248  20817837.2424   20817839.0234
     -1197.5474       -933.1534
 95  4 11 16 10 30.0000000  0  8G31G14G18G19G22G27G28G29
  -1290040.87046   -929870.41845  23014899.4924   23014902.5274
      2375.7034       1851.1974
   2523617.23044   1823405.57643  24205015.0784   24205018.8284
     -3837.4064      -2990.1874
   -259720.11348   -193755.99248  20290352.6564   20290354.5084
       458.3134        357.1274
   -496644.68447   -370296.64948  21233183.6414   21233186.3714
       920.4064        717.2004
   2395293.85743   1731049.51841  24396136.5314   24396142.8244
     -3660.0624      -2851.9974
  -1264717.04145   -926175.98845  23656506.7504   23656510.5704
      2179.8134       1698.5554
   -289783.946 5   -225805.995 5  23368479.246    23368476.445
       483.500         376.753
    783037.14447    569358.24848  20821257.5784   20821259.5234
     -1198.9844       -934.2744
 95  4 11 16 10 45.0000000  0  7G31G14G18G19G27G28G29
  -1325689.41346   -957648.48545  23008116.0234   23008118.9534
      2377.1254       1852.3054
   2581131.10544   1868221.51843  24215959.9144   24215963.8634
     -3831.3594      -2985.4754
   -266586.22048   -199106.20248  20289046.1254   20289047.8954
       456.8754        356.0064
   -510476.41347   -381074.61448  21230551.5474   21230554.3364
       923.5004        719.6104
  -1297454.31345   -951685.54745  23650277.6254   23650282.0204
      2184.8284       1702.4634
   -297022.266 5   -231446.239 5  23367102.105    23367099.367
       481.359         375.085
    801027.29147    583376.53648  20824681.2504   20824683.0554
     -1199.9064       -934.9924
 95  4 11 16 11  0.0000000  0  7G31G14G18G19G27G28G29
  -1361351.24446   -985436.90645  23001330.1024   23001332.5864
      2377.8444       1852.8654
   2638559.41144   1912970.79243  24226888.7584   24226892.9414
     -3825.7194      -2981.0804
   -273425.50548   -204435.51948  20287744.6954   20287746.5004
       455.1094        354.6314
   -524347.75047   -391883.44548  21227911.7344   21227914.4414
       926.1254        721.6564
  -1330259.31445   -977247.87745  23644035.0164   23644039.4344
      2189.2034       1705.8734
   -304222.919 5   -237057.128 5  23365732.027    23365729.195
       478.813         373.101
    819036.89247    597409.98348  20828108.4144   20828109.9384
     -1201.3594       -936.1244
 95  4 11 16 11 15.0000000  0  7G31G14G18G19G27G28G29
  -1397021.80846  -1013232.12845  22994542.5944   22994545.0204
      2378.3914       1853.2914
   2695906.35445   1957656.68944  24237801.2664   24237805.4844
     -3820.3754      -2976.9164
   -280236.19148   -209742.54648  20286448.3134   20286450.1414
       453.1254        353.0844
   -538256.50047   -402721.42648  21225265.0234   21225267.7424
       928.5164        723.5194
  -1363126.92245  -1002859.00045  23637780.0234   23637783.9494
      2193.2664       1709.0384
   -311382.155 5   -242635.757 5  23364369.570    23364366.469
       475.859         370.800
    837073.18147    611464.23148  20831540.3984   20831541.9344
     -1203.4224       -937.7314
 95  4 11 16 11 30.0000000  0  7G31G14G18G19G27G28G29
  -1432705.04846  -1041037.24545  22987752.3444   22987754.2074
      2379.5314       1854.1804
   2753171.51845   2002278.85245  24248699.0164   24248702.8954
     -3814.7814      -2972.5574
   -287018.94648   -215027.80848  20285157.7344   20285159.5044
       451.4384        351.7694
   -552204.56147   -413590.04348  21222610.8594   21222613.6134
       931.4534        725.8084
  -1396057.99345  -1028519.57545  23631513.6484   23631516.5434
      2197.8284       1712.5934
   -318499.724 5   -248181.911 5  23363015.156    23363011.938
       473.359         368.851
    855139.41147    625541.80648  20834978.4534   20834980.1644
     -1205.2194       -939.1314
 95  4 11 16 11 45.0000000  0  7G31G14G18G19G27G28G29
  -1468402.71746  -1068853.59245  22980959.3834   22980961.9144
      2380.1564       1854.6674
   2810355.19145   2046837.50342  24259580.6414   24259583.5704
     -3809.8124      -2968.6854
   -293774.66348   -220292.00348  20283872.0314   20283874.0004
       449.3444        350.1384
   -566194.95647   -424491.64348  21219948.6254   21219951.4144
       933.8914        727.7074
  -1429056.90045  -1054232.99645  23625234.5164   23625238.1724
      2201.9844       1715.8324
   -325578.750 5   -253698.034 5  23361668.016    23361665.281
       470.484         366.611
    873233.86547    639641.37248  20838421.5634   20838423.3444
     -1207.3284       -940.7754
 95  4 11 16 12  0.0000000  0  7G31G14G18G19G27G28G29
  -1504118.32246  -1096683.91945  22974162.3364   22974164.6564
      2381.2814       1855.5444
   2867457.13045   2091332.48944  24270447.4614   24270450.8014
     -3804.3124      -2964.3994
   -300507.15248   -225538.10048  20282590.8594   20282592.9924
       447.7034        348.8604
   -580228.55747   -435426.91248  21217278.0394   21217280.8284
       936.6094        729.8254
  -1462124.80545  -1080000.19045  23618941.6094   23618945.1024
      2206.3754       1719.2534
   -332622.336 5   -259186.542 5  23360327.926    23360324.922
       468.000         364.675
    891350.97947    653758.59748  20841869.2194   20841870.9534
     -1208.9224       -942.0174
 95  4 11 16 12 15.0000000  0  6G31G18G19G27G28G29
  -1539837.08746  -1124516.71445  22967365.4064   22967367.8674
      2381.3134       1855.5684
   -307202.80148   -230755.48848  20281316.8524   20281318.9144
       445.1094        346.8384
   -594287.79547   -446382.15848  21214603.0084   21214605.6684
       937.9384        730.8604
  -1495244.22845  -1105807.52545  23612639.6174   23612642.0904
      2209.5784       1721.7494
   -339614.147 5   -264634.713 5  23358997.574    23358994.234
       464.250         361.753
    909504.57647    667904.25048  20845323.5164   20845325.2274
     -1211.4844       -944.0144
 95  4 11 16 12 30.0000000  0  6G31G18G19G27G28G29
  -1575557.88246  -1152351.08945  22960567.8054   22960570.0434
      2381.8594       1855.9944
   -313858.75648   -235941.94748  20280050.5474   20280052.4694
       442.7504        345.0004
   -608365.44747   -457351.75448  21211923.8444   21211926.4104
       939.4844        732.0664
  -1528411.25845  -1131651.95845  23606328.1334   23606330.7704
      2213.1254       1724.5134
   -346549.100 5   -270038.573 5  23357677.738    23357674.500
       460.766         359.038
    927697.60747    682080.63148  20848785.4844   20848787.3134
     -1213.8594       -945.8644
 95  4 11 16 12 45.0000000  0  6G31G18G19G27G28G29
  -1611291.35446  -1180195.33445  22953767.7274   22953770.5514
      2382.4694       1856.4694
   -320484.08148   -241104.53348  20278789.6414   20278791.6214
       440.4534        343.2104
   -622471.71747   -468343.65148  21209239.6174   21209242.1374
       941.2664        733.4544
  -1561636.15846  -1157541.47645  23600005.8524   23600008.5704
      2216.7034       1727.3014
   -353436.233 5   -275405.179 5  23356366.988    23356363.859
       457.406         356.420
    945920.61447    696280.36948  20852253.4614   20852255.3134
     -1215.9534       -947.4964
 95  4 11 16 13  0.0000000  0  6G31G18G19G27G28G29
  -1647026.08246  -1208040.56145  22946967.5704   22946970.6524
      2382.3444       1856.3724
   -327067.32948   -246234.34148  20277536.6884   20277538.7274
       437.5944        340.9824
   -636599.44947   -479352.26848  21206551.1644   21206553.8244
       942.6884        734.5624
  -1594907.74946  -1183467.39445  23593674.3204   23593676.4884
      2219.7194       1729.6514
   -360265.948 5   -280727.028 5  23355067.313    23355064.461
       453.484         353.364
    964179.47647    710508.04648  20855728.2194   20855729.8134
     -1218.3914       -949.3954
 95  4 11 16 13 15.0000000  0  6G31G18G19G27G28G29
  -1682763.60046  -1235887.96145  22940167.0704   22940170.0124
      2382.6094       1856.5794
   -333614.37048   -251335.93348  20276290.8134   20276292.8634
       435.2344        339.1444
   -650754.26647   -490381.99248  21203857.3134   21203859.9614
       944.5784        736.0354
  -1628230.76545  -1209433.34945  23587332.7894   23587335.8594
      2223.2344       1732.3904
   -367041.880 5   -286006.973 5  23353777.664    23353774.953
       449.875         350.552
    982471.93747    724761.89948  20859209.2424   20859210.6604
     -1220.7194       -951.2094
 95  4 11 16 13 30.0000000  0  6G31G18G19G27G28G29
  -1718505.52546  -1263738.79445  22933365.9534   22933368.4144
      2383.0314       1856.9074
   -340124.51148   -256408.77148  20275052.1954   20275054.1294
       432.8754        337.3054
   -664938.24547   -501434.43748  21201158.2974   21201161.0514
       946.6254        737.6304
  -1661606.35446  -1235440.28845  23580982.1414   23580985.0234
      2226.8754       1735.2274
   -373762.937 5   -291244.165 5  23352498.410    23352495.922
       446.328         347.788
   1000800.02947    739043.52048  20862696.8284   20862698.0004
     -1222.9534       -952.9504
 95  4 11 16 13 45.0000000  0  6G31G18G19G27G28G29
  -1754251.72646  -1291592.95645  22926563.6254   22926566.7194
      2382.9694       1856.8594
   -346598.98248   -261453.81447  20273820.1024   20273821.9654
       430.2974        335.2964
   -679151.95047   -512510.04648  21198453.6484   21198456.3674
       948.4384        739.0424
  -1695035.33546  -1261488.85545  23574620.3284   23574623.4224
      2230.2504       1737.8574
   -380430.204 5   -296439.439 5  23351229.727    23351227.281
       442.547         344.842
   1019160.29647    753350.21448  20866190.4844   20866191.9024
     -1225.1564       -954.6674
 95  4 11 16 14  0.0000000  0  6G31G18G19G27G28G29
  -1789994.39346  -1319444.37545  22919761.7894   22919764.5904
      2382.8284       1856.7494
   -353033.09548   -266467.40648  20272595.4774   20272597.3164
       427.7034        333.2754
   -693390.18447   -523604.77048  21195744.0314   21195746.8674
       950.1564        740.3814
  -1728512.56146  -1287574.99545  23568250.0004   23568252.4024
      2233.4694       1740.3654
   -387038.428 5   -301588.703 5  23349972.215    23349969.586
       438.656         341.810
   1037554.74747    767683.54248  20869691.0004   20869692.6524
     -1227.3124       -956.3474
 95  4 11 16 14 15.0000000  0  6G31G18G19G27G28G29
  -1825734.75946  -1347294.00245  22912960.7664   22912963.3674
      2382.5944       1856.5674
   -359428.21348   -271450.61748  20271378.4454   20271380.2854
       425.0164        331.1814
   -707657.05547   -534721.80948  21193029.1334   21193031.9104
       952.1724        741.9524
  -1762039.49445  -1313699.88345  23561869.7194   23561873.1884
      2236.8444       1742.9954
   -393588.822 5   -306692.909 5  23348725.738    23348723.250
       434.781         338.791
   1055981.79747    782042.27348  20873197.5004   20873199.2114
     -1229.6094       -958.1374
 95  4 11 16 14 30.0000000  0  6G31G18G19G27G28G29
  -1861469.95546  -1375139.60145  22906160.6094   22906163.4924
      2381.9844       1856.0924
   -365781.96948   -276401.59548  20270169.7664   20270171.5474
       421.9844        328.8194
   -721955.10747   -545863.14548  21190308.2584   21190311.0824
       954.1564        743.4984
  -1795617.33145  -1339864.42545  23555480.2114   23555483.7034
      2240.0004       1745.4554
   -400080.852 5   -311751.632 5  23347490.461    23347487.719
       430.672         335.588
   1074443.45647    796427.97148  20876710.7664   20876712.6294
     -1232.1564       -960.1224
 95  4 11 16 14 45.0000000  0  6G31G18G19G27G28G29
  -1897195.17246  -1402977.42345  22899362.3364   22899365.2664
      2381.3914       1855.6294
   -372087.61448   -281315.08648  20268969.6954   20268971.4884
       418.8134        326.3474
   -736284.26647   -557028.72048  21187581.6564   21187584.3284
       956.4384        745.2764
  -1829239.40145  -1366063.44145  23549082.1484   23549086.1094
      2242.9844       1747.7804
   -406509.860 5   -316761.247 5  23346267.141    23346264.258
       426.563         332.386
   1092945.85247    810845.41548  20880231.3984   20880233.2274
     -1234.7974       -962.1794
 95  4 11 16 15  0.0000000  0  6G31G18G19G27G28G29
  -1932910.60146  -1430807.61845  22892566.1094   22892569.2624
      2380.5784       1854.9964
   -378345.50948   -286191.37148  20267778.8444   20267780.5314
       415.4534        323.7304
   -750645.96547   -568219.65248  21184849.1564   21184851.7114
       958.3594        746.7744
  -1862905.02745  -1392296.38645  23542675.8134   23542679.3164
      2245.6884       1749.8864
   -412876.059 5   -321721.919 5  23345055.637    23345052.617
       422.188         328.977
   1111489.02247    825294.62948  20883760.2034   20883762.0204
     -1237.7034       -964.4444
 95  4 11 16 15 15.0000000  0  6G31G18G19G27G28G29
  -1968616.22046  -1458630.17145  22885771.1954   22885774.6294
      2380.2034       1854.7044
   -384555.90248   -291030.64247  20266597.0864   20266598.8554
       412.6094        321.5144
   -765036.37247   -579432.95148  21182110.6644   21182113.3244
       960.3754        748.3444
  -1896612.55545  -1418561.98945  23536261.6414   23536265.6844
      2248.6414       1752.1884
   -419177.956 5   -326632.491 5  23343856.418    23343853.836
       418.047         325.751
   1130075.65347    839777.70848  20887297.1024   20887298.6024
     -1240.5314       -966.6484
 95  4 11 16 15 30.0000000  0  6G31G18G19G27G28G29
  -2004312.73446  -1486445.62645  22878978.2194   22878981.7344
      2379.3914       1854.0714
   -390719.03948   -295833.08748  20265424.4304   20265426.2234
       409.1884        318.8474
   -779453.06447   -590666.73248  21179367.0314   21179369.7624
       961.8594        749.5014
  -1930359.36145  -1444858.20845  23529839.7814   23529842.5594
      2250.8914       1753.9414
   -425413.553 5   -331491.395 5  23342670.035    23342667.406
       413.344         322.086
   1148707.94847    854296.36548  20890842.6334   20890844.3794
     -1243.7814       -969.1804
 95  4 11 16 15 45.0000000  0  6G31G18G19G27G28G29
  -2039997.56846  -1514251.98445  22872187.6334   22872190.9494
      2378.6884       1853.5234
   -396833.46048   -300597.57347  20264261.0554   20264262.8364
       406.1564        316.4854
   -793891.38547   -601917.36548  21176619.4144   21176622.1334
       963.2664        750.5974
  -1964140.09646  -1471180.85645  23523411.7504   23523414.5864
      2253.2664       1755.7914
   -431579.434 5   -336295.977 5  23341496.738    23341493.969
       408.844         318.580
   1167387.67647    868851.98748  20894397.1024   20894398.8954
     -1246.8284       -971.5544
 95  4 11 16 16  0.0000000  0  6G31G18G19G27G28G29
  -2075672.43946  -1542050.56345  22865398.7344   22865402.5314
      2377.9694       1852.9634
   -402902.52348   -305326.71548  20263106.0314   20263108.1644
       402.9844        314.0144
   -808349.08147   -613183.09748  21173868.2504   21173871.0744
       964.3914        751.4734
  -1997959.09846  -1497533.31345  23516975.8754   23516978.9224
      2255.9534       1757.8864
   -437678.481 5   -341048.478 5  23340336.355    23340333.250
       404.359         315.085
   1186112.71447    883442.91548  20897960.3914   20897962.3014
     -1249.9064       -973.9534
 95  4 11 16 16 15.0000000  0  6G31G18G19G27G28G29
  -2111335.68046  -1569840.09145  22858612.2344   22858615.7274
      2377.0634       1852.2564
   -408923.17048   -310018.11547  20261960.2504   20261962.5124
       399.6564        311.4204
   -822822.99847   -624461.46948  21171113.9384   21171116.7384
       965.3914        752.2524
  -2031817.40446  -1523916.42045  23510532.6094   23510535.2344
      2258.3914       1759.7854
   -443709.364 5   -345747.866 5  23339188.680    23339185.836
       399.672         311.433
   1204886.05147    898071.47948  20901533.1094   20901535.1024
     -1253.3284       -976.6194
 95  4 11 16 16 30.0000000  0  6G31G18G19G27G28G29
  -2146986.46746  -1597619.92045  22851827.6484   22851831.3164
      2376.3444       1851.6964
   -414893.93647   -314670.67548  20260823.8134   20260826.3324
       396.4224        308.9004
   -837310.57447   -635750.48648  21168357.0394   21168359.6294
       966.2034        752.8864
  -2065713.72246  -1550329.12845  23504082.3134   23504085.3244
      2261.0474       1761.8554
   -449669.580 5   -350392.196 5  23338054.703    23338051.984
       395.000         307.792
   1223711.37147    912740.54848  20905115.4614   20905117.3484
     -1256.6874       -979.2374
 95  4 11 16 16 45.0000000  0  6G31G18G19G27G28G29
  -2182625.02446  -1625390.22545  22845046.1254   22845049.5824
      2375.5314       1851.0634
   -420815.38447   -319284.79548  20259697.0004   20259699.2974
       393.1094        306.3194
   -851807.57247   -647046.84648  21165598.3984   21165600.8364
       966.7194        753.2874
  -2099647.02846  -1576770.66145  23497625.0314   23497627.7274
      2263.4534       1763.7304
   -455558.693 5   -354981.111 5  23336934.387    23336931.523
       390.250         304.091
   1242587.22947    927448.99548  20908707.4454   20908709.2034
     -1260.0474       -981.8554
 95  4 11 16 17  0.0000000  0  6G31G18G19G27G28G29
  -2218249.49446  -1653149.54745  22838267.2114   22838270.8554
      2374.4064       1850.1874
   -426686.27447   -323859.51047  20258579.9924   20258582.2304
       389.7034        303.6654
   -866309.65547   -658347.16748  21162838.7814   21162841.3594
       966.8594        753.3974
  -2133617.72946  -1603241.33245  23491161.5164   23491164.3984
      2266.0474       1765.7514
   -461375.560 5   -359513.735 5  23335827.379    23335824.531
       385.344         300.268
   1261513.35947    942196.61748  20912308.7274   20912310.4614
     -1263.4224       -984.4854
 95  4 11 16 17 15.0000000  0  6G31G18G19G27G28G29
  -2253854.32946  -1680893.58045  22831491.9384   22831495.4184
      2372.9534       1849.0544
   -432504.35647   -328393.07947  20257472.8914   20257474.9654
       386.0474        300.8164
   -880810.32247   -669646.38648  21160079.4924   21160082.1174
       966.6564        753.2394
  -2167626.25046  -1629741.46545  23484690.0474   23484693.0004
      2268.4844       1767.6504
   -467117.211 5   -363987.744 5  23334734.684    23334731.555
       380.266         296.311
   1280492.66947    956985.67648  20915920.1724   20915921.9884
     -1267.0784       -987.3344
 95  4 11 16 17 30.0000000  0  6G31G18G19G27G28G29
  -2289436.63046  -1708620.05245  22824720.9924   22824724.5204
      2371.1094       1847.6184
   -438268.60847   -332884.70947  20256375.8204   20256377.8484
       382.2194        297.8334
   -895310.13347   -680944.93848  21157320.1724   21157322.9964
       966.4224        753.0564
  -2201672.77746  -1656271.21445  23478211.2894   23478213.9384
      2270.8594       1769.5014
   -472783.653 5   -368403.149 5  23333656.371    23333653.156
       375.016         292.220
   1299525.08947    971816.12148  20919542.0164   20919543.7384
     -1270.8284       -990.2564
 95  4 11 16 17 45.0000000  0  6G31G18G19G27G28G29
  -2324990.56246  -1736324.41445  22817954.9064   22817958.6684
      2369.0784       1846.0354
   -443974.14447   -337330.57847  20255290.1564   20255292.1844
       378.1884        294.6924
   -909806.92347   -692241.13248  21154561.5784   21154564.4964
       966.1414        752.8374
  -2235757.15746  -1682830.47145  23471724.7734   23471727.1994
      2273.4534       1771.5224
   -478371.805 5   -372757.552 5  23332593.043    23332589.570
       369.781         288.141
   1318613.23447    986689.98248  20923174.6954   20923176.5824
     -1274.6254       -993.2144
 95  4 11 16 18  0.0000000  0  6G31G18G19G27G28G29
  -2360512.40346  -1764003.76045  22811195.5314   22811199.3284
      2367.2814       1844.6354
   -449616.12948   -341726.93247  20254216.7734   20254218.6484
       374.0784        291.4894
   -924297.79647   -703532.72348  21151804.1644   21151807.0354
       966.1564        752.8494
  -2269882.07146  -1709421.31045  23465230.6254   23465233.7304
      2276.6724       1774.0304
   -483881.038 5   -377050.457 5  23331544.695    23331541.156
       364.891         284.330
   1337759.18147   1001608.89248  20926817.8834   20926819.7704
     -1278.0474       -995.8814
 95  4 11 16 18 15.0000000  0  6G31G18G19G27G28G29
  -2396002.29246  -1791658.22245  22804441.8984   22804445.8954
      2364.7344       1842.6504
   -455191.54147   -346071.40747  20253155.4614   20253157.3134
       369.3134        287.7764
   -938788.99847   -714824.56648  21149046.5554   21149049.3444
       966.0784        752.7884
  -2304051.30146  -1736046.67345  23458728.6644   23458731.7234
      2279.1254       1775.9424
   -489313.220 5   -381283.328 5  23330511.129    23330507.773
       359.375         280.032
   1356958.91247   1016569.70848  20930471.6724   20930473.6884
     -1281.9224       -998.9004
 95  4 11 16 18 30.0000000  0  6G31G18G19G27G28G29
  -2431457.44446  -1819285.60245  22797694.8914   22797699.0514
      2362.7194       1841.0804
   -460699.14048   -350363.04647  20252107.6644   20252109.4694
       365.0474        284.4524
   -953284.19347   -726119.52348  21146288.2504   21146290.8164
       966.6254        753.2144
  -2338257.32246  -1762700.71245  23452219.1094   23452222.0274
      2281.7034       1777.9504
   -494665.713 5   -385454.099 5  23329492.313    23329489.297
       354.328         276.100
   1376213.11747   1031572.97048  20934135.9144   20934137.8014
     -1285.2664      -1001.5064
 95  4 11 16 18 45.0000000  0  6G31G18G19G27G28G29
  -2466878.92346  -1846886.75945  22790954.6884   22790958.5204
      2360.2504       1839.1564
   -466138.51548   -354601.52047  20251072.5314   20251074.4064
       360.3754        280.8124
   -967783.60947   -737417.76948  21143529.3284   21143531.8484
       966.7974        753.3484
  -2372499.26246  -1789382.73545  23445703.2114   23445706.3164
      2284.0004       1779.7404
   -499939.136 5   -389563.257 5  23328488.664    23328485.445
       348.969         271.924
   1395520.60047   1046617.74848  20937809.6644   20937811.4574
     -1288.8914      -1004.3304
 95  4 11 16 19  0.0000000  0  6G31G18G19G27G28G29
  -2502259.68446  -1874456.18045  22784222.1884   22784225.9844
      2357.2504       1836.8184
   -471506.20648   -358784.13747  20250051.1884   20250053.1214
       355.3444        276.8914
   -982286.28147   -748718.55048  21140769.3284   21140771.9414
       966.9224        753.4464
  -2406773.92046  -1816090.26145  23439181.0474   23439184.2464
      2285.9844       1781.2874
   -505130.629 5   -393608.576 5  23327500.523    23327497.594
       343.281         267.492
   1414884.83547   1061706.74748  20941494.7664   20941496.3954
     -1293.0474      -1007.5694
 95  4 11 16 19 15.0000000  0  6G31G18G19G27G28G29
  -2537601.96746  -1901995.61645  22777496.9064   22777500.5394
      2355.0004       1835.0654
   -476805.02148   -362913.08447  20249042.7424   20249044.6764
       351.0944        273.5804
   -996796.29147   -760025.04948  21138008.0864   21138010.7584
       967.7034        754.0544
  -2441084.07346  -1842825.43845  23432652.4774   23432655.2424
      2288.5784       1783.3084
   -510242.223 5   -397591.637 5  23326527.859    23326525.164
       338.172         263.511
   1434307.85747   1076841.55748  20945190.6884   20945192.3404
     -1296.7504      -1010.4554
 95  4 11 16 19 30.0000000  0  6G31G18G19G27G28G29
  -2572904.04946  -1929503.73946  22770778.6254   22770781.8714
      2351.9694       1832.7034
   -482034.86348   -366988.28847  20248047.4224   20248049.3094
       346.2344        269.7934
  -1011313.04447   -771336.79948  21135245.6024   21135248.3444
       967.8914        754.2004
  -2475424.82846  -1869584.45445  23426117.1954   23426119.9964
      2290.2344       1784.5984
   -515271.327 5   -401510.415 5  23325570.918    23325567.953
       332.391         259.006
   1453792.50347   1092024.38448  20948898.6094   20948900.1564
     -1301.1094      -1013.8514
 95  4 11 16 19 45.0000000  0  6G31G18G19G27G28G29
  -2608164.03246  -1956979.05745  22764069.1644   22764072.4574
      2349.2664       1830.5974
   -487194.94348   -371009.13047  20247065.5634   20247067.5664
       341.6564        266.2264
  -1025835.85347   -782653.27148  21132482.1254   21132484.7624
       968.4534        754.6394
  -2509794.55046  -1896366.04645  23419576.9614   23419579.9384
      2292.2974       1786.2054
   -520216.246 5   -405363.600 5  23324629.871    23324626.789
       326.875         254.708
   1473338.75647   1107255.22448  20952618.2114   20952619.7814
     -1305.1254      -1016.9814
 95  4 11 16 20  0.0000000  0  6G31G18G19G27G28G29
  -2643384.68646  -1984423.71345  22757366.7344   22757370.0984
      2346.8284       1828.6974
   -492284.65948   -374975.14447  20246097.2814   20246099.4024
       336.9534        262.5614
  -1040368.65047   -793977.52848  21129716.4224   21129719.2934
       969.3134        755.3084
  -2544194.49446  -1923171.19045  23413030.8364   23413034.0234
      2294.3284       1787.7884
   -525078.766 5   -409152.575 5  23323704.590    23323701.211
       321.469         250.495
   1492944.28947   1122532.25048  20956349.0704   20956350.8284
     -1308.9064      -1019.9274
 95  4 11 16 20 15.0000000  0  6G31G18G19G27G28G29
  -2678567.69646  -2011839.04746  22750671.5704   22750675.2854
      2344.1884       1826.6404
   -497303.48748   -378885.91847  20245141.8754   20245143.9734
       332.1564        258.8234
  -1054915.43247   -805312.68348  21126948.2584   21126950.8834
       970.2344        756.0274
  -2578623.06546  -1949998.64345  23406479.6174   23406482.8524
      2296.0164       1789.1034
   -529859.478 5   -412877.813 5  23322794.688    23322791.523
       315.891         246.149
   1512605.85247   1137852.93448  20960090.7344   20960092.5864
     -1312.7034      -1022.8864
 95  4 11 16 20 30.0000000  0  6G31G18G19G27G28G29
  -2713711.20646  -2039223.61145  22743983.8284   22743987.8244
      2341.6094       1824.6314
   -502252.34148   -382742.17247  20244200.1804   20244202.2894
       327.5784        255.2564
  -1069475.92947   -816658.52148  21124177.3984   21124180.0944
       971.0634        756.6724
  -2613075.11746  -1976844.39945  23399923.4064   23399926.7464
      2297.5944       1790.3334
   -534556.055 5   -416537.485 5  23321900.723    23321898.008
       310.297         241.790
   1532324.31347   1153217.95448  20963842.7504   20963844.5664
     -1316.5004      -1025.8444
 95  4 11 16 20 45.0000000  0  6G31G18G19G27G28G29
  -2748813.43346  -2066575.98746  22737304.1644   22737308.1484
      2338.7194       1822.3784
   -507127.78048   -386541.21947  20243272.5164   20243274.7424
       322.5314        251.3234
  -1084043.04447   -828009.52148  21121405.6174   21121408.2424
       971.2504        756.8184
  -2647549.79846  -2003707.78745  23393362.6804   23393365.7974
      2299.1724       1791.5634
   -539165.503 5   -420129.265 5  23321023.613    23321020.922
       304.359         237.163
   1552103.83447   1168630.55048  20967606.6884   20967608.7624
     -1320.7194      -1029.1314
 95  4 11 16 21  0.0000000  0  6G31G18G19G27G28G29
  -2783871.52546  -2093893.98545  22730632.9454   22730637.0124
      2335.9224       1820.1994
   -511929.44148   -390282.77147  20242358.7664   20242361.0274
       317.7814        247.6224
  -1098614.61847   -839363.99448  21118632.9144   21118635.5514
       971.8134        757.2564
  -2682050.82046  -2030591.68545  23386797.5084   23386801.1994
      2301.1094       1793.0724
   -543686.925 5   -423652.456 5  23320163.305    23320160.836
       298.656         232.719
   1571945.40447   1184091.49948  20971382.3364   20971384.5514
     -1324.6414      -1032.1874
 95  4 11 16 21 15.0000000  0  6G31G18G19G27G28G29
  -2818886.76146  -2121178.59045  22723969.4064   22723973.8364
      2333.0004       1817.9224
   -516656.03248   -393965.82948  20241459.2894   20241461.6214
       312.6094        243.5924
  -1113191.42647   -850722.55048  21115858.7584   21115861.4414
       971.8914        757.3174
  -2716578.77246  -2057496.57445  23380226.5784   23380230.4574
      2302.7974       1794.3874
   -548120.484 5   -427107.181 5  23319319.922    23319317.117
       292.672         228.056
   1591847.02347   1199599.24048  20975169.5234   20975171.6094
     -1328.7034      -1035.3534
 95  4 11 16 21 30.0000000  0  6G31G18G19G27G28G29
  -2853860.60046  -2148430.92745  22717314.3834   22717318.4494
      2330.1414       1815.6944
   -521307.30748   -397590.20147  20240574.2894   20240576.6214
       307.4534        239.5744
  -1127770.94947   -862083.21748  21113084.3834   21113087.1604
       972.0474        757.4394
  -2751132.78246  -2084421.76945  23373651.6334   23373655.7114
      2304.4064       1795.6414
   -552466.189 5   -430493.448 5  23318492.910    23318490.234
       286.719         223.417
   1611805.84147   1215151.55448  20978967.9454   20978969.9734
     -1332.4534      -1038.2754
 95  4 11 16 21 45.0000000  0  6G31G18G19G27G28G29
  -2888790.05946  -2175648.69145  22710667.1724   22710671.3914
      2327.0944       1813.3204
   -525879.97848   -401153.32647  20239704.0474   20239706.2384
       302.1254        235.4224
  -1142353.25147   -873446.05048  21110309.6414   21110312.4184
       972.2034        757.5614
  -2785710.61846  -2111365.54345  23367071.4694   23367075.8164
      2305.9534       1796.8474
   -556722.381 5   -433809.957 5  23317682.863    23317680.406
       280.688         218.718
   1631820.42147   1230747.32048  20982776.4694   20982778.4144
     -1336.1724      -1041.1734
 95  4 11 16 22  0.0000000  0  6G31G18G19G27G28G29
  -2923674.77446  -2202831.58346  22704028.9774   22704033.5124
      2324.0164       1810.9214
   -530370.69248   -404652.58448  20238849.8284   20238852.1024
       296.4224        230.9784
  -1156936.78347   -884809.84248  21107534.3444   21107537.2504
       972.0944        757.4764
  -2820310.50746  -2138326.48045  23360487.5864   23360490.9734
      2307.1254       1797.7604
   -560886.659 5   -437054.850 5  23316890.480    23316888.016
       274.359         213.787
   1651892.22547   1246387.67348  20986596.0314   20986598.0124
     -1340.2814      -1044.3754
 95  4 11 16 22 15.0000000  0  6G31G18G19G27G28G29
  -2958517.73346  -2229981.94346  22697398.5164   22697403.3444
      2321.6094       1809.0464
   -534780.57348   -408088.85748  20238010.5554   20238012.9344
       291.6094        227.2284
  -1171520.92047   -896174.10748  21104759.1954   21104762.1604
       972.4534        757.7564
  -2854931.17546  -2165303.62645  23353898.8834   23353902.7274
      2308.9844       1799.2094
   -564959.880 5   -440228.787 5  23316115.680    23316112.969
       268.750         209.416
   1672021.85047   1262073.08148  20990426.6094   20990428.5554
     -1343.7194      -1047.0544
 95  4 11 16 22 30.0000000  0  6G31G18G19G27G28G29
  -2993317.71146  -2257098.79946  22690776.6484   22690781.3014
      2318.4534       1806.5874
   -539114.77248   -411466.15548  20237185.4774   20237187.9264
       286.3754        223.1494
  -1186102.51347   -907536.38748  21101984.1484   21101987.0664
       971.7814        757.2324
  -2889574.73346  -2192298.59745  23347306.9304   23347310.9144
      2310.2034       1800.1584
   -568942.992 5   -443332.510 5  23315358.000    23315354.992
       262.375         204.448
   1692210.34047   1277804.36348  20994268.4534   20994270.2704
     -1348.0624      -1050.4384
 95  4 11 16 22 45.0000000  0  6G31G18G19G27G28G29
  -3028074.21246  -2284181.78246  22684162.9454   22684167.3284
      2315.6724       1804.4204
   -543375.42248   -414786.14248  20236374.7734   20236377.2234
       281.5314        219.3754
  -1200676.33247   -918892.60948  21099211.0164   21099213.9454
       971.2814        756.8434
  -2924241.58346  -2219311.72245  23340710.2974   23340714.3164
      2311.8444       1801.4374
   -572834.305 5   -446364.694 5  23314617.711    23314614.477
       256.313         199.724
   1712461.68847   1293584.62148  20998121.9144   20998123.8244
     -1352.2974      -1053.7384
 95  4 11 16 23  0.0000000  0  6G31G18G19G27G28G29
  -3062789.13246  -2311232.40245  22677557.1334   22677561.4804
      2312.9384       1802.2894
   -547562.86648   -418049.09048  20235578.2114   20235580.5434
       276.7814        215.6744
  -1215242.50147   -930242.87248  21096439.2894   21096442.1374
       970.8444        756.5024
  -2958930.99246  -2246342.38046  23334108.9694   23334111.6644
      2313.3594       1802.6184
   -576633.938 5   -449325.448 5  23313894.555    23313891.688
       250.281         195.024
   1732778.61647   1309415.98448  21001988.0704   21001990.1094
     -1356.6874      -1057.1594
 95  4 11 16 23 15.0000000  0  6G31G18G19G27G28G29
  -3097461.89646  -2338250.09646  22670958.7034   22670962.0204
      2310.0784       1800.0614
   -551677.52748   -421255.32448  20234795.1884   20234797.5204
       271.7974        211.7904
  -1229801.25747   -941587.35248  21093668.8444   21093671.5044
       970.2814        756.0634
  -2993639.26646  -2273387.82445  23327504.2664   23327507.4774
      2314.4064       1803.4334
   -580341.576 5   -452214.511 5  23313188.891    23313185.906
       244.063         190.179
   1753162.92447   1325299.84848  21005867.2504   21005869.3484
     -1361.2504      -1060.7144
 95  4 11 16 23 30.0000000  0  6G31G18G19G27G28G29
  -3132092.66346  -2365235.11446  22664368.6254   22664372.0234
      2307.4534       1798.0154
   -555719.32748   -424404.77948  20234026.1024   20234028.3634
       267.1564        208.1744
  -1244352.16247   -952925.72248  21090899.8984   21090902.3714
       969.9694        755.8204
  -3028363.85346  -2300445.94345  23320896.3594   23320898.7384
      2315.6094       1804.3714
   -583956.808 5   -455031.574 5  23312500.902    23312497.688
       238.016         185.467
   1773616.12747   1341237.39948  21009758.8754   21009760.9734
     -1365.8124      -1064.2694
 95  4 11 16 23 45.0000000  0  6G31G18G19G27G28G29
  -3166682.82046  -2392188.47246  22657786.4144   22657790.0124
      2304.3134       1795.5684
   -559690.21448   -427498.98048  20233270.2894   20233272.5634
       262.0314        204.1804
  -1258899.18547   -964261.06748  21088131.8054   21088134.2304
       969.3914        755.3694
  -3063104.84846  -2327516.84245  23314284.7734   23314287.4924
      2316.3594       1804.9554
   -587479.508 5   -457776.533 5  23311830.570    23311827.211
       231.438         180.341
   1794140.71347   1357230.57348  21013664.9454   21013667.0904
     -1371.0624      -1068.3604
 95  4 11 16 24  0.0000000  0  6G31G18G19G27G28G29
  -3201217.80546  -2419098.83246  22651214.4064   22651218.1094
      2300.7814       1792.8174
   -563575.97848   -430526.85248  20232531.0944   20232533.4144
       256.5004        199.8704
  -1273426.64647   -975581.16648  21085367.3204   21085369.8754
       968.0634        754.3344
  -3097849.86946  -2354590.88045  23307673.4534   23307676.6294
      2316.8134       1805.3084
   -590895.655 5   -460438.467 5  23311180.668    23311177.102
       224.484         174.923
   1814752.91147   1373292.01848  21017587.1804   21017589.2544
     -1376.8284      -1072.8534
 95  4 11 16 24 15.0000000  0  6G31G18G19G27G28G29
  -3235708.12546  -2445974.40946  22644650.8524   22644654.8834
      2298.0634       1790.6984
   -567388.72948   -433497.82748  20231805.3834   20231807.6334
       252.0164        196.3764
  -1287943.66547   -986893.12948  21082604.8204   21082607.4804
       967.6884        754.0424
  -3132612.78946  -2381678.85445  23301058.3594   23301062.0044
      2318.4064       1806.5504
   -594217.899 5   -463027.229 5  23310548.426    23310544.828
       218.641         170.369
   1835443.13747   1389414.26148  21021524.2034   21021526.3834
     -1381.7194      -1076.6644
 95  4 11 16 24 30.0000000  0  6G31G18G19G27G28G29
  -3270153.26446  -2472814.75446  22638096.5554   22638100.3404
      2294.6094       1788.0074
   -571132.07648   -436414.72748  20231093.0704   20231095.0634
       247.0314        192.4924
  -1302453.14447   -998199.21648  21079843.7344   21079846.2894
       966.9384        753.4584
  -3167398.32446  -2408784.46245  23294438.8204   23294442.9804
      2319.6724       1807.5374
   -597449.235 5   -465545.146 5  23309933.539    23309929.766
       212.234         165.377
   1856208.66747   1405595.18448  21025475.9064   21025477.9924
     -1387.0314      -1080.8044
 95  4 11 16 24 45.0000000  0  6G31G18G19G27G28G29
  -3304535.09846  -2499605.78146  22631553.5634   22631557.3244
      2290.4384       1784.7564
   -574786.82348   -439262.58248  20230397.7974   20230399.9184
       241.0314        187.8174
  -1316939.79847  -1009487.52048  21077086.8594   21077089.5664
       965.4534        752.3014
  -3202189.88846  -2435894.75845  23287818.3204   23287821.7074
      2319.9534       1807.7564
   -600572.277 5   -467978.691 5  23309339.242    23309335.594
       204.969         159.716
   1877066.22147   1421847.81148  21029445.1334   21029447.3014
     -1393.1724      -1085.5884
 95  4 11 16 25  0.0000000  0  6G31G18G19G27G28G29
  -3338865.14946  -2526356.46046  22625021.3444   22625024.4964
      2286.9534       1782.0414
   -578360.94248   -442047.61448  20229717.5164   20229719.5204
       235.5164        183.5194
  -1331417.79547  -1020769.07648  21074331.5474   21074334.2894
       965.0314        751.9724
  -3236995.94346  -2463016.35345  23281195.0944   23281198.1884
      2320.9224       1808.5114
   -603597.321 5   -470335.867 5  23308763.316    23308759.984
       198.453         154.639
   1898004.51547   1438163.34748  21033429.5394   21033431.7074
     -1398.4694      -1089.7164
 95  4 11 16 25 15.0000000  0  6G31G18G19G27G28G29
  -3373141.68346  -2553065.44346  22618499.0704   22618501.9654
      2283.2034       1779.1194
   -581853.01248   -444768.71348  20229053.1094   20229055.1604
       230.0634        179.2694
  -1345889.99947  -1032046.11948  21071577.5704   21071580.3954
       964.5944        751.6314
  -3271818.92646  -2490151.13745  23274568.1564   23274571.2624
      2322.1414       1809.4604
   -606525.790 5   -472617.787 5  23308205.824    23308202.820
       191.984         149.598
   1919020.19747   1454539.19048  21037428.9224   21037431.1254
     -1403.5474      -1093.6734
 95  4 11 16 25 30.0000000  0  6G31G18G19G27G28G29
  -3407360.54546  -2579729.46546  22611987.1174   22611990.2704
      2279.4224       1776.1734
   -585261.76648   -447424.88948  20228404.0394   20228406.3594
       224.5634        174.9844
  -1360355.32947  -1043317.80348  21068824.9224   21068827.6644
       964.1564        751.2914
  -3306659.01446  -2517299.25546  23267938.3204   23267941.9414
      2323.3284       1810.3864
   -609356.153 5   -474823.266 5  23307667.406    23307664.141
       185.500         144.545
   1940110.84647   1470973.45248  21041442.1884   21041444.1804
     -1408.4694      -1097.5084
 95  4 11 16 25 45.0000000  0  6G31G18G19G27G28G29
  -3441523.89246  -2606350.24846  22605485.6724   22605488.7774
      2275.6094       1773.2024
   -588588.93848   -450017.49447  20227770.8914   20227773.2114
       218.9844        170.6374
  -1374813.13047  -1054583.62448  21066073.8984   21066076.7114
       963.5004        750.7794
  -3341518.74046  -2544462.68045  23261304.6414   23261308.2504
      2324.5634       1811.3474
   -612089.638 5   -476953.253 5  23307147.281    23307144.141
       178.922         139.420
   1961275.12747   1487465.08448  21045469.8054   21045471.7274
     -1413.4374      -1101.3804
 95  4 11 16 26  0.0000000  0  6G31G18G19G27G28G29
  -3475628.41846  -2632925.18346  22598996.0474   22598999.0004
      2271.5944       1770.0734
   -591832.02648   -452544.58047  20227153.8364   20227156.0984
       213.4534        166.3274
  -1389260.01847  -1065840.93848  21063324.7894   21063327.5904
       962.6564        750.1224
  -3376396.97746  -2571640.51145  23254667.8364   23254671.2934
      2325.8594       1812.3584
   -614725.006 5   -479006.789 5  23306645.621    23306642.867
       172.438         134.367
   1982511.94347   1504013.23948  21049511.2034   21049513.1484
     -1418.1254      -1105.0324
 95  4 11 16 26 15.0000000  0  6G31G18G19G27G28G29
  -3509671.94646  -2659452.58846  22592518.1174   22592520.8244
      2267.7194       1767.0544
   -594992.51448   -455007.30047  20226552.5554   20226554.7814
       208.0634        162.1274
  -1403693.47347  -1077087.78248  21060577.9224   21060580.9454
       962.0164        749.6234
  -3411293.90146  -2598832.92545  23248027.5234   23248031.0274
      2327.2034       1813.4054
   -617262.220 5   -480983.839 5  23306162.613    23306160.180
       165.984         129.338
   2003819.07447   1520616.18748  21053565.5004   21053567.3284
     -1422.6564      -1108.5634
 95  4 11 16 26 30.0000000  0  6G31G18G19G27G28G29
  -3543658.05546  -2685935.25646  22586050.7664   22586053.8014
      2263.6414       1763.8764
   -598071.13948   -457406.23047  20225966.5634   20225968.8714
       202.2814        157.6224
  -1418119.24247  -1088328.64048  21057833.1644   21057835.9774
       961.2974        749.0634
  -3446209.20546  -2626039.65645  23241383.0394   23241386.6484
      2328.0004       1814.0264
   -619701.898 5   -482884.885 5  23305698.473    23305696.188
       159.156         124.018
   2025193.64947   1537271.68747  21057632.7894   21057634.7934
     -1427.4224      -1112.2774
 95  4 11 16 26 45.0000000  0  6G31G18G19G27G28G29
  -3577585.12846  -2712371.92146  22579594.4694   22579597.3524
      2259.8134       1760.8934
   -601063.71848   -459738.11447  20225397.2114   20225399.4384
       196.6094        153.2024
  -1432535.62247  -1099562.17948  21055089.8594   21055092.6024
       960.7344        748.6244
  -3481136.88746  -2653256.02245  23234736.7584   23234740.3444
      2328.8444       1814.6834
   -622040.266 5   -484706.991 5  23305253.188    23305251.031
       152.531         118.856
   2046636.99547   1553980.77747  21061713.3754   21061715.3444
     -1431.8284      -1115.7104
 95  4 11 16 27  0.0000000  0  6G31G18G19G27G28G29
  -3611454.10746  -2738763.31946  22573149.5784   22573152.5204
      2255.7974       1757.7644
   -603971.49047   -462003.91447  20224843.5004   20224845.9024
       190.8754        148.7344
  -1446941.74747  -1110787.73248  21052348.5554   21052351.1684
       959.8444        747.9304
  -3516075.04046  -2680480.54946  23228088.3914   23228092.0234
      2329.3594       1815.0854
   -624277.975 5   -486450.659 5  23304827.242    23304825.070
       145.641         113.486
   2068147.03547   1570741.83248  21065806.5784   21065808.5474
     -1436.3444      -1119.2294
 95  4 11 16 27 15.0000000  0  6G31G18G19G27G28G29
  -3645265.71746  -2765109.99646  22566715.2814   22566718.0234
      2252.1884       1754.9514
   -606796.59047   -464205.29747  20224305.8594   20224308.2624
       185.6564        144.6674
  -1461336.77547  -1122004.64048  21049609.3984   21049611.8834
       959.2664        747.4804
  -3551025.38246  -2707714.57746  23221437.3204   23221441.2814
      2330.4844       1815.9624
   -626415.756 5   -488116.461 5  23304420.598    23304418.500
       139.219         108.482
   2089720.82447   1587552.56647  21069912.2194   21069914.1524
     -1440.3594      -1122.3584
 95  4 11 16 27 30.0000000  0  6G31G18G19G27G28G29
  -3679018.56046  -2791410.90046  22560292.4614   22560295.2274
      2248.4064       1752.0054
   -609539.17247   -466342.37647  20223784.1564   20223786.4654
       180.1724        140.3944
  -1475716.14447  -1133209.33948  21046872.9774   21046875.2974
       958.2344        746.6764
  -3585986.35346  -2734956.89245  23214784.1254   23214788.1804
      2331.1094       1816.4494
   -628451.428 5   -489702.700 5  23304033.039    23304031.172
       132.406         103.174
   2111360.55447   1604414.68148  21074030.0474   21074032.0274
     -1444.7344      -1125.7674
 95  4 11 16 27 45.0000000  0  6G31G18G19G27G28G29
  -3712715.49946  -2817668.23446  22553880.0164   22553883.4144
      2244.4534       1748.9254
   -612197.65247   -468413.92247  20223278.3914   20223280.7234
       174.2814        135.8044
  -1490080.30547  -1144402.19348  21044139.6334   21044142.0124
       956.9694        745.6904
  -3620954.14646  -2762204.51845  23208129.9844   23208133.7114
      2331.2194       1816.5344
   -630384.667 5   -491209.117 5  23303665.262    23303663.180
       125.328          97.658
   2133067.16647   1621328.90848  21078160.5864   21078162.5664
     -1449.5314      -1129.5054
 95  4 11 16 28  0.0000000  0  6G31G18G19G27G28G29
  -3746351.95846  -2843878.42946  22547479.1334   22547482.3554
      2240.3914       1745.7594
   -614769.06347   -470417.62447  20222789.0944   20222791.4384
       168.6094        131.3844
  -1504427.59147  -1155581.89748  21041409.3524   21041411.9414
       956.0944        745.0084
  -3655924.87046  -2789454.42646  23201475.5164   23201478.9384
      2331.5634       1816.8024
   -632212.116 5   -492633.105 5  23303317.648    23303315.211
       118.359          92.228
   2154844.46147   1638298.21948  21082304.4534   21082306.6214
     -1454.0624      -1133.0364
 95  4 11 16 28 15.0000000  0  6G31G18G19G27G28G29
  -3779931.41446  -2870044.21846  22541089.0554   22541092.3244
      2236.7034       1742.8864
   -617259.44047   -472358.18147  20222315.3754   20222317.9654
       163.2504        127.2084
  -1518766.54047  -1166755.10048  21038680.4384   21038683.1684
       955.6724        744.6794
  -3690904.01546  -2816710.89946  23194819.2734   23194822.5554
      2332.1724       1817.2774
   -633939.116 5   -493978.816 5  23302988.906    23302986.656
       111.750          87.078
   2176685.78947   1655317.42148  21086461.1484   21086463.4344
     -1458.3444      -1136.3724
 95  4 11 16 28 30.0000000  0  6G31G18G19G27G28G29
  -3813461.37546  -2896171.44046  22534708.8524   22534711.8164
      2233.5164       1740.4024
   -619673.24847   -474239.07447  20221855.7274   20221858.3874
       158.1724        123.2514
  -1533105.82647  -1177928.57248  21035952.1174   21035954.9064
       955.8134        744.7894
  -3725897.25746  -2843978.36145  23188160.1954   23188163.4304
      2333.1724       1818.0564
   -635571.721 5   -495250.973 5  23302678.418    23302675.805
       105.531          82.232
   2198587.16147   1672383.41548  21090628.8284   21090631.0314
     -1462.2504      -1139.4164
 95  4 11 16 28 45.0000000  0  6G31G18G19G27G28G29
  -3846932.91346  -2922253.14046  22528339.5554   22528342.2624
      2229.3284       1737.1394
   -622000.70747   -476052.68247  20221412.9844   20221415.3874
       152.1724        118.5754
  -1547436.23647  -1189095.12548  21033224.9224   21033227.8754
       954.8754        744.0584
  -3760895.57146  -2871249.77445  23181499.9534   23181503.2464
      2333.3594       1818.2024
   -637101.890 5   -496443.313 5  23302387.301    23302384.438
        98.500          76.753
   2220557.17547   1689502.89448  21094809.5784   21094811.7814
     -1467.0944      -1143.1904
 95  4 11 16 29  0.0000000  0  6G31G18G19G27G28G29
  -3880339.75746  -2948284.42446  22521981.9694   22521984.9224
      2224.8914       1733.6814
   -624239.27447   -477797.02647  20220986.9694   20220989.4774
       146.3284        114.0224
  -1561751.50247  -1200249.87748  21030500.8914   21030503.7384
       953.8594        743.2674
  -3795899.19646  -2898525.31545  23174838.8284   23174842.4024
      2333.8284       1818.5674
   -638527.016 5   -497553.804 5  23302116.234    23302113.203
        91.516          71.311
   2242600.02947   1706679.12648  21099004.1094   21099006.3954
     -1472.0004      -1147.0134
 95  4 11 16 29 15.0000000  0  6G31G18G19G27G28G29
  -3913679.87546  -2974263.71746  22515637.2584   22515640.9264
      2220.5164       1730.2724
   -626390.21847   -479473.08747  20220577.7344   20220580.0784
       140.5314        109.5054
  -1576051.94947  -1211393.08348  21027779.8674   21027782.7274
       953.0004        742.5974
  -3830911.53946  -2925807.66045  23168176.3204   23168179.8134
      2334.6414       1819.2004
   -639846.353 5   -498581.858 5  23301865.086    23301861.953
        84.500          65.844
   2264718.41947   1723914.22148  21103213.2424   21103215.4694
     -1477.0164      -1150.9214
 95  4 11 16 29 30.0000000  0  6G31G18G19G27G28G29
  -3946955.55546  -3000192.79646  22509305.4534   22509309.3094
      2216.1564       1726.8754
   -628455.48347   -481082.39047  20220184.5634   20220186.8594
       134.7664        105.0124
  -1590342.66347  -1222528.70548  21025060.3594   21025063.1604
       952.4064        742.1354
  -3865938.42646  -2953101.32746  23161510.7114   23161514.0514
      2335.5634       1819.9194
   -641062.606 5   -499529.588 5  23301633.758    23301630.398
        77.609          60.475
   2286911.06347   1741207.17648  21107436.5314   21107438.8164
     -1482.0784      -1154.8664
 95  4 11 16 29 45.0000000  0  6G31G18G19G27G28G29
  -3980162.46846  -3026068.28446  22502986.3204   22502990.1524
      2211.5314       1723.2714
   -630431.49647   -482622.14347  20219808.6414   20219811.0434
       128.8444        100.3984
  -1604624.52347  -1233657.42648  21022342.4534   21022345.2544
       951.9694        741.7944
  -3900977.96446  -2980404.86145  23154843.0474   23154846.4804
      2336.5164       1820.6624
   -642174.519 5   -500396.015 5  23301422.438    23301418.766
        70.766          55.142
   2309181.22247   1758560.53348  21111674.5234   21111676.5514
     -1487.0944      -1158.7744
 95  4 11 16 30  0.0000000  0  6G31G18G19G27G28G29
  -4013294.74546  -3051885.61046  22496681.5634   22496684.9384
      2206.0634       1719.0104
   -632316.86147   -484091.26347  20219449.7424   20219452.1914
       122.5474         95.4914
  -1618897.32547  -1244779.09148  21019626.5784   21019629.2854
       951.0314        741.0634
  -3936030.80146  -3007718.75345  23148172.7734   23148175.9264
      2337.2194       1821.2094
   -643180.792 5   -501180.119 5  23301231.203    23301227.664
        63.344          49.359
   2331529.00547   1775974.37948  21115927.0164   21115929.0434
     -1492.6564      -1163.1094
 95  4 11 16 30 15.0000000  0  6G31G18G19G27G28G29
  -4046347.38946  -3077640.90546  22490391.8444   22490395.3134
      2201.0474       1715.1014
   -634110.11047   -485488.60747  20219108.7424   20219111.2734
       116.5474         90.8164
  -1633158.32647  -1255891.56548  21016912.6484   21016915.3204
       950.4534        740.6134
  -3971099.21046  -3035044.79045  23141499.6174   23141502.6764
      2338.5634       1822.2564
   -644078.904 5   -501879.950 5  23301060.473    23301057.180
        56.406          43.953
   2353958.05747   1793451.54948  21120195.1334   21120197.1604
     -1497.8914      -1167.1874
 95  4 11 16 30 30.0000000  0  6G31G18G19G27G28G29
  -4079326.60746  -3103338.97646  22484115.9694   22484119.1914
      2196.2344       1711.3514
   -635812.43147   -486815.09447  20218784.4384   20218787.1094
       110.5314         86.1284
  -1647409.82647  -1266996.63048  21014200.8204   21014203.4924
       949.8914        740.1754
  -4006187.43646  -3062386.26045  23134822.6724   23134825.8484
      2340.0314       1823.4014
   -644873.082 5   -502498.790 5  23300909.176    23300906.102
        49.578          38.632
   2376466.28747   1810990.41547  21124478.0234   21124480.1564
     -1503.1414      -1171.2784
 95  4 11 16 30 45.0000000  0  6G31G18G19G27G28G29
  -4112228.41546  -3128976.71946  22477855.0944   22477858.5514
      2190.6884       1707.0294
   -637421.23547   -488068.71147  20218478.5634   20218481.1884
       104.0474         81.0754
  -1661647.29747  -1278090.76648  21011491.3914   21011494.0634
       948.5314        739.1154
  -4041294.12746  -3089742.11546  23128142.3674   23128145.4614
      2341.0004       1824.1564
   -645560.567 5   -503034.483 5  23300778.344    23300775.391
        42.156          32.849
   2399057.60147   1828594.02148  21128777.1884   21128779.3554
     -1508.9534      -1175.8084
 95  4 11 16 31  0.0000000  0  6G31G18G19G27G28G29
  -4145054.57146  -3154555.52046  22471608.3364   22471611.7234
      2186.1564       1703.4984
   -638941.04147   -489252.97547  20218189.3444   20218191.9104
        98.5944         76.8264
  -1675874.61647  -1289176.99048  21008783.9534   21008786.6374
       948.4844        739.0794
  -4076425.39346  -3117117.12746  23121456.9064   23121460.6214
      2343.1414       1825.8244
   -646145.869 5   -503490.563 5  23300666.785    23300664.102
        35.859          27.942
   2421727.07347   1846258.52848  21133091.3054   21133093.4024
     -1513.5944      -1179.4244
 95  4 11 16 31 15.0000000  0  6G31G18G19G27G28G29
  -4177807.68746  -3180077.40146  22465375.4384   22465378.6604
      2181.4694       1699.8464
   -640373.83047   -490369.43647  20217916.7114   20217919.2664
        92.8594         72.3584
  -1690098.58847  -1300260.60448  21006077.2344   21006080.0594
       948.5004        739.0914
  -4111583.16746  -3144512.77145  23114766.3984   23114769.9614
      2344.9534       1827.2364
   -646631.514 5   -503868.985 5  23300574.262    23300571.531
        29.344          22.865
   2444470.24847   1863980.46747  21137419.0234   21137421.0634
     -1518.4224      -1183.1864
 95  4 11 16 31 30.0000000  0  6G31G18G19G27G28G29
  -4210493.02546  -3205546.46846  22459155.2034   22459158.8134
      2176.6254       1696.0714
   -641720.39047   -491418.70947  20217660.3524   20217663.0124
        86.6724         67.5374
  -1704323.33447  -1311344.82648  21003370.3364   21003373.2194
       948.1094        738.7874
  -4146768.03446  -3171929.54646  23108071.0944   23108074.1414
      2346.3444       1828.3204
   -647020.313 5   -504171.944 5  23300500.215    23300497.633
        22.500          17.532
   2467283.97347   1881757.38047  21141760.3364   21141762.3754
     -1523.3754      -1187.0454
 95  4 11 16 31 45.0000000  0  6G31G18G19G27G28G29
  -4243102.88346  -3230956.72446  22452949.7664   22452953.1764
      2171.3754       1691.9814
   -642970.61347   -492392.91547  20217422.5634   20217425.0824
        80.0004         62.3384
  -1718538.61547  -1322421.67348  21000664.9924   21000667.8754
       947.2814        738.1414
  -4181968.74146  -3199358.67246  23101372.8594   23101376.0704
      2347.0784       1828.8924
   -647303.834 5   -504392.869 5  23300446.105    23300443.313
        15.313          11.932
   2490175.47147   1899594.89847  21146116.3914   21146118.3364
     -1528.7814      -1191.2584
 95  4 11 16 32  0.0000000  0  6G31G18G19G27G28G29
  -4275637.27146  -3256308.18046  22446758.9844   22446762.2894
      2166.5784       1688.2434
   -644121.95547   -493290.06747  20217203.4844   20217206.0864
        73.6094         57.3584
  -1732742.23747  -1333489.43148  20997962.4304   20997965.4064
       946.5634        737.5814
  -4217182.64646  -3226798.06845  23094671.6564   23094674.7154
      2348.1724       1829.7444
   -647481.180 5   -504531.051 5  23300412.426    23300409.508
         8.359           6.514
   2513145.12247   1917493.31548  21150487.6024   21150489.4654
     -1533.7974      -1195.1664
 95  4 11 16 32 15.0000000  0  6G31G18G19G27G28G29
  -4308100.87346  -3281604.47646  22440581.7114   22440584.7704
      2162.0474       1684.7124
   -645177.28547   -494112.40447  20217002.5944   20217005.0434
        67.1414         52.3174
  -1746933.98147  -1344547.93848  20995261.7584   20995264.7814
       945.6724        736.8874
  -4252412.17246  -3254249.64146  23087967.6094   23087970.8094
      2349.1564       1830.5114
   -647554.306 5   -504588.034 5  23300398.375    23300395.805
         1.438           1.120
   2536192.05147   1935451.95248  21154873.3444   21154875.2074
     -1539.0624      -1199.2694
 95  4 11 16 32 30.0000000  0  6G31G18G19G27G28G29
  -4340500.03646  -3306850.55546  22434416.4064   22434419.3244
      2157.7814       1681.3884
   -646136.92147   -494860.17447  20216820.0704   20216822.5664
        60.7974         47.3744
  -1761111.85247  -1355595.62948  20992563.6024   20992566.7424
       944.6724        736.1084
  -4287655.90446  -3281712.27646  23081260.6724   23081264.0944
      2349.9224       1831.1084
   -647524.973 5   -504565.176 5  23300404.156    23300401.445
        -5.359          -4.176
   2559315.38147   1953470.12048  21159273.4384   21159275.4064
     -1544.0624      -1203.1664
 95  4 11 16 32 45.0000000  0  6G31G18G19G27G28G29
  -4372831.85246  -3332044.16146  22428263.8914   22428266.8324
      2153.0634       1677.7114
   -647000.32147   -495532.95947  20216655.5784   20216657.9224
        54.2974         42.3094
  -1775272.76947  -1366630.11348  20989868.9454   20989872.1094
       943.4224        735.1344
  -4322908.32346  -3309181.68946  23074552.8054   23074556.3554
      2350.3754       1831.4614
   -647391.790 5   -504461.394 5  23300429.629    23300426.625
       -12.484          -9.728
   2582514.97747   1971547.71247  21163688.2974   21163690.3714
     -1549.2974      -1207.2444
 95  4 11 16 33  0.0000000  0  6G31G18G19G27G28G29
  -4405093.65246  -3357183.20646  22422124.3914   22422127.4384
      2148.5634       1674.2054
   -647766.95747   -496130.34447  20216509.9924   20216512.3014
        47.9064         37.3304
  -1789416.22547  -1377650.99348  20987177.7274   20987180.9024
       942.4844        734.4034
  -4358168.71146  -3336657.30845  23067842.9224   23067846.1094
      2351.0474       1831.9854
   -647151.956 5   -504274.508 5  23300475.094    23300472.234
       -19.469         -15.170
   2605791.57947   1989685.31247  21168117.5314   21168119.5704
     -1554.2504      -1211.1044
 95  4 11 16 33 15.0000000  0  6G31G18G19G27G28G29
  -4437289.45846  -3382270.83246  22415997.6414   22416000.7114
      2144.2974       1670.8814
   -648438.14947   -496653.35547  20216382.3444   20216384.6994
        41.6414         32.4474
  -1803547.41347  -1388662.31348  20984488.4614   20984491.6254
       941.6414        733.7464
  -4393439.28846  -3364140.85846  23061131.0704   23061134.2344
      2351.7034       1832.4964
   -646807.841 5   -504006.368 5  23300540.469    23300537.750
       -26.375         -20.552
   2629141.39347   2007879.95547  21172560.6884   21172562.7504
     -1559.0624      -1214.8544
 95  4 11 16 33 30.0000000  0  6G31G18G19G27G28G29
  -4469417.97546  -3407306.02446  22409884.0394   22409887.0044
      2139.6724       1667.2774
   -649013.99647   -497102.06547  20216272.6804   20216274.9304
        35.3134         27.5164
  -1817660.37747  -1399659.43048  20981802.8984   20981805.9804
       940.1564        732.5894
  -4428716.73946  -3391629.78446  23054417.9064   23054420.9534
      2352.0784       1832.7884
   -646356.607 5   -503654.756 5  23300626.500    23300623.805
       -33.625         -26.201
   2652567.48247   2026134.03347  21177018.7114   21177020.9734
     -1564.2664      -1218.9084
 95  4 11 16 33 45.0000000  0  6G31G18G19G27G28G29
  -4501478.07846  -3432287.91546  22403783.3834   22403785.9614
      2134.9694       1663.6124
   -649498.70847   -497479.76747  20216180.6094   20216182.8364
        29.2504         22.7924
  -1831751.52047  -1410639.54448  20979121.4064   20979124.3954
       938.6254        731.3964
  -4464001.50546  -3419124.40546  23047703.6564   23047706.7974
      2352.5004       1833.1174
   -645799.396 5   -503220.563 5  23300732.391    23300729.664
       -40.766         -31.765
   2676068.82947   2044446.76047  21181490.8834   21181493.0164
     -1569.2974      -1222.8294
 95  4 11 16 34  0.0000000  0  6G31G18G19G27G28G29
  -4533465.76646  -3457213.36346  22397696.4924   22397698.6844
      2130.0004       1659.7404
   -649892.61047   -497786.70847  20216105.4694   20216107.7544
        23.2194         18.0934
  -1845819.69347  -1421601.76048  20976444.5704   20976447.5824
       937.0474        730.1664
  -4499291.68646  -3446623.24346  23040988.1024   23040991.5594
      2352.8594       1833.3974
   -645134.989 5   -502702.844 5  23300858.805    23300855.922
       -47.906         -37.330
   2699646.89447   2062819.26447  21185977.5944   21185979.7034
     -1574.4844      -1226.8714
 95  4 11 16 34 15.0000000  0  6G31G18G19G27G28G29
  -4565377.91346  -3482079.95846  22391623.7664   22391626.4144
      2124.8754       1655.7474
   -650196.06247   -498023.16747  20216047.7974   20216049.9774
        17.2194         13.4174
  -1859863.21947  -1432544.76848  20973771.7504   20973774.9384
       935.3754        728.8644
  -4534588.48946  -3474127.24146  23034271.1254   23034274.6644
      2353.3444       1833.7744
   -644361.901 5   -502100.444 5  23301005.914    23301003.000
       -55.187         -43.003
   2723302.89247   2081252.50247  21190479.4304   21190481.5394
     -1579.7034      -1230.9374
 95  4 11 16 34 30.0000000  0  6G31G18G19G27G28G29
  -4597207.71546  -3506882.37946  22385566.9534   22385569.3914
      2119.4064       1651.4854
   -650405.32947   -498186.23947  20216007.9924   20216010.1134
        11.0004          8.5714
  -1873877.88347  -1443465.28948  20971105.3204   20971108.3674
       933.6094        727.4884
  -4569887.30346  -3501632.80346  23027553.7344   23027557.2154
      2353.5164       1833.9084
   -643474.749 5   -501409.156 5  23301174.785    23301172.000
       -62.766         -48.908
   2747041.14947   2099749.82647  21194996.4304   21194998.6914
     -1585.0474      -1235.1014
 95  4 11 16 34 45.0000000  0  6G31G18G19G27G28G29
  -4628958.11946  -3531622.93746  22379525.1724   22379527.2464
      2113.8914       1647.1884
   -650526.52547   -498280.68447  20215984.7424   20215986.8164
         5.0634          3.9454
  -1887873.67247  -1454371.09848  20968441.9924   20968444.9574
       932.5314        726.6484
  -4605193.99346  -3529144.49946  23020835.6414   23020838.8524
      2354.0634       1834.3344
   -642479.422 5   -500633.574 5  23301364.121    23301361.555
       -70.047         -54.582
   2770853.15047   2118304.62547  21199527.9844   21199530.1644
     -1589.9844      -1238.9494
 95  4 11 16 35  0.0000000  0  6G31G18G19G27G28G29
  -4660626.37446  -3556299.48346  22373498.2194   22373500.7624
      2108.6564       1643.1094
   -650557.78747   -498305.04547  20215979.0164   20215981.1254
        -0.7814         -0.6094
  -1901856.06647  -1465266.47248  20965781.2974   20965784.2854
       931.9064        726.1614
  -4640511.35646  -3556664.52546  23014114.9064   23014118.3284
      2355.0164       1835.0774
   -641374.467 5   -499772.574 5  23301574.383    23301571.852
       -77.203         -60.158
   2794740.16547   2136917.87947  21204073.4774   21204075.4804
     -1594.8594      -1242.7484
 95  4 11 16 35 15.0000000  0  6G31G18G19G27G28G29
  -4692214.88046  -3580913.88946  22367487.1484   22367490.2894
      2103.2034       1638.8604
   -650498.95847   -498259.20747  20215990.3914   20215992.6054
        -7.0004         -5.4554
  -1915826.84147  -1476152.79048  20963122.7584   20963125.7704
       930.9384        725.4064
  -4675840.61846  -3584193.81246  23007392.1334   23007395.3094
      2355.5314       1835.4794
   -640160.372 5   -498826.531 5  23301804.895    23301802.664
       -84.594         -65.917
   2818702.27147   2155589.63347  21208633.1484   21208635.0824
     -1600.0624      -1246.8024
 95  4 11 16 35 30.0000000  0  6G31G18G19G27G28G29
  -4723723.62846  -3605466.14646  22361491.1414   22361494.0824
      2097.8754       1634.7084
   -650348.78547   -498142.19447  20216018.8444   20216021.0594
       -13.1254        -10.2274
  -1929784.36947  -1487028.78648  20960466.4614   20960469.5664
       929.9694        724.6514
  -4711178.16346  -3611729.55146  23000667.7894   23000671.1414
      2356.0634       1835.8934
   -638837.555 5   -497795.764 5  23302056.641    23302054.055
       -91.891         -71.603
   2842740.88447   2174321.00647  21213207.6954   21213209.8524
     -1605.1874      -1250.7954
 95  4 11 16 35 45.0000000  0  6G31G18G19G27G28G29
  -4755149.84346  -3629954.10146  22355510.6564   22355513.5394
      2092.3444       1630.3984
   -650105.43147   -497952.56947  20216065.2894   20216067.4104
       -19.3754        -15.0974
  -1943726.74747  -1497892.97848  20957813.4534   20957816.6054
       929.0944        723.9694
  -4746523.41046  -3639271.29746  22993941.7194   22993944.9064
      2356.6414       1836.3434
   -637404.490 5   -496679.094 5  23302329.422    23302326.734
       -99.172         -77.277
   2866858.09247   2193113.63047  21217797.0554   21217799.0234
     -1610.3594      -1254.8254
 95  4 11 16 36  0.0000000  0  6G31G18G19G27G28G29
  -4786493.44946  -3654377.67946  22349546.6174   22349549.3244
      2086.8594       1626.1244
   -649766.23347   -497688.26147  20216129.7274   20216131.7544
       -25.8914        -20.1754
  -1957658.22747  -1508748.67848  20955162.3754   20955165.5394
       928.4694        723.4824
  -4781877.56946  -3666819.98546  22987213.8134   22987216.8244
      2357.2504       1836.8184
   -635860.992 5   -495476.376 5  23302623.148    23302620.531
      -106.625         -83.084
   2891054.07047   2211967.63147  21222401.2194   21222403.4344
     -1615.7344      -1259.0144
 95  4 11 16 36 15.0000000  0  6G31G18G19G27G28G29
  -4817755.48046  -3678737.68846  22343597.7114   22343600.3014
      2081.4694       1621.9244
   -649328.67047   -497347.30747  20216212.7274   20216214.7194
       -32.4694        -25.3004
  -1971581.45947  -1519597.95148  20952513.0634   20952516.1804
       927.9384        723.0684
  -4817241.55346  -3694376.33046  22980484.4924   22980487.5634
      2357.9844       1837.3904
   -634206.130 5   -494186.881 5  23302937.922    23302935.711
      -114.000         -88.831
   2915330.41447   2230884.24647  21227020.8594   21227023.1684
     -1621.0784      -1263.1784
 95  4 11 16 36 30.0000000  0  6G31G18G19G27G28G29
  -4848939.04946  -3703036.55746  22337663.5314   22337666.2974
      2076.2344       1617.8454
   -648792.81047   -496929.75647  20216315.0164   20216317.3484
       -39.1254        -30.4874
  -1985499.08547  -1530442.85848  20949864.7034   20949867.7624
       927.6094        722.8134
  -4852616.55946  -3721941.26646  22973752.8594   22973755.9184
      2358.5164       1837.8044
   -632441.500 5   -492811.850 5  23303273.477    23303271.609
      -121.422         -94.614
   2939684.74647   2249861.63247  21231655.4534   21231657.7384
     -1626.2814      -1267.2324
 95  4 11 16 36 45.0000000  0  6G31G18G19G27G28G29
  -4880043.05446  -3727273.43146  22331744.3594   22331747.3594
      2070.9844       1613.7544
   -648154.52647   -496432.39647  20216436.3754   20216438.9184
       -45.9534        -35.8084
  -1999410.27247  -1541282.74348  20947217.4454   20947220.4104
       927.2194        722.5084
  -4887996.41446  -3749509.97646  22967020.0474   22967023.1644
      2358.8444       1838.0604
   -630563.897 5   -491348.788 5  23303630.789    23303628.734
      -128.922        -100.459
   2964118.81547   2268901.15447  21236305.0474   21236307.3444
     -1631.5784      -1271.3604
 95  4 11 16 37  0.0000000  0  6G31G18G19G27G28G29
  -4911067.59146  -3751448.37746  22325840.2894   22325842.8554
      2065.5784       1609.5414
   -647412.51247   -495854.20547  20216577.6174   20216580.1954
       -53.0314        -41.3234
  -2013313.57347  -1552116.48648  20944571.8834   20944574.9184
       926.4384        721.8994
  -4923380.68346  -3777082.11946  22960286.9304   22960289.8714
      2359.0314       1838.2064
   -628572.509 5   -489797.068 5  23304009.938    23304007.805
      -136.625        -106.461
   2988634.36147   2288004.16747  21240970.2274   21240972.7114
     -1637.2034      -1275.7434
 95  4 11 16 37 15.0000000  0  6G31G18G19G27G28G29
  -4942016.64646  -3775564.51146  22319951.2894   22319953.7504
      2060.8754       1605.8774
   -646570.54847   -495198.13247  20216738.0004   20216740.4024
       -59.2974        -46.2054
  -2027207.07447  -1562942.58948  20941927.7504   20941930.7504
       925.9064        721.4854
  -4958771.81546  -3804659.61246  22953552.3524   22953555.4224
      2359.6884       1838.7184
   -626470.461 5   -488159.115 5  23304410.328    23304407.922
      -143.719        -111.989
   3013228.59047   2307168.48847  21245650.2894   21245652.8914
     -1642.1254      -1279.5784
 95  4 11 16 37 30.0000000  0  7G31G 2G18G19G27G28G29
  -4972890.09346  -3799621.73746  22314076.1954   22314078.8444
      2055.5314       1601.7134
    -34945.66854                  24399920.0314
      3176.4844
   -645630.66747   -494465.76147  20216916.8204   20216919.0474
       -66.0784        -51.4894
  -2041087.32647  -1573758.37348  20939286.6644   20939289.6764
       924.7194        720.5604
  -4994169.03946  -3832241.85946  22946816.1884   22946819.1294
      2359.8754       1838.8644
   -624258.810 5   -486435.754 5  23304831.434    23304829.195
      -151.234        -117.845
   3037899.80947   2326392.80447  21250345.1334   21250347.6764
     -1647.4224      -1283.7054
 95  4 11 16 37 45.0000000  0  7G31G 2G18G19G27G28G29
  -5003684.76346  -3823617.57146  22308216.2504   22308218.8054
      2050.2034       1597.5614
    -82583.51244                  24390855.9144
      3175.0164
   -644591.19147   -493655.78347  20217114.5084   20217116.6764
       -72.6564        -56.6154
  -2054951.67947  -1584561.76248  20936648.2424   20936651.3244
       923.6254        719.7084
  -5029571.87846  -3859828.47946  22940079.2504   22940082.4844
      2360.3134       1839.2054
   -621936.353 5   -484626.056 5  23305273.242    23305271.172
      -158.625        -123.604
   3062647.99247   2345677.09447  21255054.6884   21255057.0784
     -1652.5314      -1287.6874
 95  4 11 16 38  0.0000000  0  7G31G 2G18G19G27G28G29
  -5034395.03546  -3847547.63746  22302372.2194   22302374.7154
      2044.5784       1593.1784
   -130195.47145                  24381795.6254
      3173.2814
   -643449.16147   -492765.89547  20217331.8754   20217334.2664
       -79.5624        -61.9974
  -2068794.44047  -1595348.32748  20934014.0944   20934016.9884
       922.1414        718.5514
  -5064976.39346  -3887416.40646  22933341.5944   22933344.6764
      2360.3594       1839.2414
   -619498.817 5   -482726.681 5  23305736.918    23305734.891
      -166.312        -129.594
   3087477.09747   2365024.44047  21259779.5634   21259781.8014
     -1657.9064      -1291.8754
 95  4 11 16 38 15.0000000  0  7G31G 2G18G19G27G28G29
  -5065023.05346  -3871413.61346  22296543.9694   22296546.5474
      2039.0784       1588.8924
   -177781.62645    -22243.77253  24372740.1024   24372745.3164
      3171.4224       2471.2384
   -642203.95547   -491795.60547  20217568.9384   20217571.2814
       -86.5474        -67.4394
  -2082616.22947  -1606118.54948  20931383.7664   20931386.6844
       920.5634        717.3214
  -5100383.21646  -3915006.13746  22926603.9614   22926606.9614
      2360.4534       1839.3144
   -616947.229 5   -480738.445 5  23306222.484    23306220.234
      -173.969        -135.560
   3112384.82747   2384433.05247  21264519.0394   21264521.4534
     -1663.2344      -1296.0274
 95  4 11 16 38 30.0000000  0  7G31G 2G18G19G27G28G29
  -5095566.26846  -3895213.51346  22290732.3594   22290734.4574
      2033.4694       1584.5214
   -225338.43945    -59301.03445  24363689.9144   24363694.9774
      3169.5784       2469.8014
   -640851.93747   -490742.08747  20217825.9924   20217828.4654
       -93.6414        -72.9674
  -2096411.07147  -1616867.77548  20928758.7034   20928761.6214
       918.8134        715.9584
  -5135789.26846  -3942595.25546  22919866.6564   22919869.8554
      2360.4534       1839.3144
   -614279.031 5   -478659.346 5  23306730.398    23306727.953
      -181.687        -141.575
   3137373.70047   2403904.89347  21269274.0234   21269276.4024
     -1668.5004      -1300.1304
 95  4 11 16 38 45.0000000  0  7G31G 2G18G19G27G28G29
  -5126022.63646  -3918945.73846  22284936.1804   22284938.7704
      2027.2974       1579.7124
   -272867.01045    -96336.26044  24354645.6564   24354650.1914
      3167.5474       2468.2184
   -639392.55647   -489604.91147  20218103.6644   20218106.0784
      -101.0474        -78.7384
  -2110177.14747  -1627594.58748  20926139.0554   20926142.0084
       916.5314        714.1804
  -5171193.44546  -3970182.92246  22913129.3284   22913133.0084
      2360.0314       1838.9854
   -611493.060 5   -476488.466 5  23307260.922    23307258.148
      -189.859        -147.942
   3162443.57347   2423439.85047  21274044.9774   21274047.4264
     -1674.2814      -1304.6354
 95  4 11 16 39  0.0000000  0  7G31G 2G18G19G27G28G29
  -5156387.58546  -3942606.73146  22279158.3914   22279160.4654
      2021.2344       1574.9884
   -320368.72045   -133350.54645  24345606.1564   24345611.4534
      3165.9224       2466.9524
   -637823.42947   -488382.21947  20218402.3134   20218404.7274
      -108.2344        -84.3384
  -2123908.97647  -1638294.71148  20923526.1954   20923529.2544
       914.2974        712.4394
  -5206594.41546  -3997768.07546  22906392.7114   22906396.0744
      2360.0164       1838.9734
   -608586.480 5   -474223.610 5  23307814.121    23307811.344
      -197.766        -154.103
   3187600.34347   2443042.51747  21278832.4534   21278834.7504
     -1680.0474      -1309.1274
 95  4 11 16 39 15.0000000  0  7G31G 2G18G19G27G28G29
  -5186661.26946  -3966196.59646  22273397.1174   22273399.6844
      2015.3134       1570.3734
   -367847.70345   -170347.16245  24336570.5784   24336575.7464
      3164.7344       2466.0274
   -636147.62247   -487076.39647  20218721.2194   20218723.7034
      -115.0784        -89.6714
  -2137607.93647  -1648969.22148  20920919.0554   20920922.3244
       912.3594        710.9294
  -5241996.56346  -4025354.15146  22899656.0784   22899659.5474
      2360.3754       1839.2534
   -605562.316 5   -471867.130 5  23308389.617    23308386.633
      -205.328        -159.996
   3212842.17947   2462711.47247  21283635.5944   21283637.8204
     -1685.4064      -1313.3044
 95  4 11 16 39 30.0000000  0  7G31G 2G18G19G27G28G29
  -5216847.58246  -3989718.38346  22267653.0234   22267655.5314
      2009.3594       1565.7354
   -415310.37645   -207331.01745  24327538.3444   24327543.7584
      3163.6884       2465.2114
   -634369.76747   -485691.05647  20219059.4844   20219061.9694
      -122.0004        -95.0654
  -2151279.44847  -1659622.34648  20918317.4454   20918320.7624
       910.5164        709.4934
  -5277404.66646  -4052944.87446  22892917.9774   22892921.3754
      2360.7034       1839.5094
   -602425.176 5   -469422.623 5  23308986.746    23308983.586
      -212.984        -165.962
   3238164.27447   2482442.96547  21288454.1254   21288456.4344
     -1690.9224      -1317.6014
 95  4 11 16 39 45.0000000  0  7G31G 2G18G19G27G28G29
  -5246943.08246  -4013169.41746  22261925.7274   22261928.1994
      2003.2974       1561.0114
   -462759.67345   -244304.47945  24318509.3984   24318515.0124
      3162.7974       2464.5174
   -632487.82447   -484224.61247  20219417.7664   20219420.1214
      -128.9374       -100.4714
  -2164924.46647  -1670254.82948  20915721.1024   20915724.3244
       908.8284        708.1784
  -5312818.03246  -4080539.70546  22886179.0864   22886182.4844
      2361.0314       1839.7654
   -599174.154 5   -466889.375 5  23309605.371    23309602.352
      -220.562        -171.867
   3263570.29147   2502239.85047  21293288.8204   21293291.2934
     -1696.5784      -1322.0094
 95  4 11 16 40  0.0000000  0  7G31G 2G18G19G27G28G29
  -5276944.92946  -4036547.46946  22256216.8674   22256219.0944
      1997.0784       1556.1654
   -510192.93945   -281265.45145  24309483.0004   24309488.3444
      3161.7194       2463.6774
   -630500.98547   -482676.42947  20219795.6724   20219798.2974
      -135.8284       -105.8404
  -2178544.74147  -1680868.02748  20913129.1254   20913132.4304
       907.3444        707.0214
  -5348235.25546  -4108137.53046  22879439.1724   22879442.9344
      2361.4384       1840.0814
   -595807.493 5   -464266.019 5  23310245.832    23310243.203
      -228.234        -177.845
   3289062.70247   2522104.05547  21298139.7664   21298142.1214
     -1702.3124      -1326.4774
 95  4 11 16 40 15.0000000  0  7G31G 2G18G19G27G28G29
  -5306859.51746  -4059857.53246  22250524.1954   22250526.7624
      1991.2974       1551.6604
   -557614.41545   -318217.22344  24300459.0164   24300464.5004
      3160.8754       2463.0194
   -628415.03947   -481051.02147  20220192.7274   20220195.2344
      -142.4844       -111.0274
  -2192148.02047  -1691467.98348  20910540.7974   20910544.1254
       906.2814        706.1934
  -5383664.13146  -4135744.43046  22872697.7664   22872701.2584
      2362.2194       1840.6904
   -592330.956 5   -461557.040 5  23310907.555    23310904.867
      -235.562        -183.555
   3314635.55247   2542030.94347  21303005.9614   21303008.4224
     -1707.6254      -1330.6174
 95  4 11 16 40 30.0000000  0  7G31G 2G18G19G27G28G29
  -5336683.04846  -4083096.64146  22244848.6954   22244851.5784
      1985.1884       1546.8994
   -605017.95945   -355155.04945  24291438.1484   24291443.5984
      3159.5944       2462.0214
   -626226.17347   -479345.41747  20220609.0864   20220611.6884
      -149.2814       -116.3234
  -2205731.86247  -1702052.79448  20907955.4774   20907958.8284
       904.8914        705.1104
  -5419099.98046  -4163356.77246  22865954.3134   22865957.8054
      2362.5784       1840.9704
   -588739.775 5   -458758.729 5  23311591.176    23311588.172
      -243.234        -189.533
   3340293.21547   2562023.92247  21307888.5394   21307890.8484
     -1713.3914      -1335.1104
 95  4 11 16 40 45.0000000  0  7G31G 2G18G19G27G28G29
  -5366410.15146  -4106260.60246  22239192.2504   22239195.0394
      1978.5784       1541.7494
   -652401.59945   -392077.33645  24282420.9844   24282426.0704
      3158.3284       2461.0354
   -623934.65847   -477559.82547  20221045.1174   20221047.6484
      -156.1254       -121.6564
  -2219293.90847  -1712620.61848  20905374.7344   20905378.1684
       903.4844        704.0144
  -5454539.12746  -4190971.67446  22859210.5084   22859214.1054
      2362.7344       1841.0924
   -585031.282 5   -455869.009 5  23312296.953    23312293.570
      -251.109        -195.670
   3366038.23547   2582084.96947  21312787.8054   21312790.2074
     -1719.2034      -1339.6394
 95  4 11 16 41  0.0000000  0  7G31G 2G18G19G27G28G29
  -5396041.27846  -4129349.78646  22233553.7664   22233556.2734
      1972.3284       1536.8794
   -699768.42845   -428986.52445  24273408.2034   24273413.8164
      3157.3754       2460.2924
   -621545.12547   -475697.85547  20221499.8754   20221502.3134
      -162.3914       -126.5384
  -2232837.79847  -1723174.29448  20902797.5314   20902800.7664
       902.5314        703.2714
  -5489982.90946  -4218590.18746  22852465.8054   22852469.1094
      2363.2344       1841.4814
   -581208.235 5   -452890.034 5  23313024.559    23313020.969
      -258.484        -201.416
   3391868.12347   2602212.14247  21317703.1564   21317705.5824
     -1724.6564      -1343.8884
 95  4 11 16 41 15.0000000  0  7G31G 2G18G19G27G28G29
  -5425573.36646  -4152361.79446  22227933.9694   22227936.1374
      1965.3594       1531.4494
   -747114.45145   -465879.51545  24264398.3674   24264403.8874
      3155.5634       2458.8804
   -619054.85847   -473757.39347  20221973.7894   20221976.0984
      -169.4534       -132.0414
  -2246362.95247  -1733713.37648  20900223.9774   20900227.0124
       901.0314        702.1024
  -5525428.80846  -4246210.36046  22845720.7974   22845724.0314
      2363.0164       1841.3114
   -577269.376 5   -449820.804 5  23313774.113    23313770.672
      -266.516        -207.675
   3417782.94947   2622405.50547  21322634.5234   21322637.0664
     -1730.4534      -1348.4054
 95  4 11 16 41 30.0000000  0  7G31G 2G18G19G27G28G29
  -5455005.08346  -4175295.60746  22222333.0864   22222335.7114
      1958.8754       1526.3964
   -794435.19145   -502752.80445  24255393.4614   24255399.4844
      3153.9694       2457.6384
   -616462.59847   -471737.45547  20222467.1334   20222469.3954
      -176.0784       -137.2044
  -2259869.15347  -1744237.68348  20897653.8134   20897656.9184
       899.8754        701.2014
  -5560873.52446  -4273829.60346  22838975.6954   22838978.8714
      2363.0004       1841.2994
   -573213.283 5   -446660.233 5  23314545.672    23314542.430
      -274.234        -213.689
   3443781.23547   2642663.90047  21327581.9924   21327584.4534
     -1735.9534      -1352.6914
 95  4 11 16 41 45.0000000  0  7G31G 2G18G19G27G28G29
  -5484337.91546  -4198152.35446  22216751.5314   22216753.8524
      1952.1414       1521.1494
   -841730.42845   -539606.20745  24246393.4384   24246398.4064
      3152.0784       2456.1654
   -613770.29847   -469639.56247  20222979.4304   20222981.8674
      -182.8444       -142.4764
  -2273356.54747  -1754747.33748  20895087.4144   20895090.3674
       898.4694        700.1064
  -5596316.22546  -4301447.28346  22832231.1954   22832234.1134
      2362.7034       1841.0674
   -569040.045 5   -443408.381 5  23315339.836    23315336.539
      -282.172        -219.874
   3469864.17547   2662988.25747  21332545.2584   21332547.6604
     -1741.6874      -1357.1594
 95  4 11 16 42  0.0000000  0  7G31G 2G18G19G27G28G29
  -5513572.75746  -4220932.75246  22211188.1954   22211190.2934
      1945.8754       1516.2664
   -888997.49945   -576437.68045  24237399.0704   24237403.3244
      3150.2344       2454.7284
   -610978.49947   -467464.14147  20223510.8134   20223513.2154
      -189.3914       -147.5774
  -2286826.05947  -1765243.05748  20892524.0634   20892527.1214
       897.4844        699.3384
  -5631755.81846  -4329062.53646  22825487.3834   22825490.5474
      2362.6414       1841.0194
   -564749.476 5   -440065.101 5  23316156.453    23316153.273
      -289.875        -225.877
   3496028.91547   2683376.35347  21337524.4924   21337526.7194
     -1746.8284      -1361.1654
 95  4 11 16 42 15.0000000  0  7G31G 2G18G19G27G28G29
  -5542715.43846  -4243641.32946  22205642.6414   22205645.1024
      1939.8284       1511.5544
   -936237.57645   -613248.11245  24228409.0004   24228413.3954
      3148.4384       2453.3284
   -608088.22247   -465211.98247  20224060.4144   20224062.7934
      -195.9534       -152.6914
  -2300279.97747  -1775726.62748  20889963.9144   20889966.9264
       896.3444        698.4504
  -5667195.55146  -4356677.90246  22818743.1724   22818745.9844
      2362.6884       1841.0554
   -560343.944 5   -436632.234 5  23316995.168    23316991.531
      -297.484        -231.806
   3522268.14047   2703822.49547  21342517.6804   21342519.8714
     -1751.6724      -1364.9394
 95  4 11 16 42 30.0000000  0  7G31G 2G18G19G27G28G29
  -5571767.27746  -4266279.12846  22200113.8444   22200116.5164
      1933.7504       1506.8184
   -983449.56445   -650036.68145  24219425.3284   24219430.2854
      3146.5314       2451.8434
   -605100.12647   -462883.60047  20224629.3364   20224631.5394
      -202.4224       -157.7314
  -2313714.98847  -1786195.46648  20887407.0704   20887410.0704
       895.0164        697.4154
  -5702635.41146  -4384293.36146  22811999.4144   22812002.4264
      2362.6254       1841.0064
   -555823.949 5   -433110.174 5  23317855.648    23317851.352
      -305.109        -237.748
   3548578.96147   2724324.42547  21347524.5084   21347526.7464
     -1756.4374      -1368.6534
 95  4 11 16 42 45.0000000  0  7G31G 2G18G19G27G28G29
  -5600723.66046  -4288842.54346  22194603.8834   22194606.8594
      1927.1884       1501.7054
  -1030630.51845   -686801.04344  24210446.9144   24210452.8554
      3144.3914       2450.1754
   -602013.24947   -460478.24647  20225216.8914   20225219.1174
      -209.0474       -162.8944
  -2327126.52247  -1796646.00948  20884855.2584   20884858.0124
       893.3284        696.1004
  -5738071.61846  -4411905.98446  22805255.8444   22805259.1134
      2362.3754       1840.8124
   -551187.456 5   -429497.339 5  23318737.914    23318733.633
      -312.937        -243.847
   3574965.00547   2744884.96747  21352545.5864   21352547.6134
     -1761.5474      -1372.6344
 95  4 11 16 43  0.0000000  0  7G31G 2G18G19G27G28G29
  -5629584.47346  -4311331.48646  22189112.0634   22189115.1094
      1920.9384       1496.8344
  -1077782.51445   -723542.83145  24201473.8054   24201478.5744
      3142.4384       2448.6534
   -598829.68647   -457997.55347  20225822.6644   20225824.6334
      -215.4694       -167.8984
  -2340516.09547  -1807079.43748  20882307.0004   20882309.9534
       891.9224        695.0044
  -5773507.38846  -4439518.25546  22798512.5864   22798516.1844
      2362.3444       1840.7874
   -546436.703 5   -425795.480 5  23319641.930    23319637.883
      -320.531        -249.765
   3601423.59647   2765502.04047  21357580.5084   21357582.6524
     -1766.3594      -1376.3844
 95  4 11 16 43 15.0000000  0  7G31G 2G18G19G27G28G29
  -5658350.19346  -4333746.34246  22183637.8054   22183640.7114
      1914.6254       1491.9164
  -1124900.63945   -760258.25345  24192507.6024   24192513.1334
      3140.0784       2446.8144
   -595547.32647   -455439.87747  20226447.3754   20226449.5204
      -222.1724       -173.1214
  -2353881.64847  -1817494.14948  20879763.7504   20879766.8674
       890.2344        693.6894
  -5808940.14246  -4467128.18046  22791769.8364   22791773.2814
      2362.1564       1840.6414
   -541569.283 5   -422002.707 5  23320568.195    23320564.414
      -328.375        -255.877
   3627957.69347   2786177.94647  21362630.1724   21362632.2934
     -1771.4374      -1380.3414
 95  4 11 16 43 30.0000000  0  7G31G 2G18G19G27G28G29
  -5687022.58246  -4356088.47046  22178181.4384   22178184.5434
      1908.4844       1487.1314
  -1171983.86745   -796946.46644  24183547.5704   24183553.6524
      3137.8444       2445.0734
   -592163.33947   -452803.01447  20227091.2814   20227093.5554
      -228.8444       -178.3204
  -2367221.80047  -1827889.07348  20877225.2974   20877228.4264
       888.5474        692.3744
  -5844371.93246  -4494737.35446  22785027.3524   22785030.7504
      2362.2194       1840.6904
   -536584.720 5   -418118.648 5  23321516.977    23321513.125
      -336.125        -261.916
   3654568.04947   2806913.27947  21367694.0004   21367696.1094
     -1776.5004      -1384.2864
 95  4 11 16 43 45.0000000  0  7G31G 2G18G19G27G28G29
  -5715601.98646  -4378358.14146  22172742.8674   22172745.8794
      1902.2194       1482.2484
  -1219032.58545   -833607.79043  24174594.6414   24174600.5704
      3135.5164       2443.2594
   -588678.65247   -450087.67747  20227754.4844   20227756.8054
      -235.7034       -183.6654
  -2380533.43147  -1838261.77048  20874692.1174   20874695.2704
       886.5314        690.8044
  -5879803.75546  -4522346.56246  22778284.7974   22778288.6414
      2362.2034       1840.6784
   -531481.595 5   -414142.206 5  23322488.121    23322484.297
      -344.141        -268.162
   3681257.93847   2827710.58347  21372772.5704   21372774.7624
     -1781.9534      -1388.5354
 95  4 11 16 44  0.0000000  0  7G31G 2G18G19G27G28G29
  -5744089.85046  -4400556.48346  22167321.3914   22167324.4734
      1896.1724       1477.5374
  -1266050.64145   -870245.21244  24165647.4384   24165653.0274
      3133.5784       2441.7494
   -585092.59047   -447293.34847  20228436.8204   20228439.0944
      -242.4534       -188.9254
  -2393819.24747  -1848614.35148  20872163.7114   20872166.9344
       884.9224        689.5504
  -5915240.75846  -4549959.80246  22771542.0474   22771545.6214
      2362.7194       1841.0804
   -526262.369 5   -410075.299 5  23323481.496    23323477.578
      -351.766        -274.103
   3708023.86247   2848567.13247  21377865.9454   21377868.1134
     -1786.8124      -1392.3214
 95  4 11 16 44 15.0000000  0  7G31G 2G18G19G27G28G29
  -5772482.57846  -4422680.69146  22161918.4304   22161922.1214
      1889.7504       1472.5324
  -1313036.56345   -906857.60545  24156705.8364   24156710.9574
      3131.4224       2440.0694
   -581400.67447   -444416.53347  20229139.3834   20229141.8204
      -249.5784       -194.4764
  -2407076.22747  -1858944.46448  20869641.1884   20869644.2234
       882.8594        687.9424
  -5950681.94646  -4577576.29746  22764797.7344   22764801.2154
      2362.9694       1841.2744
   -520925.215 5   -405916.495 5  23324497.191    23324493.336
      -359.641        -280.239
   3734867.99047   2869484.62247  21382974.4924   21382976.7194
     -1792.2504      -1396.5584
 95  4 11 16 44 30.0000000  0  7G31G 2G18G19G27G28G29
  -5800786.34046  -4444735.58146  22156532.7504   22156536.1374
      1883.9064       1467.9794
  -1359997.46045   -943450.51044  24147770.0394   24147776.0044
      3129.9844       2438.9494
   -577610.70847   -441463.31847  20229860.5004   20229862.8794
      -255.8444       -199.3594
  -2420308.05047  -1869254.97248  20867123.2034   20867126.2384
       881.2974        686.7254
  -5986135.38846  -4605202.35046  22758050.9454   22758054.1804
      2364.0474       1842.1144
   -515477.656 5   -401671.664 5  23325533.664    23325530.297
      -366.781        -285.804
   3761788.01347   2890461.24847  21388097.1024   21388099.3284
     -1797.2664      -1400.4674
 95  4 11 16 44 45.0000000  0  7G31G 2G18G19G27G28G29
  -5828994.35846  -4466715.86246  22151165.2504   22151168.9774
      1877.1414       1462.7074
  -1406931.07045   -980022.10344  24138838.3914   24138844.3324
      3127.9064       2437.3304
   -573718.88847   -438430.73747  20230601.2034   20230603.7114
      -263.1094       -205.0204
  -2433511.22147  -1879543.15648  20864610.8594   20864613.8954
       879.1414        685.0454
  -6021596.60446  -4632834.46046  22751303.0554   22751306.4654
      2364.1414       1842.1884
   -509916.500 5   -397338.314 5  23326591.453    23326588.352
      -374.719        -291.989
   3788792.44647   2911503.65047  21393235.7894   21393237.9344
     -1803.3914      -1405.2394
 95  4 11 16 45  0.0000000  0  7G31G 2G18G19G27G28G29
  -5857099.28746  -4488615.80946  22145817.2274   22145820.6484
      1870.1884       1457.2894
  -1453833.94145  -1016569.79644  24129913.3364   24129919.0904
      3125.7664       2435.6624
   -569715.25147   -435311.02147  20231362.9614   20231365.3524
      -270.8284       -211.0354
  -2446682.87947  -1889806.78448  20862104.4774   20862107.4654
       877.0004        683.3774
  -6057059.23446  -4660467.66346  22744554.8134   22744557.7774
      2364.0944       1842.1514
   -504234.312 5   -392910.656 5  23327672.590    23327669.383
      -382.953        -298.405
   3815890.84447   2932619.27347  21398392.5164   21398394.7894
     -1809.7814      -1410.2194
 95  4 11 16 45 15.0000000  0  7G31G 2G18G19G27G28G29
  -5885109.95946  -4510442.31946  22140486.8594   22140489.9064
      1864.3594       1452.7484
  -1500714.38645  -1053099.98344  24120991.9614   24120997.9494
      3124.7194       2434.8464
   -565602.24647   -432106.08947  20232145.8594   20232148.1804
      -277.8914       -216.5384
  -2459831.40047  -1900052.38148  20859602.1094   20859605.0634
       875.7504        682.4034
  -6092528.84246  -4688106.31546  22737805.0474   22737808.1884
      2364.9224       1842.7964
   -498436.676 5   -388393.032 5  23328775.918    23328772.266
      -390.328        -304.152
   3843076.46547   2953802.86347  21403565.7894   21403567.9574
     -1815.2814      -1414.5054
 95  4 11 16 45 30.0000000  0  7G31G 2G18G19G27G28G29
  -5913025.50846  -4532194.70646  22135174.4844   22135177.5204
      1857.8444       1447.6704
  -1547572.23245  -1089612.59545  24112075.8134   24112081.6134
      3123.2194       2433.6774
   -561373.62347   -428811.06247  20232950.5164   20232952.8244
      -285.7664       -222.6754
  -2472952.42147  -1910276.55248  20857105.3834   20857108.2894
       873.8444        680.9174
  -6128004.11646  -4715749.37146  22731053.8984   22731057.1214
      2365.2974       1843.0884
   -492521.175 5   -383783.566 5  23329901.578    23329898.086
      -398.219        -310.300
   3870352.37647   2975056.80347  21408756.4534   21408758.5044
     -1821.3594      -1419.2414
 95  4 11 16 45 45.0000000  0  7G31G 2G18G19G27G28G29
  -5940851.96646  -4553877.67246  22129879.3054   22129882.9264
      1852.1884       1443.2634
  -1594418.10245  -1126115.83544  24103161.2664   24103166.6914
      3122.6884       2433.2634
   -557037.25747   -425432.08247  20233775.7424   20233778.0634
      -292.5314       -227.9464
  -2486054.36647  -1920485.85748  20854612.2664   20854615.2544
       872.9224        680.1994
  -6163494.14946  -4743403.92646  22724300.3524   22724303.5164
      2366.5004       1844.0264
   -486496.218 5   -379088.806 5  23331047.941    23331044.609
      -405.250        -315.779
   3897710.40047   2996374.73247  21413962.3444   21413964.3484
     -1826.5624      -1423.2954
 95  4 11 16 46  0.0000000  0  7G31G 2G18G19G27G28G29
  -5968587.75346  -4575489.98546  22124601.0554   22124604.8874
      1846.0164       1438.4544
  -1641251.47145  -1162609.38045  24094249.4224   24094255.2704
      3121.8444       2432.6064
   -552593.51947   -421969.43147  20234621.4064   20234623.7624
      -299.8594       -233.6574
  -2499137.72347  -1930680.68548  20852122.5474   20852125.5944
       871.7034        679.2494
  -6198996.48946  -4771068.08246  22717544.6644   22717548.0274
      2367.2344       1844.5984
   -480361.012 5   -374308.143 5  23332215.371    23332212.234
      -412.672        -321.562
   3925151.39447   3017757.31247  21419184.1334   21419186.2544
     -1832.1254      -1427.6304
 95  4 11 16 46 15.0000000  0  7G31G 2G18G19G27G28G29
  -5996233.02346  -4597031.75846  22119340.3914   22119344.3754
      1839.9224       1433.7054
  -1688073.09845  -1199093.72345  24085338.6644   24085344.7344
      3120.9384       2431.8994
   -548042.65847   -418423.31047  20235487.4614   20235489.7464
      -307.0164       -239.2334
  -2512205.05647  -1940863.02448  20849635.9384   20849638.9964
       870.4844        678.3004
  -6234510.30746  -4798741.18046  22710786.9384   22710790.3484
      2367.7504       1845.0004
   -474117.266 5   -369442.908 5  23333403.434    23333400.281
      -419.969        -327.248
   3952673.53147   3039203.12147  21424421.3444   21424423.4654
     -1837.6094      -1431.9034
 95  4 11 16 46 30.0000000  0  7G31G 2G18G19G27G28G29
  -6023785.41946  -4618501.16846  22114097.5234   22114101.6724
      1833.5784       1428.7624
  -1734879.02345  -1235565.88644  24076432.0004   24076437.9774
      3119.6724       2430.9134
   -543383.02547   -414792.43047  20236374.1644   20236376.3674
      -314.3914       -244.9804
  -2525252.81647  -1951030.10748  20847153.0084   20847156.1254
       869.0784        677.2044
  -6270030.21846  -4826419.02446  22704027.6414   22704030.8404
      2368.0634       1845.2444
   -467761.938 5   -364490.719 5  23334612.836    23334609.641
      -427.547        -333.153
   3980280.76047   3060715.23047  21429674.8984   21429677.3134
     -1843.4224      -1436.4334
 95  4 11 16 46 45.0000000  0  7G31G 2G18G19G27G28G29
  -6051242.84746  -4639896.57346  22108872.5704   22108876.6374
      1827.3284       1423.8924
  -1781667.65144  -1272024.53145  24067527.9844   24067533.8324
      3118.7034       2430.1584
   -538613.49247   -411075.91447  20237281.6724   20237283.8634
      -321.6414       -250.6294
  -2538282.22447  -1961182.89348  20844673.6254   20844676.5434
       868.1414        676.4734
  -6305555.18046  -4854100.80546  22697267.3834   22697270.6994
      2368.4844       1845.5724
   -461294.072 5   -359450.839 5  23335843.695    23335840.602
      -434.937        -338.912
   4007970.89947   3082291.94647  21434943.9454   21434946.4774
     -1848.6414      -1440.4994
 95  4 11 16 47  0.0000000  0  7G31G 2G18G19G27G28G29
  -6078606.17346  -4661218.65446  22103665.6094   22103669.5004
      1821.1254       1419.0584
  -1828440.69245  -1308471.03245  24058628.2814   24058634.1884
      3117.5944       2429.2944
   -533734.02047   -407273.73547  20238210.2194   20238212.3404
      -328.9064       -256.2914
  -2551298.45347  -1971325.40548  20842196.5554   20842199.5434
       867.3444        675.8524
  -6341085.40346  -4881786.67646  22690505.8754   22690509.2854
      2368.8444       1845.8524
   -454714.506 5   -354323.918 5  23337095.699    23337092.508
      -442.344        -344.683
   4035738.55347   3103929.06547  21440228.0864   21440230.6884
     -1853.7194      -1444.4564
 95  4 11 16 47 15.0000000  0  7G31G 2G18G19G27G28G29
  -6105876.71446  -4682468.43646  22098476.2664   22098479.8284
      1814.9694       1414.2614
  -1875194.20245  -1344902.34645  24049731.1724   24049736.4454
      3116.1564       2428.1744
   -528747.26347   -403387.95047  20239159.3284   20239161.5314
      -335.9844       -261.8064
  -2564301.50947  -1981457.65748  20839722.3204   20839725.4384
       866.3134        675.0494
  -6376620.43146  -4909476.30846  22683744.0784   22683747.1844
      2369.0634       1846.0234
   -448022.911 5   -349109.704 5  23338369.164    23338365.945
      -449.844        -350.528
   4063581.25147   3125624.65547  21445526.1024   21445528.7624
     -1858.6254      -1448.2794
 95  4 11 16 47 30.0000000  0  7G31G 2G18G19G27G28G29
  -6133053.30946  -4703645.00846  22093304.9774   22093308.6564
      1808.5634       1409.2694
  -1921922.63545  -1381314.07545  24040840.1954   24040844.8484
      3114.3594       2426.7744
   -523655.41947   -399420.28547  20240128.4144   20240130.5354
      -342.8914       -267.1874
  -2577286.76147  -1991576.03848  20837251.2664   20837254.3014
       865.0634        674.0754
  -6412158.10246  -4937167.99846  22676981.3674   22676984.9304
      2369.3284       1846.2304
   -441218.898 5   -343807.893 5  23339663.688    23339660.813
      -457.344        -356.372
   4091498.15147   3147378.06747  21450838.5554   21450841.2734
     -1863.6094      -1452.1634
 95  4 11 16 47 45.0000000  0  7G31G 2G18G19G27G28G29
  -6160132.81446  -4724745.92946  22088151.7114   22088155.4264
      1801.9694       1404.1314
  -1968623.71445  -1417704.52445  24031953.1804   24031957.7734
      3112.3754       2425.2274
   -518463.09747   -395374.32247  20241116.3834   20241118.3404
      -349.4374       -272.2894
  -2590255.56047  -2001681.59348  20834783.4384   20834786.2854
       864.0784        673.3084
  -6447700.24746  -4964863.16646  22670218.0944   22670221.5514
      2369.5784       1846.4254
   -434303.679 5   -338419.419 5  23340979.586    23340976.750
      -464.734        -362.131
   4119488.83447   3169188.97547  21456165.3364   21456167.8324
     -1868.5164      -1455.9864
 95  4 11 16 48  0.0000000  0  7G31G 2G18G19G27G28G29
  -6187111.48746  -4745768.27946  22083018.1484   22083021.6054
      1795.2974       1398.9334
  -2015293.63945  -1454070.69044  24023071.9534   24023076.7704
      3110.3914       2423.6814
   -513171.67247   -391251.14347  20242123.4694   20242125.4734
      -356.0474       -277.4394
  -2603207.65347  -2011774.13548  20832318.8524   20832321.7814
       862.9844        672.4554
  -6483243.40646  -4992559.12946  22663454.5784   22663457.9534
      2369.6094       1846.4494
   -427275.756 5   -332943.137 5  23342317.230    23342314.023
      -472.219        -367.963
   4147554.55647   3191058.35147  21461505.8364   21461508.2384
     -1873.4694      -1459.8464
 95  4 11 16 48 15.0000000  0  7G31G 2G18G19G27G28G29
  -6213989.22546  -4766711.97046  22077903.1094   22077906.9064
      1788.4534       1393.6004
  -2061933.18045  -1490413.15845  24014196.6094   24014201.3914
      3108.2664       2422.0254
   -507780.52247   -387050.24747  20243149.3594   20243151.3984
      -362.6874       -282.6144
  -2616142.87247  -2021853.52748  20829857.3594   20829860.3954
       861.7974        671.5304
  -6518786.74546  -5020255.22946  22656691.0704   22656694.2464
      2369.5474       1846.4004
   -420135.931 5   -327379.651 5  23343675.906    23343672.516
      -479.703        -373.795
   4175693.54747   3212984.83147  21466860.8444   21466863.0124
     -1878.3914      -1463.6814
 95  4 11 16 48 30.0000000  0  7G31G 2G18G19G27G28G29
  -6240765.06046  -4787576.26146  22072807.8674   22072811.6054
      1781.5944       1388.2554
  -2108541.07445  -1526730.98845  24005327.5004   24005331.9064
      3106.0004       2420.2604
   -502291.27547   -382772.91647  20244193.7974   20244195.7774
      -369.2974       -287.7644
  -2629061.62547  -2031920.08647  20827398.7424   20827401.8594
       860.6094        670.6054
  -6554328.72646  -5047950.27046  22649927.4224   22649930.5744
      2369.3284       1846.2304
   -412884.768 5   -321729.415 5  23345055.648    23345052.453
      -487.219        -379.651
   4203906.33447   3234968.81147  21472229.8754   21472232.1024
     -1883.4534      -1467.6264
 95  4 11 16 48 45.0000000  0  7G31G 2G18G19G27G28G29
  -6267438.39446  -4808360.67546  22067732.1024   22067736.2034
      1774.7814       1382.9464
  -2155116.51245  -1563023.52245  23996465.0004   23996469.3364
      3103.9534       2418.6654
   -496705.06647   -378420.02747  20245256.8364   20245258.8284
      -375.6094       -292.6834
  -2641964.65247  -2041974.39147  20824943.4224   20824946.4804
       859.7034        669.8994
  -6589870.37846  -5075645.05746  22643164.0394   22643167.1564
      2369.4534       1846.3274
   -405521.949 5   -315992.175 5  23346456.832    23346453.656
      -494.562        -385.373
   4232194.86947   3257011.81247  21477612.5704   21477615.0664
     -1888.4064      -1471.4854
 95  4 11 16 49  0.0000000  0  7G31G 2G18G19G27G28G29
  -6294008.38546  -4829064.56546  22062675.7114   22062679.9534
      1767.8754       1377.5654
  -2201660.96145  -1599291.89945  23987607.8594   23987612.2424
      3101.8754       2417.0454
   -491023.75947   -373993.03947  20246338.0164   20246340.1374
      -381.8914       -297.5774
  -2654852.93347  -2052017.21047  20822491.0084   20822494.0554
       858.6724        669.0954
  -6625411.55746  -5103339.47646  22636400.7424   22636403.7894
      2369.3444       1846.2424
   -398047.773 5   -310168.156 5  23347878.977    23347876.125
      -502.031        -391.193
   4260558.53847   3279113.35947  21483010.0394   21483012.6294
     -1893.5164      -1475.4674
 95  4 11 16 49 15.0000000  0  7G31G 2G18G19G27G28G29
  -6320476.90146  -4849689.37646  22057638.8984   22057643.0944
      1761.1564       1372.3304
  -2248175.15045  -1635536.70445  23978756.7894   23978761.6764
      3099.9224       2415.5244
   -485251.73047   -369495.35747  20247436.2274   20247438.3714
      -387.7814       -302.1674
  -2667725.57147  -2062047.83548  20820041.4844   20820044.5554
       857.6094        668.2674
  -6660952.76046  -5131033.91646  22629637.6724   22629641.0474
      2369.4534       1846.3274
   -390462.886 5   -304257.873 5  23349322.336    23349319.531
      -509.312        -396.867
   4288999.16247   3301274.86647  21488422.0704   21488424.8594
     -1898.6564      -1479.4724
 95  4 11 16 49 30.0000000  0  7G31G 2G18G19G27G28G29
  -6346842.35246  -4870233.87346  22052621.8834   22052626.0434
      1754.2194       1366.9244
  -2294658.93145  -1671757.83545  23969911.0394   23969914.5784
      3097.9844       2414.0144
   -479389.12547   -364927.09947  20248552.0394   20248554.0784
      -393.9534       -306.9764
  -2680580.51147  -2072064.67448  20817594.9304   20817598.1884
       856.4694        667.3784
  -6696494.02246  -5158728.39246  22622874.4614   22622877.7774
      2369.4694       1846.3394
   -382767.671 5   -298261.623 5  23350786.742    23350783.680
      -516.687        -402.614
   4317518.48147   3323497.69647  21493849.2034   21493852.0634
     -1903.9064      -1483.5634
 95  4 11 16 49 45.0000000  0  7G31G 2G18G19G27G28G29
  -6373102.26146  -4890696.14046  22047624.8914   22047628.5944
      1747.3134       1361.5424
  -2341115.60145  -1707957.80945  23961070.6564   23961074.6644
      3096.4224       2412.7964
   -473432.37347   -360285.47547  20249685.6094   20249687.4264
      -400.1094       -311.7744
  -2693418.68847  -2082068.45348  20815152.0474   20815155.2934
       855.4694        666.5994
  -6732036.77946  -5186424.04346  22616110.8204   22616113.6914
      2369.7194       1846.5344
   -374961.785 5   -292179.134 5  23352272.473    23352269.047
      -523.937        -408.263
   4346117.26047   3345782.44447  21499291.3754   21499294.0474
     -1909.0944      -1487.6064
 95  4 11 16 50  0.0000000  0  7G31G 2G18G19G27G28G29
  -6399260.44746  -4911079.13846  22042647.2424   22042650.9454
      1740.4694       1356.2094
  -2387550.45645  -1744140.81245  23952234.2034   23952238.1764
      3094.8284       2411.5544
   -467383.19947   -355571.83547  20250836.6724   20250838.5124
      -406.5314       -316.7784
  -2706242.57347  -2092061.09047  20812711.6804   20812714.9614
       854.3284        665.7104
  -6767582.51546  -5214122.00746  22609346.5394   22609349.5394
      2369.6884       1846.5104
   -367047.497 5   -286012.171 5  23353778.508    23353775.211
      -531.359        -414.046
   4374793.08747   3368127.23447  21504748.1954   21504750.9844
     -1914.3594      -1491.7094
 95  4 11 16 50 15.0000000  0  7G31G 2G18G19G27G28G29
  -6425316.87246  -4931382.84546  22037688.6174   22037692.4384
      1733.7504       1350.9744
  -2433962.90045  -1780306.34045  23943402.5314   23943407.0664
      3093.4224       2410.4594
   -461236.81547   -350782.44547  20252005.9844   20252007.7424
      -412.9844       -321.8064
  -2719048.79347  -2102039.96347  20810274.7274   20810277.9964
       853.1884        664.8214
  -6803128.64846  -5241820.27946  22602582.5474   22602585.5704
      2369.7974       1846.5954
   -359021.887 5   -279758.464 5  23355305.266    23355302.688
      -538.734        -419.793
   4403547.61947   3390533.35147  21510219.9694   21510222.7814
     -1919.5474      -1495.7514
 95  4 11 16 50 30.0000000  0  7G31G 2G18G19G27G28G29
  -6451274.35446  -4951609.44046  22032749.2034   22032752.9184
      1727.3284       1345.9704
  -2480355.23545  -1816456.19645  23934573.8984   23934577.9304
      3092.2814       2409.5704
   -454995.68747   -345919.22847  20253193.8134   20253195.4304
      -419.1254       -326.5914
  -2731839.34847  -2112006.62648  20807840.8134   20807843.9884
       852.2974        664.1274
  -6838678.96846  -5269521.82046  22595817.1024   22595820.4064
      2370.3444       1847.0214
   -350886.880 5   -273419.516 5  23356853.133    23356850.703
      -545.859        -425.345
   4432378.61347   3412999.04847  21515706.3754   21515709.0474
     -1924.5474      -1499.6474
 95  4 11 16 50 45.0000000  0  7G31G 2G18G19G27G28G29
  -6477136.70946  -4971761.91046  22027827.8674   22027831.5824
      1720.9384       1340.9904
  -2526728.45445  -1852591.15645  23925749.1334   23925753.0704
      3090.9064       2408.4984
   -448662.12447   -340983.98347  20254399.0784   20254400.7544
      -425.3594       -331.4494
  -2744617.78647  -2121963.85048  20805409.2274   20805412.2854
       851.4534        663.4704
  -6874239.81346  -5297231.56446  22589050.2274   22589053.4734
      2371.1094       1847.6184
   -342644.604 5   -266996.977 5  23358421.551    23358419.227
      -553.094        -430.982
   4461283.50147   3435522.32647  21521206.5784   21521209.1334
     -1929.4374      -1503.4584
 95  4 11 16 51  0.0000000  0  7G31G 2G18G19G27G28G29
  -6502901.48246  -4991838.35346  22022924.7974   22022928.4774
      1714.3594       1335.8644
  -2573081.20645  -1888710.17245  23916928.2114   23916932.6764
      3089.4384       2407.3544
   -442234.02347   -335975.08047  20255622.4384   20255624.1374
      -431.7814       -336.4534
  -2757382.87247  -2131910.66848  20802980.1414   20802983.1764
       850.5314        662.7524
  -6909812.07746  -5324950.19646  22582281.1094   22582284.3554
      2371.8134       1848.1664
   -334293.790 5   -260489.863 5  23360010.574    23360008.289
      -560.406        -436.680
   4490261.47747   3458102.55647  21526720.8754   21526723.4304
     -1934.2814      -1507.2324
 95  4 11 16 51 15.0000000  0  7G31G 2G18G19G27G28G29
  -6528568.15946  -5011838.34746  22018040.5234   22018044.4734
      1707.8594       1330.8004
  -2619411.31445  -1924811.54044  23908111.8284   23908116.9384
      3087.8134       2406.0884
   -435708.09747   -330889.94747  20256864.3364   20256865.9654
      -438.4224       -341.6274
  -2770133.84147  -2141846.48748  20800553.6334   20800556.7274
       849.5314        661.9724
  -6945394.40446  -5352676.67946  22575510.2504   22575513.5554
      2372.5004       1848.7014
   -325832.866 5   -253896.948 5  23361620.957    23361618.414
      -567.766        -442.415
   4519311.78047   3480739.14747  21532248.9064   21532251.3324
     -1939.1564      -1511.0314
 95  4 11 16 51 30.0000000  0  7G31G 2G18G19G27G28G29
  -6554134.85146  -5031760.43446  22013175.6334   22013179.0434
      1701.1094       1325.5404
  -2665714.23245  -1960891.71544  23899300.1724   23899305.9144
      3085.9694       2404.6514
   -429077.07947   -325722.92047  20258126.0394   20258127.8204
      -445.7034       -347.3014
  -2782867.83347  -2151769.07847  20798130.4924   20798133.5984
       848.4064        661.0964
  -6980985.45446  -5380409.96246  22568737.3674   22568740.6724
      2373.0314       1849.1154
   -317259.199 5   -247216.175 5  23363253.039    23363249.789
      -575.344        -448.320
   4548437.11947   3503434.20147  21537791.2584   21537793.7194
     -1944.1564      -1514.9274
 95  4 11 16 51 45.0000000  0  7G31G 2G18G19G27G28G29
  -6579603.92146  -5051606.45146  22008328.9614   22008332.5124
      1694.7344       1320.5724
  -2711992.76145  -1996952.91045  23890493.3524   23890498.3554
      3084.5004       2403.5064
   -422338.48547   -320472.07047  20259408.4454   20259410.1454
      -452.8444       -352.8654
  -2795588.29247  -2161681.12347  20795709.7344   20795712.9344
       847.5474        660.4264
  -7016587.10746  -5408151.50246  22561962.2504   22561965.4384
      2373.8134       1849.7244
   -308574.125 5   -240448.592 5  23364905.809    23364902.453
      -582.703        -454.054
   4577635.39547   3526186.09247  21543347.7664   21543350.3914
     -1949.0164      -1518.7134
 95  4 11 16 52  0.0000000  0  7G31G 2G18G19G27G28G29
  -6604976.04946  -5071376.93246  22003501.1484   22003504.6174
      1688.3134       1315.5684
  -2758246.52545  -2032994.78245  23881692.0864   23881697.5474
      3082.7664       2402.1554
   -415491.89647   -315137.06647  20260711.3674   20260713.1484
      -459.9374       -358.3934
  -2808292.57947  -2171580.56547  20793292.0704   20793295.2584
       846.4224        659.5504
  -7052199.23246  -5435901.20446  22555185.5394   22555188.9734
      2374.5004       1850.2604
   -299776.528 5   -233593.332 5  23366579.926    23366576.445
      -590.219        -459.911
   4606907.86047   3548995.79447  21548918.1094   21548920.7704
     -1953.9224      -1522.5374
 95  4 11 16 52 15.0000000  0  7G31G 2G18G19G27G28G29
  -6630251.83346  -5091072.33946  21998690.9304   21998694.1414
      1681.7814       1310.4794
  -2804474.69645  -2069016.72945  23872894.6334   23872899.5554
      3081.0634       2400.8284
   -408538.69747   -309718.99547  20262034.3364   20262036.2344
      -467.0944       -363.9694
  -2820979.92147  -2181466.80548  20790877.7814   20790880.8754
       845.2814        658.6614
  -7087821.43046  -5463658.74846  22548407.0234   22548410.4344
      2375.1564       1850.7714
   -290866.790 5   -226650.695 5  23368275.285    23368272.078
      -597.719        -465.755
   4636254.38947   3571863.20447  21554502.4614   21554505.3094
     -1958.9064      -1526.4204
 95  4 11 16 52 30.0000000  0  7G31G 2G18G19G27G28G29
  -6655428.96546  -5110690.86746  21993899.8594   21993902.7664
      1675.2814       1305.4144
  -2850677.27645  -2105018.74745  23864103.1804   23864108.0784
      3079.2504       2399.4164
   -401479.40647   -304218.24847  20263377.8134   20263379.7464
      -474.0784       -369.4124
  -2833651.22947  -2191340.54947  20788466.6024   20788469.8364
       844.2974        657.8944
  -7123453.95346  -5491424.34546  22541626.3754   22541629.7974
      2375.8754       1851.3314
   -281845.457 5   -219621.104 5  23369992.203    23369988.813
      -605.047        -471.465
   4665675.62647   3594788.83347  21560101.0394   21560104.1214
     -1963.8124      -1530.2444
 95  4 11 16 52 45.0000000  0  7G31G 2G18G19G27G28G29
  -6680507.24046  -5130232.37046  21989127.8134   21989130.6374
      1668.5164       1300.1424
  -2896850.43345  -2140997.81145  23855315.8984   23855320.9844
      3077.1884       2397.8084
   -394313.36247   -298634.32447  20264741.6884   20264743.6454
      -481.3124       -375.0494
  -2846306.05547  -2201201.45348  20786058.5634   20786061.6214
       843.0944        656.9564
  -7159095.34946  -5519196.85846  22534843.8984   22534847.1914
      2376.3134       1851.6724
   -272712.477 5   -212504.508 5  23371730.184    23371726.828
      -612.578        -477.334
   4695170.87447   3617772.12947  21565714.0634   21565716.9104
     -1968.8594      -1534.1764
 95  4 11 16 53  0.0000000  0  7G31G 2G18G19G27G28G29
  -6705482.42446  -5149693.54646  21984374.8054   21984377.9804
      1661.5004       1294.6754
  -2942992.89345  -2176952.96645  23846535.1094   23846540.5704
      3075.2194       2396.2744
   -387038.12347   -292965.31047  20266125.6564   20266127.4144
      -488.6874       -380.7954
  -2858942.84547  -2211048.30247  20783654.0314   20783657.1254
       841.8134        655.9584
  -7194740.50246  -5546972.29846  22528060.8134   22528064.0944
      2376.4384       1851.7694
   -263466.227 5   -205299.654 5  23373490.070    23373486.367
      -620.172        -483.251
   4724740.96447   3640813.74947  21571341.1094   21571343.8164
     -1973.7504      -1537.9874
 95  4 11 16 53 15.0000000  0  7G31G 2G18G19G27G28G29
  -6730354.05146  -5169074.01946  21979642.0704   21979645.0594
      1654.6564       1289.3434
  -2989107.81945  -2212886.65545  23837760.2664   23837764.7544
      3073.3754       2394.8384
   -379652.09047   -287209.96547  20267531.2424   20267532.8714
      -496.2034       -386.6524
  -2871561.15347  -2220880.74447  20781252.6954   20781255.7774
       840.4844        654.9234
  -7230387.68046  -5574749.31446  22521277.6024   22521280.9064
      2376.4224       1851.7574
   -254107.837 5   -198007.409 5  23375270.879    23375267.109
      -627.750        -489.156
   4754382.46147   3663911.01347  21576981.6564   21576984.4224
     -1978.5164      -1541.7004
 95  4 11 16 53 30.0000000  0  7G31G 2G18G19G27G28G29
  -6755122.21846  -5188373.86946  21974928.9064   21974931.8834
      1647.7194       1283.9374
  -3035194.74445  -2248798.53845  23828990.2584   23828993.9844
      3071.5314       2393.4014
   -372153.40447   -281366.84447  20268958.2194   20268959.9534
      -503.6094       -392.4234
  -2884156.52047  -2230695.31848  20778856.1484   20778859.2424
       838.8594        653.6574
  -7266034.00346  -5602525.66546  22514494.2274   22514497.4264
      2376.3914       1851.7334
   -244635.968 5   -190626.755 5  23377073.301    23377069.852
      -635.203        -494.963
   4784095.33047   3687063.88847  21582635.7034   21582638.4924
     -1983.2664      -1545.4024
 95  4 11 16 53 45.0000000  0  7G31G 2G18G19G27G28G29
  -6779784.62746  -5207591.31146  21970236.0634   21970238.7234
      1640.7504       1278.5064
  -3081253.65145  -2284688.57245  23820225.9144   23820230.1094
      3069.7504       2392.0134
   -364543.53347   -275437.08047  20270406.3284   20270408.2154
      -510.8594       -398.0724
  -2896724.97047  -2240488.91547  20776464.1564   20776467.0744
       837.0634        652.2564
  -7301677.47946  -5630299.79846  22507711.2034   22507714.6604
      2376.2194       1851.5994
   -235050.108 5   -183157.261 5  23378897.324    23378893.977
      -642.781        -500.869
   4813880.95947   3710273.45447  21588303.7194   21588306.6024
     -1988.0474      -1549.1274
 95  4 11 16 54  0.0000000  0  7G31G 2G18G19G27G28G29
  -6804343.05446  -5226727.73546  21965562.8054   21965565.4184
      1633.6414       1272.9674
  -3127285.88045  -2320557.83745  23811466.1254   23811469.9804
      3067.7814       2390.4794
   -356827.69247   -269424.74647  20271874.6804   20271876.7664
      -517.9694       -403.6124
  -2909265.26847  -2250260.57547  20774077.8834   20774080.9304
       834.9064        650.5764
  -7337319.70246  -5658072.94446  22500928.6644   22500932.3094
      2376.0004       1851.4294
   -225352.152 5   -175600.423 5  23380742.691    23380739.414
      -650.344        -506.761
   4843737.78947   3733538.50447  21593985.2814   21593988.2584
     -1992.8594      -1552.8774
 95  4 11 16 54 15.0000000  0  7G31G 2G18G19G27G28G29
  -6828793.54846  -5245780.05146  21960910.0164   21960912.7344
      1626.4384       1267.3544
  -3173287.00245  -2356402.84645  23802712.7344   23802717.2464
      3065.7194       2388.8724
   -349005.60947   -263329.62247  20273362.8524   20273365.1954
      -524.9224       -409.0304
  -2921773.78547  -2260007.46947  20771697.7664   20771700.6844
       832.9224        649.0304
  -7372958.58046  -5685843.49146  22494147.0784   22494150.6644
      2375.8444       1851.3074
   -215540.475 5   -167954.970 5  23382609.688    23382606.477
      -657.828        -512.593
   4873665.60747   3756858.87447  21599680.6484   21599683.2974
     -1997.5164      -1556.5064
 95  4 11 16 54 30.0000000  0  7G31G 2G18G19G27G28G29
  -6853134.88746  -5264747.30946  21956277.7504   21956280.5984
      1619.0314       1261.5834
  -3219255.94345  -2392222.78945  23793965.0474   23793968.7154
      3063.3444       2387.0214
   -341078.03347   -257152.30247  20274871.4144   20274873.8524
      -532.1414       -414.6554
  -2934252.68647  -2269731.28947  20769323.0394   20769325.9224
       830.9064        647.4594
  -7408594.07846  -5713611.40846  22487366.1804   22487369.6374
      2375.5004       1851.0394
   -205615.719 5   -160221.410 5  23384498.113    23384495.258
      -665.531        -518.596
   4903664.61747   3780234.71347  21605389.1804   21605391.8404
     -2002.3594      -1560.2804
 95  4 11 16 54 45.0000000  0  7G31G 2G18G19G27G28G29
  -6877364.99746  -5283627.89646  21951666.9774   21951669.6374
      1611.6414       1255.8244
  -3265188.23245  -2428014.17545  23785224.1724   23785227.2774
      3060.9844       2385.1834
   -333041.61847   -250890.16647  20276400.9304   20276403.5204
      -539.4224       -420.3294
  -2946701.66947  -2279431.79247  20766954.1174   20766956.8484
       828.9534        645.9384
  -7444225.53846  -5741376.17046  22480585.7814   22480589.0634
      2375.3284       1850.9054
   -195575.834 5   -152398.132 5  23386408.797    23386405.914
      -673.141        -524.525
   4933735.92647   3803666.89047  21611111.4224   21611114.1524
     -2007.1414      -1564.0064
 95  4 11 16 55  0.0000000  0  7G31G 2G18G19G27G28G29
  -6901481.52246  -5302419.97346  21947077.8284   21947080.7464
      1603.9384       1249.8214
  -3311084.60245  -2463777.57645  23776490.5234   23776494.2854
      3058.6414       2383.3564
   -324895.46847   -244542.52447  20277951.0164   20277953.6414
      -546.6874       -425.9904
  -2959119.74547  -2289108.21547  20764590.9844   20764593.7274
       826.8594        644.3064
  -7479853.93546  -5769138.54946  22473806.0234   22473809.3754
      2375.2034       1850.8084
   -185420.616 5   -144484.994 5  23388341.109    23388338.148
      -680.828        -530.515
   4963879.70547   3827155.53647  21616847.8054   21616850.5234
     -2012.0474      -1567.8294
 95  4 11 16 55 15.0000000  0  7G31G 2G18G19G27G28G29
  -6925483.38346  -5321122.70146  21942510.2584   21942513.0824
      1596.3444       1243.9044
  -3356947.11345  -2499514.58645  23767763.1254   23767766.9344
      3056.2504       2381.4944
   -316639.33647   -238109.18247  20279521.9384   20279524.5744
      -554.1254       -431.7864
  -2971506.56547  -2298760.28447  20762233.6094   20762236.3634
       824.6724        642.6014
  -7515481.35246  -5796900.16646  22467026.0394   22467029.0164
      2375.1094       1850.7354
   -175150.419 5   -136482.259 5  23390295.738    23390292.414
      -688.578        -536.554
   4994097.97447   3850702.22847  21622598.0784   21622600.6804
     -2017.1254      -1571.7864
 95  4 11 16 55 30.0000000  0  7G31G 2G18G19G27G28G29
  -6949375.25946  -5339739.73246  21937963.7584   21937966.8524
      1589.1564       1238.3044
  -3402773.99345  -2535223.82645  23759042.3754   23759046.8054
      3053.9224       2379.6794
   -308275.35047   -231591.79647  20281113.5864   20281116.2344
      -561.1414       -437.2524
  -2983863.06747  -2308388.72247  20759882.1884   20759885.1174
       822.7664        641.1164
  -7551110.01046  -5824662.74746  22460246.3284   22460249.3984
      2375.2664       1850.8564
   -164765.800 5   -128390.355 5  23392271.977    23392268.492
      -696.141        -542.447
   5024392.66547   3874308.46847  21628363.0004   21628365.7304
     -2022.3124      -1575.8284
 95  4 11 16 55 45.0000000  0  7G31G 2G18G19G27G28G29
  -6973154.34946  -5358268.88446  21933438.5704   21933441.6054
      1581.5164       1232.3504
  -3448561.05545  -2570902.04945  23750329.2894   23750333.8244
      3051.2034       2377.5614
   -299803.43347   -224990.30647  20282725.8594   20282728.2624
      -568.3284       -442.8534
  -2996187.37047  -2317992.07248  20757537.0554   20757540.1484
       820.6724        639.4854
  -7586738.24146  -5852424.99446  22453466.2424   22453469.4654
      2375.3284       1850.9054
   -154263.688 5   -120206.903 5  23394270.648    23394266.859
      -704.016        -548.584
   5054772.16247   3897980.79647  21634144.2344   21634146.8244
     -2028.1724      -1580.3944
 95  4 11 16 56  0.0000000  0  7G31G 2G18G19G27G28G29
  -6996822.08146  -5376711.25046  21928934.3834   21928937.1484
      1574.1254       1226.5914
  -3494311.38745  -2606551.63445  23741623.6024   23741628.4304
      3048.8284       2375.7104
   -291226.12047   -218306.69247  20284358.0314   20284360.3524
      -575.3444       -448.3204
  -3008485.91247  -2327575.35147  20755196.7034   20755199.8674
       819.1884        638.3284
  -7622371.38646  -5880191.07646  22446685.9064   22446689.4924
      2375.7664       1851.2464
   -143646.569 5   -111933.834 5  23396291.070    23396287.453
      -711.594        -554.489
   5085236.20147   3921718.99647  21639941.2664   21639943.9024
     -2033.6874      -1584.6924
 95  4 11 16 56 15.0000000  0  7G31G 2G18G19G27G28G29
  -7020376.36646  -5395065.22746  21924452.3364   21924455.1024
      1566.2814       1220.4794
  -3540026.10745  -2642173.48145  23732924.6484   23732928.8094
      3046.3754       2373.7994
   -282542.94647   -211540.59047  20286010.5864   20286012.9064
      -582.5474       -453.9334
  -3020763.51247  -2337142.31047  20752860.3524   20752863.5394
       817.7664        637.2204
  -7658011.00946  -5907962.20046  22439903.7814   22439907.0274
      2376.0634       1851.4774
   -132914.885 5   -103571.503 5  23398333.164    23398329.945
      -719.391        -560.564
   5115782.89247   3945521.60847  21645753.8364   21645756.6374
     -2039.2814      -1589.0504
 95  4 11 16 56 30.0000000  0  7G31G 2G18G19G27G28G29
  -7043811.60146  -5413326.43746  21919992.7584   21919995.7464
      1558.3444       1214.2944
  -3585704.72645  -2677767.20245  23724231.8984   23724236.8324
      3044.0944       2372.0214
   -273750.78947   -204689.56847  20287683.7274   20287685.9884
      -589.8444       -459.6194
  -3033022.07247  -2346694.43447  20750527.6024   20750530.8834
       816.6254        636.3314
  -7693654.86046  -5935736.62046  22433120.8054   22433123.8754
      2376.3754       1851.7214
   -122066.225 5    -95118.013 5  23400397.508    23400394.523
      -727.187        -566.640
   5146413.65047   3969389.71447  21651582.7504   21651585.7504
     -2044.9224      -1593.4464
 95  4 11 16 56 45.0000000  0  7G31G 2G18G19G27G28G29
  -7067127.63546  -5431494.76246  21915555.6564   21915558.7734
      1550.4534       1208.1454
  -3631348.82745  -2713334.03045  23715546.6804   23715551.1684
      3041.7664       2370.2074
   -264847.77347   -197752.16047  20289377.8594   20289380.0984
      -597.2504       -465.3904
  -3045261.95847  -2356232.00747  20748198.4454   20748201.9494
       815.2974        635.2964
  -7729302.05946  -5963513.65346  22426337.4224   22426340.4924
      2376.5474       1851.8554
   -111100.529 5    -86573.326 5  23402484.176    23402481.297
      -734.969        -572.703
   5177128.55847   3993323.39847  21657427.7274   21657430.7734
     -2050.4224      -1597.7314
 95  4 11 16 57  0.0000000  0  7G31G 2G18G19G27G28G29
  -7090324.65546  -5449570.34946  21911141.6094   21911144.7854
      1542.5474       1201.9854
  -3676960.26645  -2748875.40145  23706866.6484   23706871.6524
      3039.7504       2368.6364
   -255834.59147   -190728.90547  20291093.0084   20291095.2704
      -604.4694       -471.0154
  -3057480.84547  -2365753.21747  20745873.1024   20745876.4414
       813.8444        634.1644
  -7764951.41146  -5991292.35746  22419553.6484   22419556.8954
      2376.6564       1851.9404
   -100017.404 5    -77937.146 5  23404593.293    23404590.242
      -742.766        -578.778
   5207925.96347   4017321.36247  21663288.5234   21663291.3364
     -2055.8914      -1601.9934
 95  4 11 16 57 15.0000000  0  7G31G 2G18G19G27G28G29
  -7113402.33746  -5467552.94546  21906750.2114   21906753.2234
      1534.6564       1195.8364
  -3722538.53245  -2784390.92745  23698193.1954   23698198.4804
      3037.4844       2366.8714
   -246711.94747   -183620.35847  20292828.7114   20292831.2304
      -611.8124       -476.7374
  -3069675.15947  -2375255.27847  20743553.0004   20743556.3754
       812.2344        632.9104
  -7800599.86946  -6019070.36846  22412769.6254   22412773.0354
      2376.5314       1851.8434
    -88816.292 5    -69209.010 5  23406724.664    23406721.664
      -750.625        -584.903
   5238806.87247   4041384.39847  21669165.0394   21669167.3954
     -2061.4224      -1606.3034
 95  4 11 16 57 30.0000000  0  7G31G 2G18G19G27G28G29
  -7136363.78546  -5485444.97346  21902380.7274   21902383.9264
      1526.8754       1189.7734
  -3768083.88645  -2819880.79945  23689526.2584   23689532.1294
      3035.2194       2365.1064
   -237479.96047   -176426.60947  20294585.5864   20294588.2114
      -619.0784       -482.3994
  -3081847.12947  -2384739.93047  20741236.6094   20741239.9024
       810.7344        631.7414
  -7836245.86446  -6046846.46146  22405986.5784   22405989.8134
      2376.2814       1851.6484
    -77497.308 5    -60389.035 5  23408878.676    23408875.719
      -758.500        -591.039
   5269767.90747   4065509.87447  21675056.8594   21675058.8524
     -2066.7034      -1610.4184
 95  4 11 16 57 45.0000000  0  7G31G 2G18G19G27G28G29
  -7159204.26346  -5503242.74446  21898034.1334   21898037.3794
      1518.6254       1183.3444
  -3813593.82445  -2855343.07945  23680866.0084   23680871.3984
      3032.9534       2363.3404
   -228136.89447   -169146.30447  20296363.7114   20296366.2774
      -626.5004       -488.1824
  -3093994.62147  -2394205.51047  20738925.0704   20738928.2344
       809.0474        630.4264
  -7871886.39446  -6074618.30446  22399204.0164   22399207.5314
      2375.9844       1851.4164
    -66058.196 5    -51475.450 5  23411055.473    23411052.375
      -766.531        -597.297
   5300810.01047   4089698.52147  21680963.8524   21680966.0784
     -2072.0474      -1614.5824
 95  4 11 16 58  0.0000000  0  7G31G 2G18G19G27G28G29
  -7181922.18046  -5520945.00646  21893711.2424   21893714.5944
      1510.3754       1176.9164
  -3859071.66645  -2890780.34645  23672211.2734   23672217.4964
      3030.6564       2361.5504
   -218684.69847   -161780.96447  20298162.1414   20298164.6844
      -633.8284       -493.8924
  -3106118.44947  -2403652.64747  20736617.9924   20736621.1094
       807.4224        629.1604
  -7907525.79446  -6102389.25546  22392422.4144   22392426.0234
      2375.8284       1851.2954
    -54501.953 5    -42470.594 5  23413254.527    23413251.352
      -774.375        -603.409
   5331928.75647   4113946.87947  21686885.6954   21686888.0044
     -2077.0944      -1618.5154
 95  4 11 16 58 15.0000000  0  7G31G 2G18G19G27G28G29
  -7204514.37446  -5538549.30646  21889412.5234   21889415.6524
      1502.0474       1170.4264
  -3904511.55145  -2926188.04845  23663564.8134   23663571.0704
      3028.1254       2359.5784
   -209120.30647   -154328.19247  20299982.1334   20299984.6524
      -641.2814       -499.7004
  -3118215.74147  -2413079.10647  20734316.0634   20734319.1094
       805.6094        627.7484
  -7943157.55446  -6130154.25046  22385641.8984   22385645.2504
      2375.1414       1850.7594
    -42825.988 5    -33372.447 5  23415476.473    23415472.984
      -782.328        -609.606
   5363122.17647   4138253.42847  21692821.5944   21692823.7854
     -2081.9064      -1622.2654
 95  4 11 16 58 30.0000000  0  7G31G 2G18G19G27G28G29
  -7226981.59446  -5556056.22046  21885137.0164   21885140.3324
      1493.6414       1163.8764
  -3949912.14645  -2961565.11845  23654924.7974   23654930.2584
      3025.2974       2357.3744
   -199444.63347   -146788.70847  20301823.4224   20301826.1764
      -648.8444       -505.5934
  -3130282.62247  -2422481.87147  20732019.5394   20732022.5864
       803.3134        625.9584
  -7978777.85146  -6157910.31746  22378863.9694   22378867.1454
      2374.2344       1850.0534
    -31029.810 4    -24180.633 5  23417720.867    23417717.664
      -790.469        -615.950
   5394389.48947   4162617.55247  21698771.5164   21698773.7424
     -2087.0624      -1626.2824
 95  4 11 16 58 45.0000000  0  7G31G 2G18G19G27G28G29
  -7249325.88246  -5573467.34446  21880884.7814   21880888.0164
      1485.7344       1157.7154
  -3995272.07445  -2996910.51645  23646293.3594   23646298.6914
      3022.7034       2355.3534
   -189655.94147   -139161.16347  20303686.1724   20303689.0314
      -656.2344       -511.3514
  -3142314.91447  -2431857.68147  20729729.7664   20729732.8594
       801.0314        624.1804
  -8014386.07446  -6185656.97046  22372087.7114   22372090.9694
      2373.6094       1849.5664
    -19113.748 4    -14895.400 5  23419988.512    23419984.883
      -798.297        -622.050
   5425733.32247   4187041.31047  21704735.9694   21704738.4304
     -2092.0474      -1630.1664
 95  4 11 16 59  0.0000000  0  7G31G 2G18G19G27G28G29
  -7271552.73246  -5590786.95646  21876655.6884   21876658.7584
      1477.7194       1151.4694
  -4040590.71345  -3032223.74945  23637669.7814   23637675.9574
      3019.7034       2353.0154
   -179756.88847   -131447.61947  20305569.8984   20305572.5824
      -663.7034       -517.1714
  -3154311.81947  -2441205.92047  20727447.0314   20727450.1954
       798.5314        622.2324
  -8049984.31046  -6213395.84746  22365313.8364   22365316.9534
      2372.8134       1848.9454
     -7079.121 4     -5517.786 5  23422278.844    23422275.063
      -806.406        -628.369
   5457152.65247   4211523.88947  21710715.2974   21710717.8164
     -2097.2664      -1634.2334
 95  4 11 16 59 15.0000000  0  7G31G 2G18G19G27G28G29
  -7293658.76446  -5608012.43446  21872448.9614   21872452.3244
      1469.7974       1145.2964
  -4085864.54445  -3067502.05445  23629053.7504   23629059.8324
      3016.7504       2350.7144
   -169745.99147   -123646.92547  20307475.0554   20307477.5744
      -671.0784       -522.9184
  -3166272.60547  -2450526.01247  20725170.8984   20725174.0164
       796.2974        620.4914
  -8085571.73246  -6241126.29946  22358541.2344   22358544.2704
      2372.2194       1848.4824
      5075.672 4      3953.476 5  23424592.020    23424588.219
      -814.234        -634.468
   5488650.04547   4236067.29547  21716708.7504   21716711.0704
     -2102.2814      -1638.1414
 95  4 11 16 59 30.0000000  0  7G31G 2G18G19G27G28G29
  -7315644.14246  -5625143.88946  21868264.9454   21868267.9924
      1461.5944       1138.9044
  -4131092.72145  -3102744.77245  23620448.1254   23620454.0554
      3013.6724       2348.3164
   -159622.62147   -115758.59047  20309401.6174   20309404.1254
      -678.6724       -528.8354
  -3178200.22147  -2459820.26147  20722901.3444   20722904.2974
       794.1094        618.7874
  -8121149.45046  -6268849.19446  22351771.3984   22351774.4344
      2371.4844       1847.9104
     17348.878 5     13517.004 5  23426927.844    23426924.297
      -822.219        -640.690
   5520223.16247   4260669.71047  21722717.0084   21722719.2344
     -2107.4374      -1642.1594
 95  4 11 16 59 45.0000000  0  7G31G 2G18G19G27G28G29
  -7337505.60846  -5642178.79546  21864105.0084   21864108.4414
      1453.4064       1132.5244
  -4176275.13345  -3137951.85145  23611850.2194   23611856.2424
      3010.7194       2346.0154
   -149387.21247   -107782.95047  20311349.2664   20311351.6334
      -685.9374       -534.4974
  -3190095.49347  -2469089.29847  20720637.4844   20720640.4964
       792.0314        617.1674
  -8156717.99446  -6296564.93346  22345003.0084   22345005.6914
      2371.1094       1847.6184
     29741.214 5     23173.359 5  23429286.086    23429282.516
      -830.016        -646.765
   5551873.79047   4285332.53047  21728740.0864   21728742.1604
     -2112.6094      -1646.1894
 95  4 11 17  0  0.0000000  0  7G31G 2G18G19G27G28G29
  -7359245.25346  -5659118.77746  21859967.7894   21859971.2114
      1445.3284       1126.2304
  -4221413.08845  -3173124.26345  23603260.2344   23603266.3284
      3007.7194       2343.6774
   -139042.92947    -99722.47647  20313317.8054   20313320.3014
      -693.1874       -540.1464
  -3201958.98447  -2478333.57947  20718380.0554   20718383.1844
       789.8284        615.4504
  -8192281.22546  -6324276.53146  22338235.3754   22338238.1294
      2370.7194       1847.3134
     42251.152 5     32921.355 5  23431666.746    23431662.992
      -837.906        -652.914
   5583603.73647   4310057.14847  21734778.0554   21734780.3524
     -2117.9534      -1650.3534
 95  4 11 17  0 15.0000000  0  7G31G 2G18G19G27G28G29
  -7380866.69246  -5675966.64246  21855853.6644   21855857.0514
      1437.6094       1120.2154
  -4266507.40145  -3208262.67845  23594678.5784   23594684.7194
      3004.9224       2341.4984
   -128592.17347    -91579.03247  20315306.6804   20315309.1294
      -700.2194       -545.6254
  -3213790.68647  -2487553.08247  20716128.6724   20716131.8834
       787.7974        613.8684
  -8227838.62046  -6351983.58246  22331469.0864   22331471.9924
      2370.3284       1847.0094
     54878.092 5     42760.519 5  23434069.391    23434065.492
      -845.578        -658.892
   5615411.47247   4334842.38447  21740830.5554   21740833.1804
     -2123.0004      -1654.2864
 95  4 11 17  0 30.0000000  0  7G31G 2G18G19G27G28G29
  -7402371.58146  -5692723.69046  21851761.4454   21851764.9264
      1429.8754       1114.1884
  -4311559.97145  -3243368.55045  23586105.7344   23586111.8164
      3002.2664       2339.4284
   -118033.51147    -83351.50947  20317315.8754   20317318.3954
      -707.4374       -551.2504
  -3225589.42847  -2496746.90647  20713883.4454   20713886.6684
       785.5314        612.1024
  -8263389.59046  -6379685.62746  22324704.1564   22324707.1914
      2370.0164       1846.7654
     67622.013 5     52690.832 5  23436494.188    23436490.352
      -853.469        -665.041
   5647297.20347   4359688.39847  21746897.8364   21746900.6954
     -2128.3594      -1658.4624
 95  4 11 17  0 45.0000000  0  7G31G 2G18G19G27G28G29
  -7423758.93946  -5709389.16346  21847691.6254   21847694.9884
      1421.7974       1107.8944
  -4356570.07745  -3278441.35445  23577539.8524   23577546.0744
      2999.0314       2336.9074
   -107364.83047    -75038.25347  20319346.0234   20319348.5084
      -715.0944       -557.2164
  -3237353.33247  -2505913.58548  20711644.9454   20711648.2274
       783.0474        610.1664
  -8298938.00946  -6407385.68546  22317939.0944   22317942.3754
      2369.7194       1846.5344
     80484.376 5     62713.441 5  23438941.695    23438937.820
      -861.562        -671.347
   5679265.78547   4384598.96547  21752981.3754   21752984.1884
     -2134.1254      -1662.9554
 95  4 11 17  1  0.0000000  0  7G31G 2G18G19G27G28G29
  -7445027.37246  -5725961.96946  21843644.2894   21843647.6054
      1414.0784       1101.8794
  -4401533.55645  -3313477.83145  23568983.4534   23568989.3134
      2996.2194       2334.7164
    -96583.51647    -66637.23247  20321397.2814   20321400.0944
      -722.3124       -562.8414
  -3249084.46147  -2515054.72247  20709412.4694   20709415.7034
       781.2194        608.7424
  -8334482.73246  -6435082.86746  22311175.2894   22311178.3244
      2369.6564       1846.4854
     93466.781 5     72829.589 5  23441412.332    23441408.375
      -869.312        -677.386
   5711318.58347   4409575.16146  21759081.0704   21759083.5784
     -2139.4374      -1667.0944
 95  4 11 17  1 15.0000000  0  7G31G 2G18G19G27G28G29
  -7466176.51046  -5742441.81546  21839619.7734   21839622.9494
      1405.8284       1095.4504
  -4446452.13845  -3348479.31545  23560436.0234   23560441.6134
      2993.0784       2332.2694
    -85692.57647    -58150.79047  20323469.9064   20323472.6724
      -729.7974       -568.6734
  -3260787.36347  -2524173.86547  20707185.3204   20707188.6134
       779.2194        607.1834
  -8370023.56046  -6462777.01246  22304412.3134   22304415.2664
      2369.1254       1846.0714
    106567.272 5     83037.750 5  23443905.258    23443901.656
      -877.375        -683.669
   5743452.72947   4434614.73746  21765195.9614   21765198.3754
     -2145.0784      -1671.4894
 95  4 11 17  1 30.0000000  0  7G31G 2G18G19G27G28G29
  -7487204.11346  -5758826.95646  21835618.0944   21835621.5274
      1397.9384       1089.3024
  -4491326.17345  -3383446.07545  23551897.4534   23551903.3954
      2990.2344       2330.0534
    -74690.73347    -49577.93447  20325563.5944   20325566.4064
      -737.0624       -574.3344
  -3272461.27947  -2533270.41947  20704963.8984   20704967.3094
       777.2814        605.6744
  -8405557.83546  -6490466.05446  22297650.1414   22297653.2344
      2368.7344       1845.7674
    119786.385 5     93338.348 5  23446420.605    23446417.328
      -885.187        -689.756
   5775671.02447   4459719.88946  21771326.9384   21771329.2114
     -2150.6874      -1675.8604
 95  4 11 17  1 45.0000000  0  7G31G 2G18G19G27G28G29
  -7508113.31846  -5775119.84246  21831639.2344   21831642.6334
      1390.1094       1083.2024
  -4536158.60645  -3418380.43045  23543366.2814   23543371.6484
      2987.5164       2327.9344
    -63580.27947    -40920.44247  20327677.6954   20327680.4024
      -744.2504       -579.9354
  -3284104.82447  -2542343.31047  20702748.3594   20702751.7464
       775.2664        604.1034
  -8441085.26146  -6518149.75346  22290889.4614   22290892.8014
      2368.4064       1845.5114
    133124.557 5    103731.720 5  23448958.621    23448955.125
      -893.094        -695.917
   5807976.30546   4484892.81746  21777474.2424   21777476.6804
     -2156.5474      -1680.4264
 95  4 11 17  2  0.0000000  0  7G31G 2G18G19G27G28G29
  -7528908.15246  -5791323.60046  21827681.7504   21827685.3484
      1382.4064       1077.2004
  -4580950.05645  -3453282.84545  23534843.5944   23534848.5984
      2984.5634       2325.6334
    -52361.54047    -32178.57147  20329812.6884   20329815.3244
      -751.7034       -585.7434
  -3295719.05447  -2551393.35747  20700537.9844   20700541.3594
       773.1564        602.4594
  -8476609.21246  -6545830.74546  22284129.1644   22284132.5274
      2368.0634       1845.2444
    146581.588 5    114217.718 5  23451519.453    23451515.805
      -901.187        -702.224
   5840367.95646   4510133.04546  21783638.3984   21783641.0234
     -2162.3914      -1684.9804
 95  4 11 17  2 15.0000000  0  7G31G 2G18G19G27G28G29
  -7549587.68146  -5807437.51846  21823746.7344   21823750.2734
      1374.8284       1071.2954
  -4625696.88246  -3488150.48945  23526328.8204   23526333.5554
      2981.6564       2323.3694
    -41030.08347    -23348.86847  20331969.1484   20331971.7274
      -759.1724       -591.5624
  -3307301.36747  -2560418.53247  20698334.2424   20698337.5824
       771.1724        600.9134
  -8512126.72846  -6573506.72246  22277370.3054   22277373.8444
      2367.6724       1844.9394
    160158.678 5    124797.268 5  23454102.965    23454099.453
      -909.031        -708.336
   5872845.15347   4535439.93946  21789818.8284   21789821.1724
     -2167.8444      -1689.2294
 95  4 11 17  2 30.0000000  0  7G31G 2G18G19G27G28G29
  -7570151.85846  -5823461.54746  21819833.6564   21819836.9024
      1367.0164       1065.2074
  -4670400.94946  -3522984.81045  23517822.2504   23517826.7274
      2978.7974       2321.1404
    -29585.16947    -14430.75747  20334146.9694   20334149.5124
      -766.9064       -597.5894
  -3318854.66847  -2569421.10347  20696135.6954   20696139.0234
       769.2504        599.4164
  -8547639.79446  -6601179.23746  22270612.3984   22270616.0554
      2367.3444       1844.6834
    173852.800 5    135468.014 5  23456708.973    23456705.867
      -916.922        -714.485
   5905404.30547   4560810.69446  21796014.4924   21796016.8714
     -2173.4694      -1693.6124
 95  4 11 17  2 45.0000000  0  7G31G 2G18G19G27G28G29
  -7590598.87946  -5839394.29046  21815942.8914   21815945.7504
      1359.1564       1059.0834
  -4715061.60946  -3557785.30145  23509324.1564   23509327.9884
      2975.9224       2318.9004
    -18023.66547     -5421.79547  20336347.1414   20336349.5554
      -774.7034       -603.6654
  -3330381.27247  -2578402.87047  20693942.3674   20693945.8014
       767.6254        598.1494
  -8583147.64246  -6628847.67846  22263855.6804   22263858.9494
      2366.9064       1844.3434
    187664.715 5    146230.544 5  23459337.219    23459333.742
      -924.750        -720.584
   5938048.51846   4586247.72746  21802226.0634   21802228.3364
     -2179.1564      -1698.0444
 95  4 11 17  3  0.0000000  0  7G31G 2G18G19G27G28G29
  -7610926.85146  -5855234.25846  21812074.9064   21812077.7664
      1351.1254       1052.8254
  -4759680.77646  -3592553.46645  23500833.1644   23500836.7384
      2973.2814       2316.8434
     -6346.50547      3677.28447  20338569.2664   20338571.7154
      -782.3444       -609.6194
  -3341885.65447  -2587367.32247  20691752.9534   20691756.3284
       766.2034        597.0414
  -8618647.97146  -6656510.26646  22257100.5784   22257103.7424
      2366.2974       1843.8684
    201593.030 5    157083.771 5  23461988.016    23461984.430
      -932.484        -726.611
   5970776.19646   4611749.80346  21808453.9534   21808456.2154
     -2184.6254      -1702.3054
 95  4 11 17  3 15.0000000  0  7G31G 2G18G19G27G28G29
  -7631131.68146  -5870978.28046  21808230.0474   21808232.8834
      1342.8284       1046.3604
  -4804260.68246  -3627291.04145  23492349.7274   23492352.9614
      2970.7504       2314.8704
      5447.77347     12867.62347  20340813.7504   20340816.0704
      -790.2664       -615.7914
  -3353364.92747  -2596312.21247  20689568.6484   20689571.8594
       764.2814        595.5444
  -8654135.11246  -6684162.57946  22250347.5864   22250350.5984
      2365.3594       1843.1374
    215639.582 5    168029.135 5  23464660.934    23464657.336
      -940.422        -732.796
   6003587.17646   4637316.78346  21814698.1724   21814700.6214
     -2190.1564      -1706.6154
 95  4 11 17  3 30.0000000  0  7G31G 2G18G19G27G28G29
  -7651215.33846  -5886627.87746  21804407.7664   21804410.8834
      1334.9694       1040.2354
  -4848805.97346  -3662001.63445  23483872.8984   23483877.1994
      2968.5784       2313.1784
     17359.41947     22149.42447  20343080.2814   20343082.5434
      -798.0164       -621.8304
  -3364815.15647  -2605234.46947  20687389.3284   20687392.5634
       762.2974        593.9984
  -8689611.45646  -6711806.48046  22243596.7034   22243599.4924
      2364.7814       1842.6874
    229803.477 5    179065.927 5  23467356.230    23467352.945
      -948.172        -738.835
   6036478.99447   4662946.75446  21820957.2894   21820959.6804
     -2195.4374      -1710.7314
 95  4 11 17  3 45.0000000  0  7G31G 2G18G19G27G28G29
  -7671180.85646  -5902185.41346  21800608.9534   21800612.0004
      1327.0944       1034.0994
  -4893316.40545  -3696685.06145  23475401.9534   23475406.1484
      2966.1564       2311.2914
     29388.72447     31522.90247  20345369.3284   20345371.7664
      -805.8754       -627.9554
  -3376233.80947  -2614132.11747  20685216.4384   20685219.8364
       760.2814        592.4274
  -8725079.62046  -6739444.00446  22236847.2814   22236850.1294
      2364.3594       1842.3584
    244084.896 5    190194.303 5  23470074.305    23470070.461
      -955.984        -744.923
   6069450.58847   4688638.89746  21827231.9614   21827233.9414
     -2200.6414      -1714.7854
 95  4 11 17  4  0.0000000  0  7G31G 2G18G19G27G28G29
  -7691024.55146  -5917648.02646  21796832.7734   21796835.8914
      1318.7344       1027.5854
  -4937787.91145  -3731338.17345  23466939.8834   23466944.6994
      2963.3134       2309.0754
     41538.46047     40990.22447  20347681.5314   20347684.0394
      -814.0944       -634.3594
  -3387622.24447  -2623006.22147  20683049.3594   20683052.7114
       758.1884        590.7954
  -8760541.16746  -6767076.37246  22230099.1024   22230101.9144
      2363.8444       1841.9564
    258484.480 5    201414.758 5  23472814.508    23472810.625
      -963.937        -751.120
   6102499.32247   4714391.14646  21833520.8204   21833522.7664
     -2205.8124      -1718.8154
 95  4 11 17  4 15.0000000  0  7G31G 2G18G19G27G28G29
  -7710742.76146  -5933012.85946  21793080.6174   21793083.6174
      1310.3754       1021.0714
  -4982216.46645  -3765957.80645  23458484.6804   23458489.1914
      2960.6254       2306.9814
     53809.99347     50552.45547  20350016.8834   20350019.4144
      -821.9844       -640.5074
  -3398980.81047  -2631857.05447  20680887.9534   20680891.2814
       756.3134        589.3344
  -8795995.44246  -6794703.07646  22223351.9924   22223354.6524
      2363.4384       1841.6404
    273001.001 5    212726.331 5  23475577.070    23475572.539
      -971.531        -757.037
   6135624.05247   4740202.60546  21839824.0394   21839825.9734
     -2210.8594      -1722.7484
 95  4 11 17  4 30.0000000  0  7G31G 2G18G19G27G28G29
  -7730333.77046  -5948278.57846  21789351.8054   21789354.8524
      1301.8134       1014.3994
  -5026604.89445  -3800546.17145  23450037.9454   23450043.1024
      2957.9224       2304.8744
     66199.44047     60206.56347  20352374.5394   20352377.0474
      -829.8284       -646.6194
  -3410309.64247  -2640684.71547  20678732.0944   20678735.3284
       754.2344        587.7154
  -8831441.93746  -6822323.70946  22216606.6884   22216609.6524
      2362.8594       1841.1894
    287633.377 5    224128.177 5  23478361.410    23478357.133
      -979.359        -763.137
   6168828.04047   4766075.82546  21846142.4924   21846144.8714
     -2216.2814      -1726.9724
 95  4 11 17  4 45.0000000  0  7G31G 2G18G19G27G28G29
  -7749795.12846  -5963443.26246  21785648.5234   21785651.6174
      1293.1254       1007.6304
  -5070954.12046  -3835104.00445  23441598.6334   23441603.3794
      2955.2974       2302.8294
     78704.52647     69950.78247  20354754.2504   20354756.5944
      -837.4374       -652.5494
  -3421607.08547  -2649487.91647  20676582.2034   20676585.4144
       752.1094        586.0594
  -8866878.72446  -6849936.78346  22209863.6954   22209866.5314
      2362.0784       1840.5804
    302383.041 5    235621.413 5  23481167.828    23481163.969
      -987.219        -769.261
   6202113.77747   4792012.74846  21852476.2504   21852478.6644
     -2221.7194      -1731.2094
 95  4 11 17  5  0.0000000  0  7G31G 2G18G19G27G28G29
  -7769128.30546  -5978508.06646  21781969.9774   21781973.1054
      1284.7034       1001.0674
  -5115264.30846  -3869631.39645  23433166.8754   23433171.7624
      2952.8284       2300.9054
     91320.21947     79781.18647  20357154.6644   20357157.1604
      -844.5624       -658.1014
  -3432873.33347  -2658266.81247  20674438.2584   20674441.5394
       750.0784        584.4764
  -8902304.89346  -6877541.58346  22203122.3444   22203125.2624
      2361.5474       1840.1664
    317249.289 5    247205.493 5  23483996.434    23483993.391
      -994.859        -775.215
   6235477.24946   4818010.24946  21858825.3364   21858827.6214
     -2226.6414      -1735.0454
 95  4 11 17  5 15.0000000  0  7G31G 2G18G19G27G28G29
  -7788333.58046  -5993473.21246  21778315.1174   21778318.2114
      1276.0634        994.3344
  -5159533.63845  -3904126.96945  23424742.5784   23424747.9574
      2949.7194       2298.4824
    104044.29247     89696.03947  20359576.0084   20359578.5634
      -852.0164       -663.9084
  -3444104.88947  -2667018.67447  20672301.2734   20672304.6134
       747.4384        582.4194
  -8937722.41746  -6905139.65046  22196382.8594   22196385.8484
      2360.8134       1839.5944
    332231.949 5    258880.296 5  23486847.340    23486844.320
     -1002.844        -781.437
   6268915.52046   4844066.02946  21865188.5164   21865191.0594
     -2231.8124      -1739.0754
 95  4 11 17  5 30.0000000  0  7G31G 2G18G19G27G28G29
  -7807412.92946  -6008340.23246  21774684.5944   21774687.5474
      1267.8284        987.9184
  -5203757.29845  -3938586.94145  23416326.5314   23416331.5474
      2946.7034       2296.1324
    116878.33747     99696.58247  20362018.2114   20362020.7774
      -859.1564       -669.4724
  -3455298.41747  -2675740.90147  20670171.0234   20670174.2234
       745.0474        580.5564
  -8973133.21446  -6932732.47546  22189644.4454   22189647.5514
      2360.6414       1839.4604
    347332.488 5    270646.942 5  23489721.148    23489717.969
     -1010.531        -787.427
   6302428.89646   4870180.33246  21871566.1094   21871568.5474
     -2236.6414      -1742.8374
 95  4 11 17  5 45.0000000  0  7G31G 2G18G19G27G28G29
  -7826366.37746  -6023109.15546  21771078.0554   21771080.8914
      1259.4064        981.3564
  -5247930.72245  -3973007.78445  23407921.0394   23407926.3014
      2943.2344       2293.4294
    129818.67947    109779.95447  20364480.5784   20364483.0164
      -866.0784       -674.8664
  -3466456.94747  -2684435.85747  20668047.7894   20668051.2234
       742.9694        578.9374
  -9008540.12446  -6960322.27246  22182906.5164   22182909.5864
      2360.4694       1839.3264
    362549.892 5    282504.666 5  23492617.309    23492613.797
     -1018.266        -793.454
   6336017.19246   4896353.01346  21877957.7274   21877960.3054
     -2241.6414      -1746.7334
 95  4 11 17  6  0.0000000  0  7G31G 2G18G19G27G28G29
  -7845190.32546  -6037777.16046  21767495.8524   21767498.5824
      1250.4384        974.3674
  -5292051.21045  -4007387.36445  23399525.4924   23399530.9774
      2939.5314       2290.5444
    142863.17447    119944.49047  20366962.7894   20366964.9694
      -873.2034       -680.4184
  -3477586.43647  -2693108.18947  20665929.7504   20665933.2074
       740.9224        577.3424
  -9043944.57446  -6987910.14346  22176169.4384   22176172.5204
      2360.0314       1838.9854
    377883.390 5    294452.846 5  23495535.566    23495531.602
     -1026.187        -799.627
   6369680.27746   4922583.97046  21884363.5084   21884366.0514
     -2246.7504      -1750.7144
 95  4 11 17  6 15.0000000  0  7G31G 2G18G19G27G28G29
  -7863881.21146  -6052341.48346  21763938.9304   21763941.8834
      1241.7344        967.5854
  -5336118.99145  -4041725.89045  23391139.0864   23391144.2544
      2936.2194       2287.9634
    156012.08147    130190.38647  20369465.1174   20369467.1804
      -879.9534       -685.6784
  -3488685.47447  -2701756.78647  20663817.7194   20663821.1994
       738.9694        575.8204
  -9079341.60746  -7015492.24146  22169433.1484   22169436.4534
      2359.5784       1838.6324
    393333.635 5    306491.997 5  23498475.957    23498471.852
     -1033.844        -805.593
   6403418.54047   4948873.51346  21890783.8134   21890786.1454
     -2251.7194      -1754.5864
 95  4 11 17  6 30.0000000  0  7G31G 2G18G19G27G28G29
  -7882440.41446  -6066803.20046  21760407.2504   21760410.4964
      1232.9844        960.7674
  -5380137.15845  -4076025.73945  23382762.5314   23382767.9344
      2933.0004       2285.4554
    169263.69147    140516.31047  20371986.6724   20371988.8164
      -886.8124       -691.0234
  -3499753.54347  -2710381.25447  20661711.7504   20661715.2664
       736.9064        574.2134
  -9114730.19846  -7043067.76446  22162699.0474   22162702.3164
      2359.0314       1838.2064
    408900.466 5    318621.989 5  23501438.215    23501434.023
     -1041.641        -811.668
   6437232.29746   4975221.88546  21897218.1724   21897220.3984
     -2256.7034      -1758.4704
 95  4 11 17  6 45.0000000  0  7G31G 2G18G19G27G28G29
  -7900871.33746  -6081164.95046  21756899.4534   21756902.9224
      1224.4844        954.1444
  -5424110.05845  -4110290.31945  23374394.5634   23374400.2464
      2930.0784       2283.1784
    182617.24547    150921.66847  20374527.7734   20374529.9304
      -893.6564       -696.3564
  -3510794.08047  -2718984.27047  20659610.6094   20659614.0314
       735.2344        572.9104
  -9150112.96346  -7070638.74046  22155965.9614   22155969.3134
      2358.7194       1837.9634
    424581.874 5    330841.259 5  23504422.254    23504418.367
     -1049.156        -817.524
   6471115.96947   5001624.73546  21903666.3284   21903668.7074
     -2261.0004      -1761.8184
 95  4 11 17  7  0.0000000  0  7G31G 2G18G19G27G28G29
  -7919175.33546  -6095427.80146  21753416.3134   21753420.3324
      1216.2504        947.7274
  -5468039.41745  -4144520.94845  23366035.2734   23366041.2384
      2927.2974       2281.0114
    196073.78147    161407.27047  20377088.6724   20377090.8404
      -900.5164       -701.7004
  -3521811.52447  -2727569.29347  20657514.1484   20657517.5004
       733.9064        571.8754
  -9185491.22646  -7098206.21846  22149233.9384   22149237.1844
      2358.5634       1837.8414
    440375.418 4    343147.904 5  23507427.406    23507423.516
     -1056.500        -823.247
   6505061.92247   5028076.11246  21910125.6094   21910128.0704
     -2265.0164      -1764.9474
 95  4 11 17  7 15.0000000  0  7G31G 2G18G19G27G28G29
  -7937352.52546  -6109591.84846  21749957.7504   21749961.3134
      1207.4694        940.8854
  -5511921.91045  -4178715.09845  23357684.4144   23357690.0514
      2923.8284       2278.3084
    209641.34647    171979.39147  20379670.6644   20379672.7854
      -908.4224       -707.8614
  -3532804.44347  -2736135.20147  20655422.2814   20655425.5274
       731.9534        570.3534
  -9220864.25146  -7125769.60646  22142502.7814   22142505.9104
      2358.0164       1837.4154
    456283.876 4    355544.098 5  23510454.258    23510450.688
     -1064.500        -829.481
   6539074.69146   5054579.55146  21916598.1174   21916600.6724
     -2269.9534      -1768.7954
 95  4 11 17  7 30.0000000  0  7G31G 2G18G19G27G28G29
  -7955402.86546  -6123657.03846  21746522.8674   21746526.2304
      1199.1564        934.4074
  -5555757.39746  -4212872.60345  23349343.3444   23349348.1844
      2920.8594       2275.9944
    223323.33147    182640.67347  20382274.2344   20382276.4144
      -915.9694       -713.7424
  -3543774.20447  -2744683.06947  20653334.7734   20653337.9734
       730.5944        569.2944
  -9256235.13846  -7153331.33546  22135771.8204   22135774.6804
      2358.0004       1837.4034
    472306.850 4    368029.522 5  23513503.414    23513499.391
     -1072.047        -835.361
   6573156.94246   5081137.13946  21923083.7344   21923086.3834
     -2274.5164      -1772.3504
 95  4 11 17  7 45.0000000  0  7G31G 2G18G19G27G28G29
  -7973325.50846  -6137622.72746  21743112.3524   21743115.7154
      1190.5634        927.7114
  -5599547.32146  -4246994.60445  23341010.7734   23341015.6254
      2917.8594       2273.6574
    237121.64547    193392.59447  20384899.7504   20384902.0234
      -923.7664       -719.8174
  -3554723.05347  -2753214.63547  20651251.2664   20651254.5234
       729.3134        568.2954
  -9291603.52346  -7180891.10646  22129041.5864   22129044.6214
      2357.8134       1837.2564
    488444.650 4    380604.414 5  23516574.344    23516570.203
     -1079.625        -841.266
   6607311.15346   5107750.79046  21929582.9694   21929585.7464
     -2279.3444      -1776.1124
 95  4 11 17  8  0.0000000  0  7G31G 2G18G19G27G28G29
  -7991119.77346  -6151488.38446  21739726.2734   21739729.6484
      1181.9384        920.9904
  -5643293.40646  -4281082.45345  23332685.9064   23332690.4774
      2914.9384       2271.3804
    251037.74547    204236.30247  20387547.6884   20387550.1724
      -931.7974       -726.0754
  -3565652.95447  -2761731.44047  20649171.5944   20649174.7584
       727.9224        567.2124
  -9326967.27446  -7208447.27146  22122312.1024   22122314.7974
      2357.3284       1836.8794
    504696.203 4    393267.949 5  23519667.031    23519662.852
     -1087.297        -847.244
   6641538.24946   5134421.23846  21936096.1644   21936099.2704
     -2284.2974      -1779.9724
 95  4 11 17  8 15.0000000  0  7G31G 2G18G19G27G28G29
  -8008784.24146  -6165252.90146  21736364.4924   21736367.5394
      1173.2974        914.2574
  -5686997.64346  -4315137.68245  23324369.4844   23324373.7734
      2912.2504       2269.2864
    265074.77647    215174.24347  20390219.0394   20390221.6174
      -939.8754       -732.3704
  -3576559.92747  -2770230.38147  20647096.0784   20647099.2544
       726.2664        565.9214
  -9362322.37146  -7235996.69446  22115584.3134   22115587.3014
      2356.6254       1836.3314
    521062.619 4    406020.977 5  23522781.379    23522777.641
     -1094.922        -853.186
   6675839.49746   5161149.46446  21942623.6564   21942626.5744
     -2289.2664      -1783.8434
 95  4 11 17  8 30.0000000  0  7G31G 2G18G19G27G28G29
  -8026321.75946  -6178918.49146  21733027.3364   21733030.4534
      1165.0634        907.8414
  -5730663.96746  -4349163.36445  23316059.9454   23316064.1764
      2909.9064       2267.4594
    279232.03447    226205.86547  20392913.0864   20392915.4304
      -947.7504       -738.5064
  -3587443.18247  -2778710.83947  20645024.7974   20645027.9264
       724.8444        564.8134
  -9397670.27746  -7263540.50546  22108857.5864   22108860.6454
      2356.5004       1836.2344
    537541.933 5    418861.990 5  23525917.105    23525914.242
     -1102.328        -858.957
   6710213.89246   5187934.69046  21949164.8284   21949167.4184
     -2294.0004      -1787.5324
 95  4 11 17  8 45.0000000  0  7G31G 2G18G19G27G28G29
  -8043736.08646  -6192488.09146  21729713.5554   21729716.4384
      1156.8444        901.4374
  -5774294.68246  -4383161.31045  23307757.7664   23307761.9494
      2907.4384       2265.5364
    293508.62347    237330.47447  20395629.9844   20395632.3874
      -955.7814       -744.7654
  -3598304.45447  -2787174.16847  20642958.0704   20642961.2344
       723.2504        563.5714
  -9433017.17746  -7291083.53346  22102131.3674   22102134.4494
      2356.3914       1836.1494
    554132.514 5    431789.704 5  23529074.176    23529071.383
     -1109.797        -864.777
   6744660.60946   5214776.27646  21955719.9614   21955722.5514
     -2298.9534      -1791.3924
 95  4 11 17  9  0.0000000  0  7G31G 2G18G19G27G28G29
  -8061025.48746  -6205960.35246  21726423.4144   21726426.3444
      1148.4384        894.8864
  -5817884.33446  -4417127.25045  23299462.3134   23299466.5204
      2904.5314       2263.2714
    307905.66547    248548.94447  20398369.5554   20398371.7114
      -963.7344       -750.9624
  -3609136.97747  -2795615.09647  20640896.6484   20640899.9884
       721.0784        561.8794
  -9468359.76046  -7318623.20146  22095405.5164   22095408.6334
      2355.9694       1835.8204
    570836.865 5    444806.077 5  23532252.832    23532250.094
     -1117.453        -870.743
   6779183.37446   5241677.12246  21962289.6564   21962292.1054
     -2304.0474      -1795.3614
 95  4 11 17  9 15.0000000  0  7G31G 2G18G19G27G28G29
  -8078192.06546  -6219336.89646  21723156.6254   21723159.9654
      1140.4694        888.6774
  -5861431.42646  -4451060.03445  23291176.0004   23291179.8094
      2901.7344       2261.0924
    322419.52247    259858.43347  20401131.5084   20401133.6524
      -971.4224       -756.9524
  -3619936.20347  -2804030.07647  20638841.6414   20638844.9224
       718.8594        560.1504
  -9503697.64746  -7346159.20946  22088681.0864   22088684.2734
      2355.8594       1835.7354
    587655.095 5    457911.186 5  23535453.207    23535450.039
     -1124.937        -876.575
   6813782.96946   5268637.82446  21968873.9144   21968876.5634
     -2309.1724      -1799.3554
 95  4 11 17  9 30.0000000  0  7G31G 2G18G19G27G28G29
  -8095236.39746  -6232618.19246  21719912.9304   21719916.4344
      1131.9534        882.0414
  -5904934.21946  -4484958.29945  23282897.5084   23282901.3524
      2898.5474       2258.6084
    337047.02847    271256.48647  20403915.0784   20403917.4804
      -978.9694       -762.8334
  -3630700.21047  -2812417.61647  20636793.5004   20636796.8054
       716.2194        558.0934
  -9539034.22646  -7373694.19846  22081956.4694   22081959.5274
      2355.5314       1835.4794
    604585.718 5    471103.872 5  23538675.277    23538671.633
     -1132.594        -882.541
   6848459.03846   5295658.11446  21975472.4534   21975475.2544
     -2314.3284      -1803.3734
 95  4 11 17  9 45.0000000  0  7G31G 2G18G19G27G28G29
  -8112149.44246  -6245797.18246  21716695.3364   21716698.7934
      1123.2194        875.2354
  -5948387.62746  -4518818.08445  23274628.7034   23274632.9104
      2895.4064       2256.1614
    351788.13747    282743.05847  20406719.9144   20406722.4694
      -986.3284       -768.5674
  -3641421.36447  -2820771.76047  20634753.4304   20634756.7114
       713.4224        555.9134
  -9574360.61246  -7401221.24646  22075233.9774   22075237.4104
      2354.7814       1834.8944
    621633.800 5    484388.074 5  23541919.422    23541915.570
     -1140.344        -888.580
   6883213.27846   5322739.31046  21982085.8754   21982088.8404
     -2319.4534      -1807.3664
 95  4 11 17  9 59.9990000  0  7G31G 2G18G19G27G28G29
  -8128931.85046  -6258874.37446  21713501.6834   21713504.6124
      1114.5314        868.4664
  -5991792.94746  -4552640.39945  23266368.7144   23266372.4524
      2892.3134       2253.7504
    366634.21147    294311.42147  20409545.0424   20409547.6554
      -993.2974       -773.9984
  -3652102.20547  -2829094.49447  20632720.6984   20632723.9334
       710.7344        553.8194
  -9609675.61746  -7428739.42746  22068513.7764   22068517.2924
      2354.1094       1834.3714
    638793.886 5    497759.546 5  23545185.198    23545181.214
     -1147.937        -894.497
   6918038.52546   5349875.84646  21988712.9254   21988715.8554
     -2324.3124      -1811.1534
 95  4 11 17 10 14.9990000  0  7G31G 2G18G19G27G28G29
  -8145584.16946  -6271850.19646  21710332.6834   21710335.7884
      1105.7664        861.6364
  -6035154.64146  -4586428.70845  23258116.8944   23258121.0654
      2889.2664       2251.3764
    381585.32847    305961.63447  20412390.3234   20412392.9724
     -1000.1874       -779.3674
  -3662741.46347  -2837384.82747  20630696.1054   20630699.4444
       707.8284        551.5544
  -9644981.60646  -7456250.58146  22061795.2844   22061798.6014
      2353.4224       1833.8354
    656070.071 5    511221.489 5  23548473.003    23548468.901
     -1155.594        -900.463
   6952940.80346   5377072.40446  21995354.5894   21995357.2724
     -2329.3444      -1815.0734
 95  4 11 17 10 29.9990000  0  7G31G 2G18G19G27G28G29
  -8162107.64246  -6284725.61646  21707188.3154   21707191.4804
      1097.4224        855.1344
  -6078472.56246  -4620182.90845  23249873.9564   23249877.9054
      2886.4534       2249.1844
    396638.22447    317691.15747  20415254.7694   20415257.4994
     -1006.8594       -784.5664
  -3673339.28247  -2845642.86747  20628679.0894   20628682.5114
       705.2504        549.5454
  -9680280.41646  -7483756.13646  22055078.2694   22055081.2454
      2353.1414       1833.6164
    673459.386 5    524771.590 5  23551782.433    23551777.933
     -1162.953        -906.197
   6987916.07046   5404325.83946  22002010.5894   22002012.9914
     -2334.0164      -1818.7134
 95  4 11 17 10 44.9990000  0  7G31G 2G18G19G27G28G29
  -8178504.37346  -6297502.27346  21704068.2454   21704071.4094
      1088.8594        848.4624
  -6121744.25146  -4653901.09745  23241639.5654   23241643.5734
      2883.1414       2246.6034
    411793.86647    329500.74547  20418138.9404   20418141.7304
     -1013.8444       -790.0084
  -3683896.32347  -2853869.13247  20626670.2924   20626673.7374
       702.4064        547.3304
  -9715572.20746  -7511256.23446  22048362.7454   22048365.7804
      2352.4384       1833.0684
    690961.993 5    538409.965 5  23555113.370    23555108.394
     -1170.703        -912.236
   7022964.47046   5431636.26246  22008679.9334   22008682.2064
     -2339.0944      -1822.6704
 95  4 11 17 10 59.9990000  0  7G31G 2G18G19G27G28G29
  -8194773.92246  -6310179.83646  21700972.0034   21700975.0734
      1080.3134        841.8024
  -6164967.60546  -4687581.61145  23233414.5584   23233418.5424
      2879.9384       2244.1074
    427050.51047    341389.02847  20421042.0114   20421044.8234
     -1020.4064       -795.1224
  -3694414.62447  -2862065.21247  20624668.7304   20624672.0344
       700.0004        545.4554
  -9750853.54546  -7538748.17646  22041648.8394   22041651.6874
      2351.6564       1832.4594
    708578.100 5    552136.791 5  23558465.655    23558460.401
     -1178.156        -918.044
   7058086.40446   5459003.98146  22015363.1834   22015365.6444
     -2343.8594      -1826.3844
 95  4 11 17 11 14.9990000  0  7G31G 2G18G19G27G28G29
  -8210912.99346  -6322755.72146  21697900.6904   21697903.9014
      1071.5474        834.9724
  -6208142.76246  -4721224.57445  23225198.3784   23225202.0814
      2876.7974       2241.6604
    442408.31347    353356.14147  20423964.7304   20423967.5654
     -1027.3284       -800.5154
  -3704897.68547  -2870233.83047  20622674.4014   20622677.6834
       697.7814        543.7264
  -9786121.23846  -7566229.48646  22034937.9484   22034940.6204
      2350.6884       1831.7054
    726306.774 5    565951.329 5  23561839.140    23561834.206
     -1185.672        -923.900
   7093279.94046   5486427.49946  22022060.3554   22022063.0264
     -2348.6254      -1830.0974
 95  4 11 17 11 29.9990000  0  7G31G 2G18G19G27G28G29
  -8226917.65946  -6335226.88646  21694855.4334   21694858.6084
      1062.4384        827.8734
  -6251270.08646  -4754830.26445  23216991.3154   23216995.6054
      2873.6254       2239.1884
    457873.46747    365406.90247  20426907.7064   20426910.4374
     -1034.5944       -806.1774
  -3715349.46047  -2878378.07347  20620685.3394   20620688.4804
       695.9064        542.2654
  -9821372.99446  -7593698.37646  22028229.8084   22028232.6084
      2349.6724       1830.9134
    744149.525 5    579854.756 5  23565234.394    23565229.847
     -1193.234        -929.793
   7128549.12346   5513909.96046  22028771.6904   22028774.7494
     -2353.8284      -1834.1524
 95  4 11 17 11 44.9990000  0  7G31G 2G18G19G27G28G29
  -8242784.81446  -6347590.88746  21691835.7304   21691839.1164
      1053.2504        820.7144
  -6294351.44246  -4788400.14345  23208793.3624   23208797.3944
      2870.6094       2236.8384
    473446.56447    377541.77647  20429871.0424   20429873.8434
     -1041.8594       -811.8384
  -3725773.63947  -2886500.81047  20618701.5114   20618704.7694
       694.0474        540.8164
  -9856608.24246  -7621154.40346  22021524.7764   22021527.5074
      2348.3754       1829.9034
    762105.749 5    593846.606 5  23568651.003    23568647.230
     -1200.922        -935.783
   7163897.14646   5541453.85146  22035498.1834   22035501.2064
     -2359.2034      -1838.3404
 95  4 11 17 11 59.9990000  0  7G31G 2G18G19G27G28G29
  -8258516.68046  -6359849.46846  21688842.1514   21688845.3974
      1044.2974        813.7384
  -6337388.89746  -4821935.80145  23200603.4174   23200608.1514
      2867.6254       2234.5134
    489130.48247    389762.99947  20432855.5814   20432858.4524
     -1049.4064       -817.7194
  -3736172.48347  -2894603.80747  20616722.5734   20616726.0194
       692.4064        539.5374
  -9891825.35746  -7648596.30246  22014822.8624   22014825.5464
      2347.2504       1829.0264
    780175.806 5    607927.159 5  23572089.589    23572085.870
     -1208.484        -941.676
   7199327.31146   5569061.75446  22042240.2144   22042243.1204
     -2364.8754      -1842.7604
 95  4 11 17 12 14.9990000  0  7G31G 2G18G19G27G28G29
  -8274115.69746  -6372004.53546  21685873.7304   21685876.8704
      1035.5004        806.8834
  -6380381.91346  -4855436.83645  23192422.2064   23192427.0694
      2864.7344       2232.2614
    504928.52247    402073.14847  20435861.6674   20435864.5854
     -1057.1254       -823.7344
  -3746547.19547  -2902687.99947  20614748.3084   20614751.7414
       690.7974        538.2834
  -9927027.56846  -7676026.59146  22008124.0424   22008127.0194
      2346.2814       1828.2714
    798358.856 5    622095.755 5  23575549.663    23575545.894
     -1216.016        -947.545
   7234840.66246   5596734.47446  22048998.2924   22049001.1754
     -2370.3594      -1847.0334
 95  4 11 17 12 29.9990000  0  7G31G 2G18G19G27G28G29
  -8289582.58846  -6384056.64446  21682930.8154   21682933.7574
      1026.7344        800.0534
  -6423330.84646  -4888903.52245  23184249.5584   23184254.0584
      2861.7814       2229.9594
    520843.90347    414474.73347  20438890.4804   20438893.3744
     -1064.9064       -829.7974
  -3756896.62947  -2910752.49547  20612779.1904   20612782.5074
       689.1414        536.9934
  -9962214.71246  -7703445.14346  22001427.8314   22001430.9374
      2345.3594       1827.5534
    816654.437 5    636352.045 5  23579031.284    23579027.323
     -1223.406        -953.304
   7270436.13446   5624471.18946  22055772.0344   22055774.9644
     -2375.7034      -1851.1974
 95  4 11 17 12 44.9990000  0  7G31G 2G18G19G27G28G29
  -8304916.77846  -6396005.34646  21680012.6514   21680015.4404
      1017.7974        793.0884
  -6466232.88846  -4922333.67245  23176085.4334   23176089.9094
      2858.5314       2227.4274
    536877.03247    426968.07547  20441941.4254   20441944.2264
     -1072.7194       -835.8854
  -3767219.62547  -2918796.38747  20610814.8084   20610818.3004
       687.3284        535.5804
  -9997385.72446  -7730851.11846  21994735.3084   21994738.4254
      2344.1414       1826.6034
    835061.610 5    650695.292 5  23582534.155    23582529.940
     -1230.922        -959.160
   7306111.92846   5652270.48846  22062561.0344   22062564.1514
     -2381.0314      -1855.3494
 95  4 11 17 12 59.9990000  0  7G31G 2G18G19G27G28G29
  -8320117.08246  -6407849.72046  21677119.8314   21677122.8904
      1008.7664        786.0514
  -6509088.70446  -4955727.79545  23167930.6284   23167935.3974
      2855.4694       2225.0414
    553023.37547    439549.63447  20445013.9254   20445016.7964
     -1080.2664       -841.7654
  -3777517.84347  -2926820.97447  20608854.9564   20608858.4484
       685.6254        534.2534
 -10032540.79446  -7758244.67046  21988045.4094   21988048.9374
      2343.1254       1825.8124
    853579.314 5    665124.670 5  23586057.897    23586053.542
     -1238.250        -964.870
   7341866.57546   5680131.23246  22069364.6834   22069367.8474
     -2386.3444      -1859.4894
 95  4 11 17 13 14.9990000  0  7G31G 2G18G19G27G28G29
  -8335180.56746  -6419587.49246  21674253.6054   21674256.9684
       999.7344        779.0144
  -6551896.62546  -4989084.60545  23159784.3944   23159789.2804
      2852.2504       2222.5324
    569286.03747    452221.82947  20448108.5974   20448111.5624
     -1088.1414       -847.9024
  -3787788.00447  -2934823.69747  20606900.6124   20606904.2224
       683.7034        532.7564
 -10067679.81446  -7785625.72446  21981358.4564   21981361.7144
      2342.1414       1825.0454
    872208.863 5    679641.197 5  23589603.175    23589598.894
     -1245.672        -970.653
   7377702.01146   5708054.92446  22076183.7304   22076186.9994
     -2391.6564      -1863.6284
 95  4 11 17 13 29.9990000  0  7G31G 2G18G19G27G28G29
  -8350108.47446  -6431219.61446  21671412.9804   21671415.8974
       990.7504        772.0134
  -6594655.80046  -5022403.41845  23151647.5654   23151652.1474
      2848.9844       2219.9884
    585668.73647    464987.56647  20451226.4564   20451229.3974
     -1096.1254       -854.1234
  -3798026.33747  -2942801.61647  20604952.2844   20604955.9994
       681.4384        530.9904
 -10102804.84646  -7812995.86846  21974674.5424   21974677.5424
      2341.2974       1824.3874
    890951.561 5    694245.885 5  23593169.550    23593165.386
     -1253.281        -976.583
   7413618.22546   5736041.56246  22083018.9014   22083021.9374
     -2397.1094      -1867.8774
 95  4 11 17 13 44.9990000  0  7G31G 2G18G19G27G28G29
  -8364902.86946  -6442747.70446  21668597.2454   21668600.3394
       981.9694        765.1704
  -6637364.97346  -5055683.28145  23143520.5974   23143525.7064
      2845.6724       2217.4074
    602168.86747    477844.80447  20454366.2144   20454369.2374
     -1103.8124       -860.1144
  -3808230.89947  -2950753.22647  20603010.5504   20603014.0894
       679.2194        529.2614
 -10137919.93046  -7840358.27146  21967992.4644   21967995.4994
      2340.7974       1823.9984
    909807.131 5    708938.527 5  23596757.640    23596753.581
     -1260.719        -982.378
   7449614.53346   5764090.61146  22089868.6594   22089871.6364
     -2402.2664      -1871.8954
 95  4 11 17 13 59.9990000  0  7G31G 2G18G19G27G28G29
  -8379567.49546  -6454174.68446  21665806.9094   21665809.9444
       973.2974        758.4134
  -6680025.14646  -5088924.95645  23135402.2304   23135406.9524
      2842.3444       2214.8134
    618783.59247    490791.33647  20457527.8624   20457530.8744
     -1111.5314       -866.1284
  -3818401.34447  -2958678.24747  20601075.3474   20601078.7694
       676.8754        527.4354
 -10173028.63046  -7867715.69046  21961311.5654   21961314.6014
      2340.3914       1823.6814
    928773.744 5    723717.698 5  23600366.687    23600363.089
     -1268.172        -988.186
   7485684.19146   5792196.81746  22096732.6284   22096735.4644
     -2407.0004      -1875.5844
 95  4 11 17 14 14.9990000  0  7G31G 2G18G19G27G28G29
  -8394100.54346  -6465499.11946  21663041.7064   21663044.6714
       964.5164        751.5714
  -6722634.37246  -5122126.93045  23127294.1204   23127298.7724
      2839.0004       2212.2084
    635513.75847    503827.82247  20460711.5504   20460714.6084
     -1119.0164       -871.9604
  -3828536.16847  -2966575.51247  20599146.5584   20599149.8044
       674.5004        525.5844
 -10208131.64246  -7895068.68146  21954631.5034   21954634.5154
      2340.1254       1823.4744
    947851.899 5    738583.786 5  23603997.218    23603993.722
     -1275.484        -993.884
   7521823.55446   5820357.33946  22103610.0114   22103612.8584
     -2411.4694      -1879.0674
 95  4 11 17 14 29.9990000  0  7G31G 2G18G19G27G28G29
  -8408502.23046  -6476721.20646  21660301.2304   21660303.8784
       955.7344        744.7284
  -6765195.37246  -5155291.31945  23119194.8004   23119199.7924
      2835.7974       2209.7124
    652354.20947    516950.24247  20463916.2374   20463919.0154
     -1126.3284       -877.6584
  -3838636.26347  -2974445.71747  20597224.6834   20597228.0464
       672.1724        523.7704
 -10243230.88346  -7922418.73346  21947952.2144   21947955.2264
      2339.7814       1823.2064
    967039.691 5    753535.312 5  23607648.210    23607645.065
     -1282.875        -999.643
   7558027.74546   5848568.37546  22110499.6594   22110502.4134
     -2415.7664      -1882.4154
 95  4 11 17 14 44.9990000  0  7G31G 2G18G19G27G28G29
  -8422773.81246  -6487841.91246  21657585.3314   21657587.8624
       947.0314        737.9464
  -6807708.84746  -5188418.68645  23111104.5194   23111108.7024
      2832.5784       2207.2044
    669301.36847    530155.81347  20467141.3864   20467144.0814
     -1133.4064       -883.1744
  -3848702.13647  -2982289.25447  20595308.6904   20595312.2304
       669.8914        521.9934
 -10278326.89246  -7949766.26446  21941273.9254   21941276.9834
      2339.5784       1823.0484
    986337.075 5    768572.226 5  23611320.315    23611317.019
     -1290.234       -1005.377
   7594295.68646   5876829.08946  22117401.0424   22117403.7024
     -2420.0624      -1885.7634
 95  4 11 17 14 59.9990000  0  7G31G 2G18G19G27G28G29
  -8436915.92046  -6498861.72746  21654894.0654   21654896.6554
       938.5474        731.3354
  -6850177.18846  -5221510.89245  23103023.2534   23103027.7184
      2829.8284       2205.0614
    686352.71547    543442.56747  20470385.9094   20470388.6284
     -1140.2344       -888.4944
  -3858738.18847  -2990109.55747  20593398.9644   20593402.4564
       668.2194        520.6904
 -10313422.60646  -7977113.56446  21934595.5264   21934598.5154
      2339.7974       1823.2184
   1005743.172 5    783693.852 5  23615013.261    23615009.542
     -1297.297       -1010.881
   7630625.57246   5905138.06746  22124314.3704   22124317.3004
     -2424.0164      -1888.8434
 95  4 11 17 15 14.9990000  0  7G31G 2G18G19G27G28G29
  -8450930.19146  -6509781.92346  21652226.8474   21652229.6014
       929.9384        724.6274
  -6892602.46346  -5254569.52845  23094950.1754   23094954.4994
      2826.7504       2202.6624
    703510.14547    556811.98347  20473650.8394   20473653.6514
     -1147.5624       -894.2054
  -3868748.08347  -2997909.47447  20591494.2924   20591497.7724
       666.2974        519.1924
 -10348521.37046  -8004463.24546  21927916.3474   21927919.4054
      2339.9064       1823.3044
   1025256.831 5    798899.290 5  23618726.796    23618723.198
     -1304.594       -1016.567
   7667015.90546   5933494.14546  22131239.0894   22131241.9254
     -2428.1254      -1892.0454
 95  4 11 17 15 29.9990000  0  7G31G 2G18G19G27G28G29
  -8464815.78746  -6520601.86446  21649584.4874   21649587.8044
       921.5474        718.0884
  -6934981.73446  -5287592.32345  23086885.3084   23086890.4054
      2823.9384       2200.4714
    720777.39047    570266.96847  20476936.7374   20476939.3864
     -1154.5314       -899.6354
  -3878728.96847  -3005686.78847  20589595.4644   20589598.7104
       664.5784        517.8534
 -10383622.37846  -8031814.67546  21921236.7224   21921239.7454
      2340.3444       1823.6444
   1044879.879 5    814189.973 5  23622461.144    23622457.355
     -1311.672       -1022.082
   7703466.35046   5961897.06546  22138175.1444   22138177.9684
     -2431.7974      -1894.9074
 95  4 11 17 15 44.9990000  0  7G31G 2G18G19G27G28G29
  -8478572.87546  -6531321.67046  21646966.8394   21646969.9684
       912.7034        711.1974
  -6977319.51046  -5320582.77445  23078828.5264   23078833.2144
      2821.0944       2198.2554
    738146.90247    583801.64447  20480241.8554   20480244.5624
     -1161.4064       -904.9924
  -3888682.93947  -3013443.12847  20587701.1444   20587704.2374
       662.6564        516.3564
 -10418728.35146  -8059169.97446  21914556.4724   21914559.4724
      2340.5004       1823.7664
   1064609.251 5    829563.492 5  23626215.901    23626212.050
     -1318.906       -1027.719
   7739972.86646   5990343.67646  22145121.9564   22145125.2964
     -2435.7344      -1897.9754
 95  4 11 17 15 59.9990000  0  7G31G 2G18G19G27G28G29
  -8492196.62346  -6541937.56346  21644374.0974   21644377.2724
       903.8284        704.2824
  -7019614.53746  -5353539.91845  23070779.8704   23070784.8864
      2818.3134       2196.0884
    755619.86147    597416.92747  20483567.1514   20483569.9994
     -1168.2814       -910.3494
  -3898607.87247  -3021176.84247  20585812.3474   20585815.5814
       660.7034        514.8344
 -10453835.91247  -8086526.50746  21907875.9334   21907878.8864
      2340.5164       1823.7784
   1084446.948 5    845021.432 5  23629990.530    23629986.972
     -1326.062       -1033.295
   7776537.91946   6018835.90046  22152080.3864   22152083.6794
     -2439.5474      -1900.9464
 95  4 11 17 16 14.9990000  0  7G31G 2G18G19G27G28G29
  -8505687.81446  -6552450.17746  21641806.7304   21641809.8704
       894.8444        697.2814
  -7061869.48346  -5386465.83445  23062738.7924   23062744.0074
      2815.5314       2193.9204
    773192.83947    611110.14847  20486911.1834   20486914.2654
     -1174.9374       -915.5364
  -3908503.68247  -3028887.85847  20583928.9874   20583932.2334
       658.6724        513.2514
 -10488943.68046  -8113883.20546  21901194.9334   21901197.9214
      2340.3754       1823.6694
   1104390.216 5    860561.628 5  23633785.269    23633781.901
     -1333.203       -1038.860
   7813158.54146   6047371.42846  22159049.0584   22159051.9764
     -2443.3914      -1903.9414
 95  4 11 17 16 29.9990000  0  7G31G 2G18G19G27G28G29
  -8519043.39346  -6562857.11846  21639265.8004   21639268.8354
       885.9064        690.3174
  -7104081.16846  -5419358.03645  23054706.3624   23054711.4604
      2812.6724       2191.6924
    790866.22947    624881.60747  20490274.3394   20490277.2694
     -1181.5474       -920.6864
  -3918367.75147  -3036574.14847  20582051.8154   20582055.2144
       656.5474        511.5954
 -10524047.68446  -8141236.96347  21894514.6204   21894517.6794
      2340.1564       1823.4984
   1124441.050 4    876185.642 5  23637600.616    23637597.097
     -1340.328       -1044.412
   7849839.34946   6075953.84846  22166029.1514   22166032.0584
     -2447.4224      -1907.0824
 95  4 11 17 16 44.9990000  0  7G31G 2G18G19G27G28G29
  -8532265.05846  -6573159.70946  21636749.9954   21636752.7264
       877.0004        683.3774
  -7146248.29446  -5452215.52445  23046682.0584   23046687.4254
      2809.6254       2189.3184
    808640.48847    638731.67247  20493656.6754   20493659.3704
     -1188.3444       -925.9824
  -3928199.78947  -3044235.47347  20580180.7844   20580184.2764
       654.3754        509.9034
 -10559147.53646  -8168587.49147  21887835.5584   21887838.7104
      2339.8754       1823.2794
   1144599.672 4    891893.646 5  23641436.515    23641432.815
     -1347.453       -1049.963
   7886580.94946   6104583.64346  22173020.8864   22173024.1904
     -2451.4694      -1910.2354
 95  4 11 17 16 59.9990000  0  7G31G 2G18G19G27G28G29
  -8545351.54246  -6583356.97146  21634259.3004   21634262.0774
       867.8284        676.2304
  -7188368.57646  -5485036.51545  23038667.1204   23038672.6404
      2806.3754       2186.7864
    826517.73747    652661.98947  20497058.5654   20497061.2024
     -1195.3444       -931.4374
  -3937997.71947  -3051870.22247  20578316.5814   20578320.0504
       652.0314        508.0764
 -10594243.30546  -8195934.83946  21881156.9954   21881160.3234
      2339.5004       1822.9874
   1164866.109 5    907685.659 5  23645293.233    23645289.605
     -1354.719       -1055.625
   7923385.01146   6133262.10646  22180024.3314   22180027.7304
     -2455.7504      -1913.5714
 95  4 11 17 17 14.9990000  0  7G31G 2G18G19G27G28G29
  -8558299.56146  -6593446.33346  21631795.3944   21631798.3354
       858.6884        669.1074
  -7230439.31446  -5517818.88745  23030660.8234   23030666.3784
      2803.0944       2184.2294
    844502.56547    666676.13247  20500480.9804   20500483.3944
     -1202.5784       -937.0744
  -3947758.87247  -3059476.31647  20576459.2764   20576462.7224
       649.4224        506.0434
 -10629331.36246  -8223276.17246  21874479.9404   21874483.1164
      2338.9534       1822.5614
   1185241.835 5    923562.842 5  23649170.698    23649167.065
     -1362.000       -1061.299
   7960254.47446   6161991.52946  22187040.3394   22187043.7614
     -2460.1094      -1916.9684
 95  4 11 17 17 29.9990000  0  7G31G 2G18G19G27G28G29
  -8571111.50146  -6603429.66046  21629357.0894   21629360.1364
       849.6564        662.0704
  -7272459.93546  -5550562.21245  23022665.0194   23022670.1284
      2799.8754       2181.7214
    862595.14147    680774.23847  20503924.0114   20503926.2144
     -1209.5944       -942.5414
  -3957478.69447  -3067050.20047  20574609.9254   20574613.3824
       646.6724        503.9004
 -10664411.36546  -8250611.23646  21867804.4724   21867807.6474
      2338.5164       1822.2204
   1205726.030 5    939524.537 5  23653069.054    23653065.167
     -1369.109       -1066.838
   7997188.66146   6190771.38846  22194068.8234   22194072.1164
     -2464.2974      -1920.2314
 95  4 11 17 17 44.9990000  0  7G31G 2G18G19G27G28G29
  -8583785.92846  -6613305.84046  21626945.6754   21626948.6054
       840.1884        654.6924
  -7314432.71146  -5583268.25545  23014678.1674   23014682.7494
      2796.4534       2179.0544
    880791.78847    694953.43547  20507386.7694   20507389.1364
     -1216.7194       -948.0934
  -3967158.13847  -3074592.62447  20572767.9254   20572771.3004
       643.8594        501.7094
 -10699482.94846  -8277939.74147  21861130.4954   21861133.4014
      2337.5634       1821.4774
   1226316.801 5    955569.281 5  23656987.612    23656983.425
     -1376.406       -1072.524
   8034186.92346   6219601.17646  22201109.4254   22201112.6474
     -2468.8914      -1923.8114
 95  4 11 17 17 59.9990000  0  7G31G 2G18G19G27G28G29
  -8596321.19446  -6623073.58446  21624560.0504   21624563.2264
       831.1094        647.6184
  -7356357.11946  -5615936.60745  23006700.3474   23006704.7064
      2793.2814       2176.5834
    899093.51747    709214.51547  20510869.3474   20510871.6904
     -1223.6724       -953.5114
  -3976798.83647  -3082104.85447  20570933.1754   20570936.4444
       641.4694        499.8464
 -10734541.10946  -8305257.78046  21854458.9874   21854462.1634
      2336.7504       1820.8444
   1247014.347 4    971697.221 5  23660926.507    23660922.237
     -1383.391       -1077.967
   8071253.05246   6248483.85146  22208163.2304   22208166.2884
     -2473.3914      -1927.3174
 95  4 11 17 18 14.9990000  0  7G31G 2G18G19G27G28G29
  -8608719.48546  -6632734.58446  21622200.6444   21622203.7614
       822.0474        640.5564
  -7398230.40346  -5648565.11646  22998732.0504   22998735.9644
      2789.8914       2173.9414
    917502.04447    723558.81347  20514372.3154   20514374.8584
     -1230.7344       -959.0144
  -3986402.32347  -3089588.09047  20569105.7454   20569109.0264
       639.0474        497.9594
 -10769584.21046  -8332564.08846  21847790.6984   21847793.8274
      2335.7194       1820.0414
   1267818.671 4    987908.365 5  23664885.437    23664880.995
     -1390.469       -1083.482
   8108387.92846   6277420.09646  22215229.7924   22215232.7104
     -2477.9064      -1930.8364
 95  4 11 17 18 29.9990000  0  7G31G 2G18G19G27G28G29
  -8620982.62046  -6642290.26946  21619867.0504   21619870.2144
       812.9844        633.4944
  -7440054.35546  -5681155.19945  22990773.3784   22990777.2804
      2786.6094       2171.3844
    936016.41747    737985.58247  20517895.5894   20517898.2264
     -1237.9694       -964.6514
  -3995971.52447  -3097044.60747  20567284.6204   20567287.9014
       636.7814        496.1934
 -10804613.31846  -8359859.49146  21841124.7764   21841127.7764
      2334.8134       1819.3344
   1288728.528 4   1004201.745 5  23668864.163    23668859.964
     -1397.594       -1089.034
   8145591.59946   6306409.94346  22222309.4644   22222312.1834
     -2482.6874      -1934.5624
 95  4 11 17 18 44.9990000  0  7G31G 2G18G19G27G28G29
  -8633108.89746  -6651739.32346  21617559.1674   21617562.5894
       803.8914        626.4084
  -7481828.66046  -5713706.58946  22982824.2694   22982827.7724
      2783.3134       2168.8154
    954641.15447    752498.35347  20521439.7224   20521442.2654
     -1245.3444       -970.3984
  -4005504.93747  -3104473.23847  20565470.5654   20565473.5774
       634.3444        494.2944
 -10839628.04647  -8387143.69146  21834461.8084   21834464.6794
      2333.8444       1818.5804
   1309746.773 4   1020579.580 5  23672863.483    23672859.894
     -1404.766       -1094.623
   8182869.53146   6335457.66046  22229403.0194   22229405.7614
     -2487.6254      -1938.4094
 95  4 11 17 18 59.9990000  0  7G31G 2G18G19G27G28G29
  -8645097.89246  -6661081.41046  21615278.0584   21615281.4094
       794.7344        619.2744
  -7523553.26046  -5746219.25646  22974884.2304   22974887.5934
      2780.0004       2166.2344
    973378.01447    767098.49847  20525005.4644   20525007.9134
     -1252.8284       -976.2304
  -4015001.77147  -3111873.36747  20563663.1674   20563666.2964
       631.9694        492.4434
 -10874627.04347  -8414415.63047  21827801.9254   21827804.7964
      2332.7504       1817.7274
   1330873.356 5   1037041.839 5  23676883.530    23676880.245
     -1412.000       -1100.260
   8220221.59946   6364563.13646  22236510.8314   22236513.6794
     -2492.6094      -1942.2934
 95  4 11 17 19 14.9990000  0  7G31G 2G18G19G27G28G29
  -8656950.78646  -6670317.43946  21613022.4254   21613025.8704
       785.7034        612.2364
  -7565228.26746  -5778693.26246  22966953.8394   22966957.5654
      2776.6564       2163.6284
    992226.38547    781785.53347  20528592.1204   20528594.7694
     -1260.2814       -982.0374
  -4024463.50747  -3119246.14447  20561862.7224   20561865.8514
       629.6564        490.6414
 -10909609.53647  -8441674.70747  21821144.9094   21821147.9214
      2331.5314       1816.7784
   1352107.954 5   1053588.267 5  23680924.132    23680920.980
     -1419.219       -1105.885
   8257648.68746   6393727.07546  22243632.9804   22243636.1904
     -2497.5944      -1946.1774
 95  4 11 17 19 29.9990000  0  7G31G 2G18G19G27G28G29
  -8668667.84146  -6679447.61246  21610792.7144   21610796.1124
       776.6254        605.1624
  -7606852.31446  -5811127.57446  22959032.9804   22959036.8234
      2773.2034       2160.9384
   1011186.76547    796559.84747  20532200.4404   20532202.9834
     -1267.6874       -987.8084
  -4033890.83347  -3126592.11147  20560068.9564   20560072.2144
       627.3594        488.8514
 -10944572.65147  -8468918.68647  21814491.5584   21814494.4404
      2330.2504       1815.7794
   1373451.586 5   1070219.652 5  23684986.108    23684982.698
     -1426.547       -1111.595
   8295150.59546   6422949.31146  22250769.4724   22250772.9294
     -2502.5784      -1950.0614
 95  4 11 17 19 44.9990000  0  7G31G 2G18G19G27G28G29
  -8680249.01546  -6688471.91246  21608589.2694   21608592.4564
       767.6254        598.1494
  -7648424.67046  -5843521.59646  22951121.6984   22951125.6364
      2769.8914       2158.3564
   1030255.51247    811418.60347  20535828.8154   20535830.9134
     -1274.7034       -993.2754
  -4043285.81447  -3133912.87447  20558281.2844   20558284.5074
       625.4224        487.3424
 -10979517.46847  -8496148.40947  21807842.1204   21807844.8044
      2329.1094       1814.8904
   1394903.570 5   1086935.473 5  23689068.210    23689065.253
     -1433.687       -1117.159
   8332727.28046   6452229.81146  22257919.9404   22257923.0584
     -2507.5784      -1953.9574
 95  4 11 17 19 59.9990000  0  7G31G 2G18G19G27G28G29
  -8691698.54046  -6697393.62846  21606411.0654   21606413.7494
       758.9844        591.4164
  -7689947.35246  -5875876.91546  22943219.8704   22943224.0544
      2766.4694       2155.6904
   1049427.85147    826358.08347  20539477.1904   20539479.1594
     -1281.6564       -998.6934
  -4052653.36447  -3141212.26447  20556498.5504   20556501.8664
       623.5164        485.8564
 -11014445.87747  -8523365.34647  21801195.1124   21801198.0544
      2328.0004       1814.0264
   1416461.436 5   1103733.792 5  23693170.819    23693167.815
     -1440.719       -1122.638
   8370377.69646   6481567.77146  22265084.7374   22265087.4914
     -2512.4694      -1957.7684
 95  4 11 17 20 14.9990000  0  7G31G 2G18G19G27G28G29
  -8703018.83446  -6706214.63846  21604256.7534   21604259.3194
       750.4384        584.7564
  -7731418.06846  -5908191.74046  22935328.5584   22935333.0224
      2763.0164       2152.9994
   1068706.21447    841380.18147  20543145.8704   20543147.8624
     -1288.8284      -1004.2824
  -4061990.64547  -3148488.06647  20554721.6364   20554724.8354
       621.4224        484.2254
 -11049358.85347  -8550570.26147  21794551.7064   21794554.5774
      2327.0784       1813.3084
   1438126.194 5   1120615.412 5  23697293.444    23697290.159
     -1447.875       -1128.214
   8408100.96846   6510962.50446  22272262.9484   22272265.8084
     -2517.2344      -1961.4814
 95  4 11 17 20 29.9990000  0  7G31G 2G18G19G27G28G29
  -8714207.95346  -6714933.44046  21602127.2844   21602130.2144
       741.5944        577.8654
  -7772834.25546  -5940464.07946  22927446.7614   22927450.9804
      2759.3914       2150.1754
   1088095.90147    856489.01847  20546835.7764   20546837.9334
     -1296.2974      -1010.1014
  -4071292.22747  -3155736.05447  20552951.7844   20552954.9014
       618.9844        482.3254
 -11084254.55547  -8577761.71147  21787911.1594   21787914.0774
      2325.8594       1812.3584
   1459901.825 5   1137583.414 5  23701437.339    23701433.925
     -1455.344       -1134.034
   8445896.92846   6540413.87946  22279455.1514   22279458.0464
     -2521.9844      -1965.1834
 95  4 11 17 20 44.9990000  0  7G31G 2G18G19G27G28G29
  -8725265.80246  -6723549.95546  21600022.6754   21600026.0154
       732.8914        571.0844
  -7814196.37546  -5972694.29346  22919575.9254   22919580.4484
      2755.6094       2147.2284
   1107597.02247    871684.68847  20550546.4804   20550548.6244
     -1303.7814      -1015.9334
  -4080558.22347  -3162956.30847  20551188.2534   20551191.4294
       616.5474        480.4264
 -11119132.99547  -8604939.70947  21781274.0194   21781276.9254
      2324.6724       1811.4334
   1481788.209 5   1154637.719 5  23705602.175    23705598.323
     -1462.766       -1139.817
   8483763.11146   6569919.96746  22286660.8554   22286663.9134
     -2526.6724      -1968.8354
 95  4 11 17 20 59.9990000  0  7G31G 2G18G19G27G28G29
  -8736194.10146  -6732065.51646  21597943.3624   21597946.7964
       724.2664        564.3634
  -7855500.88446  -6004879.61545  22911715.7454   22911720.7264
      2751.6094       2144.1114
   1127209.64247    886967.24647  20554278.7144   20554280.8944
     -1311.2814      -1021.7784
  -4089789.06147  -3170149.17347  20549431.6674   20549435.0654
       614.2814        478.6614
 -11153993.81047  -8632103.97447  21774640.1204   21774643.1904
      2323.4534       1810.4834
   1503783.742 5   1171777.081 5  23709787.901    23709783.831
     -1469.984       -1145.442
   8521695.70246   6599477.79846  22293879.3944   22293882.7694
     -2531.0004      -1972.2084
 95  4 11 17 21 14.9990000  0  7G31G 2G18G19G27G28G29
  -8746991.72446  -6740479.25446  21595888.2304   21595891.6984
       715.5474        557.5694
  -7896743.20646  -6037016.47546  22903867.2144   22903872.2064
      2747.5634       2140.9584
   1146936.12747    902338.52647  20558032.1674   20558034.5464
     -1318.7504      -1027.5974
  -4098985.40147  -3177315.15547  20547681.8084   20547685.2304
       612.0004        476.8834
 -11188835.29347  -8659253.17747  21768010.0654   21768012.8664
      2322.2344       1809.5334
   1525889.468 4   1189002.292 5  23713994.499    23713990.206
     -1477.328       -1151.165
   8559694.35146   6629087.10946  22301110.7224   22301113.9804
     -2535.3594      -1975.6054
 95  4 11 17 21 29.9990000  0  7G31G 2G18G19G27G28G29
  -8757657.30346  -6748790.10046  21593858.8004   21593862.4804
       706.5634        550.5684
  -7937925.12646  -6069106.26546  22896030.6674   22896035.7304
      2743.4064       2137.7194
   1166774.73447    917797.17247  20561807.5974   20561810.1514
     -1326.3284      -1033.5024
  -4108146.12247  -3184453.38447  20545938.6444   20545942.0304
       609.5004        474.9354
 -11223658.90947  -8686388.45647  21761383.4874   21761386.3124
      2320.9694       1808.5474
   1548105.882 4   1206313.760 5  23718222.132    23718217.745
     -1484.859       -1157.033
   8597758.70046   6658747.60446  22308353.7924   22308357.1554
     -2539.7814      -1979.0504
 95  4 11 17 21 44.9990000  0  7G31G 2G18G19G27G28G29
  -8768188.29546  -6756996.07346  21591855.0504   21591858.4484
       697.5004        543.5064
  -7979047.83846  -6101149.92346  22888205.1834   22888210.5734
      2739.5784       2134.7364
   1186725.07947    933342.88747  20565603.9334   20565606.3474
     -1333.7194      -1039.2614
  -4117271.27047  -3191563.89147  20544202.1904   20544205.4834
       607.0944        473.0604
 -11258466.20747  -8713511.02147  21754759.8004   21754762.6594
      2319.9844       1807.7804
   1570432.968 4   1223711.459 5  23722470.765    23722466.901
     -1492.172       -1162.731
   8635887.31846   6688458.19146  22315609.4254   22315612.6474
     -2544.0624      -1982.3864
 95  4 11 17 21 59.9990000  0  7G31G 2G18G19G27G28G29
  -8778583.91946  -6765096.55546  21589877.0734   21589880.0734
       688.5474        536.5304
  -8020114.41646  -6133149.84346  22880390.3314   22880395.3704
      2735.9694       2131.9244
   1206786.60347    948975.23747  20569421.1514   20569423.3784
     -1341.2194      -1045.1064
  -4126359.20347  -3198645.39947  20542472.6904   20542475.9834
       604.6254        471.1364
 -11293259.05547  -8740622.31947  21748138.9874   21748142.0464
      2319.0164       1807.0254
   1592870.239 5   1241195.027 5  23726740.421    23726736.886
     -1499.516       -1168.454
   8674080.10346   6718218.77446  22322877.2374   22322880.4834
     -2548.3124      -1985.6984
 95  4 11 17 22 14.9990000  0  7G31G 2G18G19G27G28G29
  -8788842.37146  -6773090.16846  21587924.9174   21587927.6944
       679.2664        529.2984
  -8061127.95146  -6165108.43246  22872585.7924   22872590.9834
      2732.5784       2129.2824
   1226963.44747    964697.45247  20573260.7614   20573263.1164
     -1349.0164      -1051.1814
  -4135408.80547  -3205697.04347  20540750.6124   20540753.9294
       602.0634        469.1404
 -11328036.22847  -8767721.40647  21741521.0894   21741524.1714
      2317.9694       1806.2094
   1615418.180 5   1258764.830 5  23731030.726    23731027.581
     -1506.859       -1174.176
   8712336.34246   6748028.80146  22330157.3944   22330160.9334
     -2552.5164      -1988.9734
 95  4 11 17 22 29.9990000  0  7G31G 2G18G19G27G28G29
  -8798960.78346  -6780974.64746  21585999.2304   21586002.0304
       669.8914        521.9934
  -8102092.33846  -6197028.72046  22864791.0654   22864795.9644
      2729.3444       2126.7614
   1247256.95347    980510.56447  20577122.5734   20577125.1404
     -1356.7504      -1057.2084
  -4144420.89047  -3212719.44447  20539035.6594   20539039.0464
       599.6094        467.2284
 -11362798.05747  -8794808.54047  21734906.0894   21734909.0074
      2316.9384       1805.4064
   1638076.258 5   1276420.459 5  23735342.124    23735339.675
     -1514.172       -1179.874
   8750655.88146   6777888.15846  22337448.9564   22337452.5654
     -2556.7664      -1992.2854
 95  4 11 17 22 44.9990000  0  7G31G 2G18G19G27G28G29
  -8808935.26846  -6788746.97746  21584101.3474   21584103.7374
       660.1094        514.3714
  -8143004.62046  -6228908.40946  22857005.3314   22857010.0544
      2725.6414       2123.8764
   1267668.00647    996415.27047  20581006.6284   20581009.3354
     -1364.6414      -1063.3564
  -4153394.66047  -3219711.99447  20537328.1514   20537331.5854
       597.0164        465.2074
 -11397541.66347  -8821881.47147  21728294.3554   21728297.3784
      2315.6724       1804.4204
   1660847.081 5   1294163.947 5  23739675.116    23739672.636
     -1521.828       -1185.840
   8789043.45646   6807800.52046  22344754.1514   22344757.6674
     -2561.5314      -1995.9984
 95  4 11 17 22 59.9990000  0  7G31G 2G18G19G27G28G29
  -8818764.54046  -6796406.15746  21582231.2064   21582233.7374
       650.4844        506.8714
  -8183862.27046  -6260745.52046  22849230.6054   22849235.2104
      2722.1884       2121.1854
   1288195.65947   1012410.83847  20584913.1594   20584915.6554
     -1372.3284      -1069.3474
  -4162331.68747  -3226675.91447  20535627.4564   20535630.9134
       594.6724        463.3814
 -11432270.52047  -8848942.91347  21721685.8314   21721688.8664
      2314.9064       1803.8234
   1683729.744 5   1311994.576 5  23744030.085    23744026.917
     -1529.125       -1191.526
   8827502.85546   6837768.86546  22352073.0344   22352076.5264
     -2566.2974      -1999.7124
 95  4 11 17 23 14.9990000  0  7G31G 2G18G19G27G28G29
  -8828450.39146  -6803953.58146  21580387.4804   21580390.0814
       640.9844        499.4684
  -8224672.59246  -6292545.75746  22841465.1674   22841469.3274
      2719.2344       2118.8844
   1308836.51747   1028494.62047  20588841.0034   20588843.4524
     -1379.7034      -1075.0934
  -4171235.65047  -3233614.06947  20533933.1514   20533936.4334
       592.5164        461.7004
 -11466989.26447  -8875996.47447  21715079.0974   21715082.1204
      2314.2974       1803.3484
   1706720.081 5   1329909.105 5  23748405.437    23748401.855
     -1536.219       -1197.054
   8866032.79846   6867792.16146  22359405.2374   22359408.3784
     -2571.0314      -2003.4014
 95  4 11 17 23 29.9990000  0  7G31G 2G18G19G27G28G29
  -8837992.82446  -6811389.24846  21578571.6284   21578574.4644
       631.2974        491.9204
  -8265439.79946  -6324312.39146  22833707.3554   22833711.1634
      2716.3914       2116.6684
   1329586.21947   1044663.21147  20592789.4954   20592792.0264
     -1386.9374      -1080.7314
  -4180106.30747  -3240526.27347  20532245.0344   20532248.3044
       590.2194        459.9114
 -11501699.42847  -8903043.35047  21708473.9094   21708477.0154
      2313.6884       1802.8734
   1729817.492 5   1347907.064 5  23752801.167    23752797.026
     -1543.437       -1202.679
   8904635.30846   6897872.01046  22366750.6054   22366753.8514
     -2576.0164      -2007.2854
 95  4 11 17 23 44.9990000  0  7G31G 2G18G19G27G28G29
  -8847389.03546  -6818710.98046  21576783.2534   21576786.2764
       621.4384        484.2374
  -8306163.71146  -6356045.29046  22825958.0424   22825961.6054
      2713.3754       2114.3184
   1350445.98447   1060917.56447  20596758.6514   20596761.4874
     -1394.4844      -1086.6114
  -4188942.58647  -3247411.68947  20530563.6904   20530566.8194
       587.9064        458.1094
 -11536399.22247  -8930082.14747  21701871.0264   21701874.1204
      2312.8594       1802.2284
   1753023.391 5   1365989.556 5  23757217.562    23757212.776
     -1550.750       -1208.377
   8943313.79846   6928011.06646  22374111.1904   22374114.4604
     -2581.1254      -2011.2664
 95  4 11 17 23 59.9990000  0  7G31G 2G18G19G27G28G29
  -8856638.29546  -6825918.19246  21575023.4724   21575026.3554
       611.7034        476.6524
  -8346842.67546  -6387743.17046  22818217.1904   22818220.6124
      2710.2974       2111.9204
   1371418.55647   1077259.81947  20600749.7924   20600752.3944
     -1402.0164      -1092.4804
  -4197744.04447  -3254269.97147  20528888.5734   20528891.7494
       585.4224        456.1734
 -11571086.75247  -8957111.38147  21695270.1834   21695273.1834
      2311.9694       1801.5344
   1776337.972 4   1384156.737 5  23761654.390    23761649.315
     -1558.016       -1214.038
   8982068.17646   6958209.25346  22381485.7924   22381489.2614
     -2586.2974      -2015.2964
 95  4 11 17 24 14.9990000  0  7G31G 2G18G19G27G28G29
  -8865742.29446  -6833012.22246  21573291.0344   21573293.6124
       602.1254        469.1884
  -8387473.74146  -6419403.72746  22810485.4804   22810488.5974
      2707.0784       2109.4124
   1392505.95047   1093691.54847  20604762.6984   20604765.3004
     -1409.6874      -1098.4584
  -4206508.03947  -3261099.05947  20527220.9334   20527224.2844
       583.0944        454.3594
 -11605759.30847  -8984128.95147  21688672.3394   21688675.1984
      2310.9844       1800.7674
   1799761.783 4   1402409.026 5  23766111.944    23766106.675
     -1565.156       -1219.602
   9020900.27546   6988467.99946  22388875.4254   22388878.7764
     -2591.3594      -2019.2414
 95  4 11 17 24 29.9990000  0  7G31G 2G18G19G27G28G29
  -8874701.54246  -6839993.45246  21571586.5034   21571589.5624
       592.4694        461.6644
  -8428053.96646  -6451024.66346  22802763.3554   22802766.6244
      2703.5164       2106.6364
   1413709.02047   1110213.41347  20608797.3554   20608800.0384
     -1417.3594      -1104.4364
  -4215237.20747  -3267901.01847  20525559.8864   20525563.2024
       580.7814        452.5574
 -11640417.48847  -9011135.31447  21682077.0264   21682079.6284
      2310.1094       1800.0854
   1823292.900 4   1420744.928 5  23770589.433    23770584.620
     -1572.344       -1225.203
   9059807.98246   7018785.66346  22396279.1444   22396282.1444
     -2596.3444      -2023.1254
 95  4 11 17 24 44.9990000  0  7G31G 2G18G19G27G28G29
  -8883517.28246  -6846862.86646  21569908.1984   21569911.1984
       582.7664        454.1034
  -8468577.52046  -6482601.43646  22795051.7454   22795055.2494
      2699.4384       2103.4584
   1435025.13547   1126823.36347  20612853.7064   20612856.2374
     -1424.9064      -1110.3174
  -4223931.77147  -3274676.00447  20523905.8314   20523909.2654
       578.3134        450.6334
 -11675062.42347  -9038131.36547  21675484.0654   21675486.7724
      2309.0634       1799.2694
   1846930.642 4   1439163.914 5  23775087.179    23775082.745
     -1579.531       -1230.804
   9098789.37646   7049160.74346  22403697.6054   22403700.8624
     -2601.2814      -2026.9724
 95  4 11 17 24 59.9990000  0  7G31G 2G18G19G27G28G29
  -8892185.98346  -6853617.75247  21568258.8474   21568262.1404
       572.9534        446.4574
  -8509037.01846  -6514128.29646  22787352.0654   22787355.6054
      2695.0784       2100.0614
   1456456.09747   1143522.80747  20616932.1444   20616934.6874
     -1432.6094      -1116.3194
  -4232586.55747  -3281419.96847  20522258.3864   20522261.8084
       575.5164        448.4544
 -11709690.97147  -9065114.64147  21668894.5424   21668897.5894
      2307.9694       1798.4174
   1870677.400 4   1457667.844 5  23779605.503    23779601.745
     -1586.812       -1236.477
   9137845.99546   7079594.44246  22411129.7614   22411132.8554
     -2606.2974      -2030.8814
 95  4 11 17 25 14.9990000  0  7G31G 2G18G19G27G28G29
  -8900706.24446  -6860256.84446  21566637.2694   21566640.6204
       563.2034        438.8604
  -8549432.83846  -6545605.54646  22779664.9484   22779669.1204
      2691.1094       2096.9684
   1478000.64247   1160310.75747  20621031.8864   20621034.3234
     -1439.9224      -1122.0174
  -4241198.04047  -3288130.25147  20520619.6364   20520622.9174
       572.7814        446.3234
 -11744301.43047  -9092083.82347  21662308.2454   21662311.3154
      2306.7974       1797.5044
   1894533.350 5   1476256.871 5  23784145.171    23784141.698
     -1593.937       -1242.029
   9176976.44946   7110085.67646  22418575.7144   22418579.0074
     -2610.9694      -2034.5214
 95  4 11 17 25 29.9990000  0  7G31G 2G18G19G27G28G29
  -8909082.97746  -6866784.17546  21565043.3864   21565046.7724
       553.7034        431.4574
  -8589768.70346  -6577036.06846  22771989.4254   22771993.8554
      2686.9534       2093.7304
   1499653.61847   1177183.19747  20625152.4644   20625154.7724
     -1447.0784      -1127.5934
  -4249770.12547  -3294809.79847  20518988.5974   20518991.7964
       570.1884        444.3024
 -11778894.65147  -9119039.57347  21655725.2064   21655728.5584
      2305.7504       1796.6884
   1918495.174 5   1494928.398 5  23788704.624    23788701.605
     -1600.937       -1247.484
   9216174.98546   7140629.96046  22426035.0894   22426038.1714
     -2615.4224      -2037.9914
 95  4 11 17 25 44.9990000  0  7G31G 2G18G19G27G28G29
  -8917315.46546  -6873199.09246  21563477.2534   21563480.0654
       543.9384        423.8474
  -8630040.25846  -6608416.48246  22764325.5654   22764330.3004
      2682.5004       2090.2604
   1521416.24647   1194141.08047  20629293.6284   20629295.9954
     -1454.6254      -1133.4744
  -4258303.10947  -3301458.87547  20517364.8314   20517368.2184
       567.4844        442.1964
 -11813473.53847  -9145984.15447  21649145.1124   21649148.4174
      2304.7034       1795.8734
   1942563.248 5   1513682.722 5  23793284.558    23793281.511
     -1608.187       -1253.133
   9255438.00746   7171224.49146  22433506.8704   22433510.0114
     -2619.6564      -2041.2914
 95  4 11 17 25 59.9990000  0  7G31G 2G18G19G27G28G29
  -8925402.25946  -6879500.48746  21561938.4404   21561941.4764
       534.3914        416.4084
  -8670243.50646  -6639743.67346  22756674.6834   22756679.6754
      2678.0474       2086.7904
   1543291.54947   1211186.75947  20633456.2454   20633458.6944
     -1461.9694      -1139.1964
  -4266794.21447  -3308075.32047  20515749.1754   20515752.5154
       564.7194        440.0414
 -11848036.39147  -9172916.24247  21642568.0894   21642571.5344
      2303.7664       1795.1424
   1966738.617 4   1532520.655 5  23797884.870    23797881.745
     -1615.156       -1258.563
   9294761.41046   7201866.07446  22440990.0264   22440993.0854
     -2623.4064      -2044.2134
 95  4 11 17 26 14.9990000  0  7G31G 2G18G19G27G28G29
  -8933344.23846  -6885689.04446  21560427.0504   21560430.1324
       524.5634        408.7504
  -8710379.70246  -6671018.61946  22749037.4094   22749042.8944
      2673.4384       2083.1984
   1565277.34147   1228318.53347  20637640.2764   20637642.7494
     -1469.5474      -1145.1014
  -4275240.61747  -3314656.93947  20514141.8474   20514145.3154
       561.5474        437.5694
 -11882583.93047  -9199836.39647  21635993.8394   21635997.1794
      2302.5944       1794.2294
   1991020.139 4   1551441.302 5  23802505.542    23802502.198
     -1622.359       -1264.176
   9334143.41646   7232553.32246  22448484.0584   22448487.3624
     -2627.5474      -2047.4394
 95  4 11 17 26 29.9990000  0  7G31G 2G18G19G27G28G29
  -8941139.31846  -6891763.12546  21558943.8154   21558946.5814
       514.6414        401.0194
  -8750448.09846  -6702240.73346  22741412.7694   22741418.2654
      2668.9844       2079.7284
   1587375.90847   1245538.19147  20641845.6054   20641848.0774
     -1476.9844      -1150.8974
  -4283643.42647  -3321204.58547  20512542.5264   20512545.8084
       558.7504        435.3904
 -11917116.36147  -9226744.77947  21629422.4564   21629425.6324
      2301.6414       1793.4864
   2015408.400 4   1570445.118 5  23807146.288    23807143.464
     -1629.453       -1269.704
   9373585.49646   7263287.37546  22455989.8554   22455993.0654
     -2631.5164      -2050.5324
 95  4 11 17 26 44.9990000  0  7G31G 2G18G19G27G28G29
  -8948785.02746  -6897720.82346  21557488.5734   21557491.5974
       504.7814        393.3364
  -8790452.46546  -6733412.95246  22733799.6594   22733805.0624
      2664.9534       2076.5874
   1609583.62447   1262842.89447  20646071.1284   20646073.7064
     -1483.9844      -1156.3514
  -4292004.25047  -3327719.51847  20510951.7304   20510955.0224
       555.9694        433.2224
 -11951636.07547  -9253643.25347  21622853.6054   21622856.8044
      2300.9224       1792.9264
   2039902.675 4   1589531.534 5  23811807.335    23811804.667
     -1636.453       -1275.158
   9413086.48046   7294067.32746  22463506.3784   22463509.5894
     -2635.3754      -2053.5394
 95  4 11 17 26 59.9990000  0  7G31G 2G18G19G27G28G29
  -8956286.12346  -6903565.82646  21556061.3554   21556064.2494
       495.3284        385.9704
  -8830401.37046  -6764541.95546  22726197.7764   22726203.1904
      2661.5784       2073.9574
   1631892.65647   1280226.55047  20650316.3784   20650319.0384
     -1490.5944      -1161.5024
  -4300326.45147  -3334204.35247  20509367.8314   20509371.3234
       553.6094        431.3844
 -11986147.18347  -9280535.01747  21616286.6834   21616289.6244
      2300.5164       1792.6104
   2064498.835 4   1608697.355 5  23816487.972    23816485.198
     -1643.047       -1280.296
   9452644.50346   7324891.73446  22471033.6514   22471037.2614
     -2639.0784      -2056.4254
 95  4 11 17 27 14.9990000  0  7G31G 2G18G19G27G28G29
  -8963642.91146  -6909298.38246  21554661.0894   21554664.1364
       485.6254        378.4094
  -8870298.13646  -6795630.33246  22718605.8784   22718611.3514
      2658.1094       2071.2544
   1654304.14147   1297690.03747  20654581.1204   20654584.0854
     -1497.5474      -1166.9204
  -4308610.74247  -3340659.64447  20507791.5654   20507795.1284
       551.0784        429.4124
 -12020649.81947  -9307420.18047  21609720.9094   21609723.8974
      2299.8594       1792.0984
   2089196.874 4   1627942.560 5  23821188.171    23821184.886
     -1649.969       -1285.690
   9492261.22046   7355761.85846  22478572.3154   22478576.3004
     -2643.1094      -2059.5664
 95  4 11 17 27 29.9990000  0  7G31G 2G18G19G27G28G29
  -8970854.40546  -6914917.71946  21553288.6594   21553291.8824
       475.8754        370.8124
  -8910144.72446  -6826679.60146  22711023.4874   22711028.8554
      2654.7034       2068.6004
   1676821.42647   1315235.96447  20658866.1834   20658869.2414
     -1504.8444      -1172.6064
  -4316859.47147  -3347087.22647  20506221.7454   20506225.4014
       548.7034        427.5614
 -12055141.71447  -9334296.97647  21603157.3784   21603160.2614
      2298.9694       1791.4044
   2113998.284 4   1647268.318 5  23825908.124    23825904.675
     -1656.984       -1291.157
   9531938.05946   7386678.84246  22486122.6984   22486126.6014
     -2647.2194      -2062.7684
 95  4 11 17 27 44.9990000  0  7G31G 2G18G19G27G28G29
  -8977922.79946  -6920425.55046  21551943.8554   21551947.1124
       466.3444        363.3854
  -8949942.80346  -6857691.08446  22703450.1904   22703454.8434
      2651.5944       2066.1774
   1699446.90047   1332866.19347  20663171.7764   20663174.7654
     -1512.0944      -1178.2554
  -4325073.74447  -3353487.96347  20504658.8314   20504662.5114
       546.2664        425.6624
 -12089622.49847  -9361165.11447  21596595.8864   21596598.7574
      2298.2504       1790.8444
   2138902.616 4   1666674.266 5  23830647.573    23830643.784
     -1663.781       -1296.453
   9571674.65646   7417642.39246  22493684.4874   22493688.2144
     -2651.1414      -2065.8244
 95  4 11 17 27 59.9990000  0  7G31G 2G18G19G27G28G29
  -8984846.18746  -6925820.39246  21550626.3234   21550629.5814
       456.7814        355.9334
  -8989695.55646  -6888667.24046  22695886.0424   22695890.2024
      2648.6884       2063.9124
   1722182.96147   1350582.60047  20667498.1514   20667501.1874
     -1519.3914      -1183.9414
  -4333248.54447  -3359857.94347  20503103.1364   20503106.6984
       543.6254        423.6044
 -12124088.18947  -9388021.49147  21590037.0504   21590040.1324
      2297.0164       1789.8824
   2163910.482 4   1686160.895 5  23835406.487    23835402.245
     -1670.656       -1301.810
   9611471.80846   7448653.12346  22501257.8004   22501261.6324
     -2655.2504      -2069.0264
 95  4 11 17 28 14.9990000  0  7G31G 2G18G19G27G28G29
  -8991625.75846  -6931103.16646  21549336.1674   21549339.4834
       447.1884        348.4584
  -9029405.45646  -6919610.00046  22688329.4174   22688333.2844
      2646.0004       2061.8184
   1745028.32847   1368384.17747  20671845.4644   20671848.5814
     -1526.7034      -1189.6394
  -4341381.96847  -3366195.68047  20501555.5034   20501558.8314
       540.8914        421.4734
 -12158532.29547  -9414861.04747  21583482.6904   21583485.8664
      2295.5164       1788.7134
   2189021.665 4   1705728.023 5  23840185.116    23840180.948
     -1677.531       -1307.167
   9651332.87546   7479713.66746  22508843.0894   22508846.8154
     -2659.6414      -2072.4474
 95  4 11 17 28 29.9990000  0  7G31G 2G18G19G27G28G29
  -8998262.31946  -6936274.50146  21548073.3704   21548076.4174
       437.6414        341.0194
  -9069074.54846  -6950520.96746  22680780.8554   22680784.3704
      2643.1414       2059.5904
   1767982.86647   1386270.82047  20676213.8394   20676216.8744
     -1533.9534      -1195.2884
  -4349476.84047  -3372503.37547  20500014.9404   20500018.2334
       538.4534        419.5744
 -12192953.93647  -9441683.09547  21576932.3704   21576935.6634
      2293.9384       1787.4844
   2214236.176 4   1725375.668 5  23844983.245    23844979.089
     -1684.437       -1312.549
   9691261.69546   7510827.00346  22516441.1514   22516444.5974
     -2664.2034      -2076.0024
 95  4 11 17 28 44.9990000  0  7G31G 2G18G19G27G28G29
  -9004759.96846  -6941337.59546  21546836.9404   21546839.8234
       429.4384        334.6274
  -9108703.72146  -6981400.81546  22673239.7614   22673243.1244
      2641.4694       2058.2874
   1791040.25147   1404237.60847  20680601.7764   20680604.5654
     -1539.6094      -1199.6964
  -4357538.90547  -3378785.50747  20498481.2454   20498484.4684
       537.1254        418.5394
 -12227354.14447  -9468488.44647  21570386.2844   21570389.6014
      2293.4534       1787.1064
   2239550.646 4   1745101.208 5  23849800.550    23849796.440
     -1690.109       -1316.968
   9731254.37246   7541990.09146  22524051.6834   22524054.9644
     -2667.4224      -2078.5114
 95  4 11 17 28 59.9990000  0  7G31G 2G18G19G27G28G29
  -9011130.93546  -6946301.97846  21545624.2614   21545627.3904
       420.2814        327.4924
  -9148302.14046  -7012256.70746  22665704.5894   22665707.4374
      2638.4534       2055.9384
   1814187.30547   1422274.26847  20685006.3864   20685009.0114
     -1546.5004      -1205.0654
  -4365574.70547  -3385047.17047  20496952.2694   20496955.3154
       534.5314        416.5184
 -12261741.22347  -9495283.56247  21563842.7374   21563845.8664
      2291.6884       1785.7314
   2264954.777 4   1764896.618 5  23854634.624    23854630.980
     -1696.906       -1322.265
   9771299.68546   7573194.20546  22531672.1444   22531675.5424
     -2671.7664      -2081.8954
 95  4 11 17 29 14.9990000  0  7G31G 2G18G19G27G28G29
  -9017365.07146  -6951159.73446  21544437.9954   21544441.0894
       411.0944        320.3334
  -9187852.46346  -7043075.12246  22658178.4254   22658181.2024
      2635.0004       2053.2474
   1837440.09647   1440393.32047  20689430.8944   20689433.6364
     -1553.7814      -1210.7394
  -4373570.90847  -3391277.98247  20495430.2694   20495433.3744
       531.7344        414.3384
 -12296100.48247  -9522057.01047  21557304.2144   21557307.3904
      2289.7034       1784.1844
   2290461.364 4   1784771.856 5  23859488.605    23859484.628
     -1703.828       -1327.658
   9811409.65346   7604448.68846  22539305.0894   22539308.4174
     -2676.0164      -2085.2074
 95  4 11 17 29 29.9990000  0  7G31G 2G18G19G27G28G29
  -9023463.62446  -6955911.83946  21543277.4954   21543280.6944
       402.0784        313.3084
  -9227351.68246  -7073853.72146  22650661.9254   22650664.8314
      2631.6414       2050.6294
   1860800.92747   1458596.55647  20693876.2764   20693879.2534
     -1560.9374      -1216.3154
  -4381525.24647  -3397476.17247  20493916.6364   20493919.9644
       528.8754        412.1104
 -12330431.91847  -9548808.77047  21550771.3234   21550774.3944
      2287.8594       1782.7484
   2316070.666 4   1804727.141 5  23864362.089    23864357.980
     -1710.672       -1332.991
   9851580.96246   7635750.97846  22546949.0194   22546952.3354
     -2680.0624      -2088.3604
 95  4 11 17 29 44.9990000  0  7G31G 2G18G19G27G28G29
  -9029427.96946  -6960559.37046  21542142.4174   21542145.5224
       393.0634        306.2824
  -9266801.47946  -7104593.79246  22643154.7454   22643157.6284
      2628.1884       2047.9384
   1884267.60147   1476882.26747  20698341.7844   20698344.9014
     -1568.0164      -1221.8304
  -4389436.32747  -3403640.65447  20492411.1594   20492414.5114
       525.7664        409.6884
 -12364735.35847  -9575538.71847  21544243.4484   21544246.6834
      2285.8594       1781.1894
   2341780.353 4   1824760.646 5  23869254.507    23869250.315
     -1717.391       -1338.226
   9891810.55346   7667098.67846  22554604.5424   22554607.8824
     -2683.9694      -2091.4044
 95  4 11 17 29 59.9990000  0  7G31G 2G18G19G27G28G29
  -9035255.39346  -6965100.21046  21541033.7304   21541036.7064
       383.8594        299.1114
  -9306197.77746  -7135292.19146  22635657.7374   22635660.8554
      2624.5634       2045.1144
   1907839.60047   1495250.04847  20702827.3084   20702830.3664
     -1574.9064      -1227.2004
  -4397298.47247  -3409767.00447  20490914.8704   20490918.0584
       522.5164        407.1554
 -12399009.52847  -9602245.86147  21537721.5264   21537724.6084
      2284.0004       1779.7404
   2367591.553 3   1844873.235 5  23874166.116    23874161.909
     -1724.125       -1343.474
   9932099.59046   7698492.69146  22562271.3314   22562274.8824
     -2687.9374      -2094.4974
 95  4 11 17 30 14.9990000  0  7G31G 2G18G19G27G28G29
  -9040943.27646  -6969532.31346  21539951.1124   21539954.1014
       374.6094        291.9034
  -9345535.48646  -7165944.93746  22628172.0654   22628174.9134
      2620.5004       2041.9484
   1931514.24447   1513697.81547  20707332.8004   20707335.6364
     -1581.6874      -1232.4844
  -4405113.30047  -3415856.48547  20489427.6674   20489430.9014
       519.5314        404.8304
 -12433254.52147  -9628930.26247  21531204.9014   21531207.8194
      2282.1254       1778.2794
   2393504.901 3   1865065.429 5  23879097.124    23879092.730
     -1730.906       -1348.758
   9972450.25146   7729934.73546  22569949.9954   22569953.5114
     -2692.0784      -2097.7234
 95  4 11 17 30 29.9990000  0  7G31G 2G18G19G27G28G29
  -9046492.02746  -6973856.00046  21538894.9724   21538898.0424
       365.1564        284.5374
  -9384811.25546  -7196549.41446  22620697.6054   22620701.1444
      2616.1254       2038.5394
   1955290.69347   1532224.91747  20711857.2454   20711860.0814
     -1588.6094      -1237.8774
  -4412884.02047  -3421911.59847  20487949.0894   20487952.1124
       516.5004        402.4684
 -12467474.62447  -9655595.27647  21524692.9954   21524695.8904
      2280.5314       1777.0374
   2419520.073 3   1885336.954 5  23884047.304    23884043.190
     -1737.891       -1354.200
  10012863.83146   7761425.79746  22577640.3234   22577643.7334
     -2696.4844      -2101.1574
 95  4 11 17 30 44.9990000  0  7G31G 2G18G19G27G28G29
  -9051901.02846  -6978070.79646  21537865.9404   21537869.0464
       355.9224        277.3424
  -9424021.23046  -7227102.62846  22613236.0424   22613239.6874
      2611.8284       2035.1914
   1979169.43847   1550831.72447  20716401.1984   20716404.3394
     -1595.3444      -1243.1254
  -4420611.61147  -3427933.10047  20486478.7614   20486481.7614
       513.7034        400.2884
 -12501674.32947  -9682244.39247  21518185.0584   21518187.9874
      2279.3914       1776.1494
   2445637.647 3   1905688.287 5  23889017.069    23889013.386
     -1744.547       -1359.387
  10053339.83846   7792965.51546  22585342.6364   22585346.5734
     -2700.3594      -2104.1764
 95  4 11 17 30 59.9990000  0  7G31G 2G18G19G27G28G29
  -9057167.21346  -6982174.31046  21536863.8394   21536867.0384
       346.3284        269.8664
  -9463164.92146  -7257604.19746  22605787.4804   22605791.3584
      2607.4064       2031.7454
   2003152.67147   1569519.94947  20720964.8624   20720967.9214
     -1602.4374      -1248.6534
  -4428291.56247  -3433917.48047  20485017.2064   20485020.1714
       510.3754        397.6954
 -12535855.82447  -9708879.31747  21511680.6054   21511683.5224
      2278.2344       1775.2484
   2471858.014 3   1926119.718 5  23894007.030    23894003.136
     -1751.406       -1364.732
  10093875.93246   7824552.05045  22593056.3944   22593060.0974
     -2704.3444      -2107.2814
 95  4 11 17 31 14.9990000  0  7G31G 2G18G19G27G28G29
  -9062289.35646  -6986165.58646  21535888.8944   21535892.4214
       336.5784        262.2694
  -9502241.46046  -7288053.43446  22598351.0424   22598355.3904
      2602.8444       2028.1904
   2027245.34847   1588293.46147  20725549.8004   20725552.8004
     -1609.9374      -1254.4974
  -4435922.53647  -3439863.69447  20483565.1594   20483568.1124
       507.1254        395.1624
 -12570019.99747  -9735500.74347  21505179.1754   21505182.0814
      2276.9694       1774.2614
   2498181.318 3   1946631.362 5  23899016.144    23899012.519
     -1758.375       -1370.162
  10134472.44946   7856185.66345  22600781.5734   22600785.5694
     -2708.5004      -2110.5194
 95  4 11 17 31 29.9990000  0  7G31G 2G18G19G27G28G29
  -9067264.97746  -6990042.68546  21534941.7614   21534945.3944
       326.9384        254.7564
  -9541252.30146  -7318451.48246  22590927.4644   22590931.9404
      2598.7344       2024.9884
   2051448.79547   1607153.28847  20730155.5504   20730158.4444
     -1617.0314      -1260.0244
  -4443506.22147  -3445773.06547  20482121.6364   20482124.8704
       504.1564        392.8494
 -12604166.25547  -9762108.20847  21498681.4804   21498684.4334
      2275.9844       1773.4944
   2524607.717 4   1967223.332 5  23904044.940    23904041.683
     -1765.031       -1375.349
  10175130.28946   7887867.06545  22608518.8314   22608522.7454
     -2712.3594      -2113.5274
 95  4 11 17 31 44.9990000  0  7G31G 2G18G19G27G28G29
  -9072092.01646  -6993804.00246  21534023.7304   21534027.2924
       316.7814        246.8434
  -9580200.75546  -7348800.91346  22583515.6054   22583520.7374
      2594.5164       2021.7004
   2075758.58947   1626095.98147  20734781.6364   20734784.4254
     -1624.1414      -1265.5644
  -4451045.36047  -3451647.72647  20480686.8084   20480690.4294
       501.1884        390.5364
 -12638296.29147  -9788703.03747  21492186.7534   21492189.7184
      2274.7664       1772.5454
   2551135.477 3   1987894.288 5  23909092.812    23909089.667
     -1771.875       -1380.682
  10215847.97946   7919595.10345  22616266.9874   22616270.8904
     -2716.5004      -2116.7534
 95  4 11 17 31 59.9990000  0  7G31G 2G18G19G27G28G29
  -9076768.64346  -6997448.11946  21533133.8624   21533136.9914
       306.8134        239.0754
  -9619086.51046  -7379101.48246  22576115.7694   22576120.9724
      2590.2504       2018.3774
   2100172.36147   1645119.69047  20739427.5034   20739430.2924
     -1630.9534      -1270.8734
  -4458542.27147  -3457489.47847  20479260.4724   20479264.0464
       498.4844        388.4294
 -12672408.80047  -9815284.20847  21485695.2064   21485698.3704
      2273.6724       1771.6924
   2577764.387 3   2008644.072 5  23914159.730    23914156.769
     -1778.609       -1385.929
  10256626.08746   7951370.21245  22624027.0114   22624030.7024
     -2720.5474      -2119.9074
 95  4 11 17 32 14.9990000  0  7G31G 2G18G19G27G28G29
  -9081295.58246  -7000975.59446  21532272.3624   21532275.1984
       296.8284        231.2954
  -9657907.81146  -7409351.83346  22568728.4254   22568733.4054
      2585.9844       2015.0534
   2124688.24847   1664222.97047  20744092.9954   20744095.8434
     -1637.8124      -1276.2184
  -4465999.33147  -3463300.17947  20477841.6054   20477844.9914
       495.8134        386.3474
 -12706505.82747  -9841853.31347  21479206.7454   21479210.0504
      2272.6254       1770.8774
   2604494.954 3   2029473.069 5  23919246.144    23919243.456
     -1785.422       -1391.238
  10297465.59546   7983193.18245  22631798.7844   22631802.4404
     -2724.7034      -2123.1454
 95  4 11 17 32 29.9990000  0  7G31G 2G18G19G27G28G29
  -9085675.54446  -7004388.54346  21531439.1904   21531442.1204
       287.1094        223.7224
  -9696667.89446  -7439554.48146  22561353.3474   22561358.0814
      2582.0474       2011.9854
   2149306.09147   1683405.69647  20748777.7924   20748780.5934
     -1644.6094      -1281.5144
  -4473418.07347  -3469081.01947  20476430.2694   20476433.3744
       493.2814        384.3754
 -12740589.18347  -9868411.76647  21472720.7924   21472724.1084
      2271.8134       1770.2444
   2631325.274 3   2050379.799 5  23924351.792    23924349.253
     -1791.984       -1396.351
  10338362.61446   8015060.95245  22639581.1594   22639584.6874
     -2728.2344      -2125.8974
 95  4 11 17 32 44.9990000  0  7G31G 2G18G19G27G28G29
  -9089908.15146  -7007686.66946  21530633.4874   21530636.2304
       277.1724        215.9784
  -9735369.28546  -7469711.39646  22553988.7224   22553993.1754
      2578.0634       2008.8804
   2174026.62447   1702668.44447  20753481.1984   20753484.0934
     -1651.5474      -1286.9204
  -4480796.86347  -3474830.72647  20475025.9804   20475028.9334
       490.4844        382.1964
 -12774659.35447  -9894959.94747  21466237.5424   21466240.8474
      2270.8284       1769.4764
   2658254.191 3   2071363.358 5  23929476.230    23929473.605
     -1798.578       -1401.489
  10379313.40246   8046970.62846  22647373.8474   22647377.2104
     -2731.8754      -2128.7344
 95  4 11 17 32 59.9990000  0  7G31G 2G18G19G27G28G29
  -9093991.18346  -7010868.24146  21529856.8554   21529859.4914
       267.2664        208.2594
  -9774011.87446  -7499822.48746  22546634.6674   22546638.8864
      2574.3594       2005.9944
   2198853.11547   1722013.75547  20758205.6594   20758208.6834
     -1658.6254      -1292.4354
  -4488132.48447  -3480546.80047  20473629.8864   20473633.3084
       487.6414        379.9804
 -12808712.89047  -9921495.16447  21459757.4564   21459760.4684
      2269.6724       1768.5754
   2685282.201 3   2092424.121 5  23934619.683    23934616.925
     -1805.109       -1406.579
  10420317.35446   8078921.73045  22655176.4724   22655179.8824
     -2735.3124      -2131.4124
 95  4 11 17 33 14.9990000  0  7G31G 2G18G19G27G28G29
  -9097927.74846  -7013935.69046  21529107.5424   21529110.5894
       257.5944        200.7224
  -9812601.10946  -7529892.00646  22539291.8004   22539295.9834
      2570.8284       2003.2434
   2223783.93247   1741440.35347  20762949.7694   20762952.7574
     -1665.5624      -1297.8414
  -4495427.98347  -3486231.60047  20472241.2764   20472244.7454
       485.0784        377.9834
 -12842749.82947  -9948017.44847  21453280.6514   21453283.5344
      2268.5004       1767.6624
   2712406.442 3   2113559.877 5  23939781.612    23939778.261
     -1811.500       -1411.558
  10461373.41846   8110913.44146  22662989.2374   22662992.4834
     -2738.8914      -2134.2004
 95  4 11 17 33 29.9990000  0  8G31G 2G18G19G16G27G28G29
  -9101718.03646  -7016889.16246  21528386.3864   21528389.1404
       247.7504        193.0524
  -9851136.18746  -7559919.32046  22531958.8004   22531963.0074
      2567.1724       2000.3944
   2248819.69547   1760948.73447  20767714.0734   20767716.8624
     -1672.5474      -1303.2834
  -4502686.00447  -3491887.20947  20470860.3154   20470863.8554
       482.6094        376.0594
    -15388.17255                  24135227.5734
      1396.0944
 -12876766.30547  -9974523.78847  21446807.3554   21446810.3314
      2267.0634       1766.5424
   2739628.393 3   2134771.772 5  23944962.444    23944958.386
     -1818.078       -1416.684
  10502485.65946   8142948.92045  22670812.6284   22670815.7804
     -2742.7814      -2137.2324
 95  4 11 17 33 44.9990000  0  8G31G 2G18G19G16G27G28G29
  -9105361.83646  -7019728.46946  21527692.4644   21527695.3584
       238.2664        185.6624
  -9889616.14446  -7589903.68646  22524636.0504   22524640.3394
      2563.5784       1997.5934
   2273958.70847   1780537.56947  20772497.9174   20772500.6594
     -1679.2344      -1308.4944
  -4509906.15247  -3497513.30147  20469486.5114   20469489.8624
       480.1884        374.1724
    -36270.09645                  24131254.1364
      1388.3444
 -12910762.56847 -10001014.38047  21440337.9254   21440340.8194
      2265.9224       1765.6534
   2766948.927 3   2156060.471 5  23950161.456    23950157.175
     -1824.516       -1421.700
  10543655.87046   8175029.58345  22678647.1444   22678650.2964
     -2746.5004      -2140.1304
 95  4 11 17 33 59.9990000  0  8G31G 2G18G19G16G27G28G29
  -9108864.64146  -7022457.92646  21527025.9564   21527029.1794
       228.8284        178.3084
  -9928042.94246  -7619846.63046  22517323.7304   22517327.8664
      2560.0164       1994.8174
   2299199.65547   1800205.83647  20777301.4804   20777304.0934
     -1686.2664      -1313.9734
  -4517090.13447  -3503111.21147  20468119.6364   20468122.8584
       477.6094        372.1634
    -57034.92645                  24127302.7694
      1380.3134
 -12944742.62247 -10027492.33347  21433871.7224   21433874.8394
      2264.7504       1764.7404
   2794365.519 3   2177424.032 5  23955378.839    23955374.753
     -1831.031       -1426.778
  10584882.37946   8207154.10045  22686492.2374   22686495.3904
     -2750.4064      -2143.1744
 95  4 11 17 34 14.9990000  0  8G31G 2G18G19G16G27G28G29
  -9112227.88446  -7025078.62546  21526386.2454   21526389.4564
       219.5474        171.0754
  -9966417.31546  -7649748.73146  22510021.4564   22510025.4874
      2556.5784       1992.1394
   2324546.95747   1819956.97347  20782124.6514   20782127.3944
     -1693.4224      -1319.5504
  -4524234.97847  -3508678.62447  20466759.7454   20466762.8744
       474.9844        370.1184
    -77678.15745    -11786.22354  24123374.2304   24123379.0934
      1372.0004       1069.0914
 -12978706.71947 -10053957.85747  21427408.7764   21427411.8824
      2263.7814       1763.9854
   2821878.991 3   2198863.075 5  23960614.515    23960610.761
     -1837.469       -1431.794
  10626168.04146   8239324.71845  22694348.5814   22694351.7334
     -2754.4694      -2146.3394
 95  4 11 17 34 29.9990000  0  8G31G 2G18G19G16G27G28G29
  -9115450.42546  -7027589.69146  21525772.4724   21525775.6014
       210.1884        163.7824
 -10004741.45746  -7679611.67746  22502728.6124   22502732.4334
      2553.3594       1989.6314
   2350003.73447   1839793.41147  20786969.0504   20786971.9214
     -1700.7974      -1325.2964
  -4531338.69047  -3514213.98347  20465407.9724   20465411.2304
       472.3134        368.0364
    -98193.73445    -27772.41543  24119469.4014   24119474.2534
      1363.4534       1062.4314
 -13012656.54147 -10080412.25847  21420947.9804   21420951.1554
      2262.9064       1763.3044
   2849489.464 3   2220377.704 5  23965868.315    23965864.503
     -1843.875       -1436.786
  10667515.31246   8271543.33645  22702216.5114   22702220.7064
     -2758.4694      -2149.4564
 95  4 11 17 34 44.9990000  0  8G31G 2G18G19G16G27G28G29
  -9118531.61146  -7029990.60846  21525186.3944   21525189.2764
       200.6094        156.3194
 -10043016.07146  -7709436.04046  22495445.2224   22495448.7264
      2549.8914       1986.9284
   2375572.43347   1859717.06847  20791834.1904   20791836.9094
     -1708.4374      -1331.2504
  -4538403.33747  -3519718.90247  20464063.7924   20464067.0384
       469.5784        365.9054
   -118580.43645    -43658.13443  24115590.3234   24115595.2334
      1354.7194       1055.6254
 -13046592.54747 -10106855.89147  21414490.4484   21414493.6944
      2261.8284       1762.4634
   2877196.146 3   2241967.305 5  23971140.839    23971136.690
     -1850.422       -1441.887
  10708923.37246   8303809.33745  22710096.2144   22710100.4564
     -2762.7664      -2152.8044
 95  4 11 17 34 59.9990000  0  8G31G 2G18G19G16G27G28G29
  -9121473.82046  -7032283.23846  21524626.5264   21524629.2694
       191.5944        149.2944
 -10081242.65046  -7739222.97246  22488170.6984   22488174.2614
      2546.8754       1984.5784
   2401253.10047   1879727.97147  20796721.4804   20796724.0344
     -1715.7504      -1336.9484
  -4545429.56947  -3525193.88547  20462726.5114   20462729.5934
       467.1724        364.0304
   -138839.02345    -59444.04644  24111735.2844   24111741.4134
      1346.3284       1049.0874
 -13080515.02047 -10133288.98247  21408035.2764   21408038.3704
      2261.0634       1761.8674
   2904998.462 3   2263631.431 5  23976431.319    23976427.284
     -1856.687       -1446.769
  10750395.30546   8336125.09545  22717988.1054   22717992.0894
     -2766.9374      -2156.0554
 95  4 11 17 35 14.9990000  0  8G31G 2G18G19G16G27G28G29
  -9124281.56346  -7034471.09246  21524092.5114   21524095.7334
       182.7664        142.4154
 -10119423.49246  -7768974.26246  22480904.9404   22480908.5154
      2543.8594       1982.2284
   2427042.28447   1899823.42947  20801628.8084   20801631.2924
     -1722.7194      -1342.3784
  -4552420.05247  -3530641.01447  20461396.0584   20461399.1514
       464.9064        362.2654
   -158971.86945    -75132.00844  24107903.2304   24107908.7024
      1338.1094       1042.6834
 -13114425.37147 -10159712.62947  21401582.0734   21401585.0974
      2260.3284       1761.2954
   2932895.080 2   2285369.028 5  23981739.925    23981735.433
     -1862.859       -1451.579
  10791929.71946   8368489.55545  22725891.9874   22725896.2184
     -2770.9844      -2159.2094
 95  4 11 17 35 29.9990000  0  8G31G 2G18G19G16G27G28G29
  -9126954.16246  -7036553.63446  21523583.6984   21523587.0504
       173.7344        135.3774
 -10157553.39246  -7798685.85446  22473649.3704   22473653.0504
      2540.2504       1979.4164
   2452937.07147   1920001.17447  20806556.2764   20806559.1124
     -1729.7664      -1347.8694
  -4559373.25647  -3536059.09847  20460072.8864   20460075.9564
       462.2974        360.2314
   -178979.77545    -90722.60045  24104097.1444   24104101.9374
      1329.8594       1036.2544
 -13148321.20547 -10186124.95747  21395131.8084   21395134.8314
      2259.2504       1760.4554
   2960887.562 2   2307181.331 5  23987066.878    23987062.308
     -1869.312       -1456.607
  10833527.10746   8400903.07145  22733807.6124   22733811.9604
     -2775.2344      -2162.5204
 95  4 11 17 35 44.9990000  0  8G31G 2G18G19G16G27G28G29
  -9129491.65046  -7038530.90146  21523100.9174   21523104.0814
       164.6724        128.3164
 -10195629.00246  -7828355.14146  22466403.9014   22466407.4404
      2536.5634       1976.5424
   2478936.92547   1940260.79547  20811503.9874   20811506.9524
     -1736.7814      -1353.3364
  -4566285.74847  -3541445.45847  20458757.6444   20458760.9834
       459.4384        358.0034
   -198865.75945   -106218.16245  24100312.7764   24100318.2614
      1321.7504       1029.9354
 -13182203.13347 -10212526.45547  21388684.7144   21388687.6674
      2258.4064       1759.7974
   2988976.145 2   2329068.516 5  23992411.855    23992408.159
     -1875.750       -1461.623
  10875187.30946   8433365.52645  22741735.3474   22741739.8474
     -2779.3444      -2165.7224
 95  4 11 17 35 59.9990000  0  8G31G 2G18G19G16G27G28G29
  -9131892.95546  -7040402.04046  21522644.0114   21522647.0344
       155.5164        121.1814
 -10233648.67246  -7857980.85246  22459168.8314   22459172.3704
      2532.8284       1973.6324
   2505042.16647   1960602.53047  20816471.3704   20816474.4874
     -1743.8754      -1358.8644
  -4573153.97447  -3546797.32047  20457450.8314   20457453.8664
       456.4534        355.6784
   -218631.71645   -121620.20745  24096552.1834   24096556.5424
      1313.8284       1023.7624
 -13216070.57847 -10238916.66247  21382240.1444   21382243.0384
      2257.3284       1758.9574
   3017161.525 3   2351031.139 5  23997775.179    23997772.050
     -1882.203       -1466.652
  10916908.04546   8465875.16845  22749674.5114   22749679.0464
     -2783.2814      -2168.7914
 95  4 11 17 36 14.9990000  0  8G31G 2G18G19G16G27G28G29
  -9134153.28546  -7042163.33846  21522214.1984   21522217.1164
       145.8134        113.6204
 -10271611.58746  -7887562.32846  22451944.7764   22451948.4214
      2528.8444       1970.5284
   2531254.64247   1981027.82747  20821459.8474   20821462.6594
     -1751.0624      -1364.4644
  -4579977.75147  -3552114.54947  20456152.3624   20456155.2804
       453.3754        353.2794
   -238277.70645   -136928.78945  24092813.3234   24092817.5894
      1305.6884       1017.4194
 -13249920.21347 -10265292.99747  21375798.4014   21375801.2844
      2255.8754       1757.8254
   3045444.007 2   2373069.425 5  24003156.913    24003153.831
     -1888.781       -1471.778
  10958687.71246   8498430.72045  22757625.0114   22757629.0304
     -2787.3444      -2171.9564
 95  4 11 17 36 29.9990000  0  8G31G 2G18G19G16G27G28G29
  -9136266.85646  -7043810.27246  21521811.9644   21521814.3904
       136.1094        106.0594
 -10309512.75946  -7917095.69246  22444732.4804   22444736.2184
      2524.7194       1967.3134
   2557572.99547   2001535.62847  20826468.2844   20826470.8744
     -1757.9064      -1369.7974
  -4586755.40047  -3557395.83447  20454862.6284   20454865.5344
       450.4844        351.0274
   -257803.12345   -152143.38545  24089097.8314   24089103.1404
      1297.9064       1011.3564
 -13283746.70047 -10291651.29147  21369361.6444   21369364.6084
      2254.4064       1756.6804
   3073825.518 2   2395184.885 5  24008558.085    24008554.698
     -1895.297       -1476.855
  11000527.37746   8531033.02045  22765587.0424   22765591.0154
     -2791.1254      -2174.9034
 95  4 11 17 36 44.9990000  0  8G31G 2G18G19G16G27G28G29
  -9138236.94546  -7045345.40846  21521436.7534   21521439.5424
       126.5634         98.6204
 -10347353.72646  -7946582.14346  22437531.5654   22437535.6904
      2520.7034       1964.1844
   2583991.45147   2022121.43147  20831495.6904   20831498.5034
     -1764.5164      -1374.9474
  -4593492.15247  -3562645.25047  20453580.7454   20453583.6754
       447.7814        348.9204
   -277217.31945   -167271.33545  24085403.2224   24085408.7654
      1290.6724       1005.7184
 -13317551.81347 -10317992.93147  21362928.6984   21362931.8044
      2252.9534       1755.5484
   3102302.111 2   2417374.430 5  24013976.655    24013973.198
     -1901.531       -1481.713
  11042418.60446   8563675.48845  22773558.4644   22773562.8704
     -2794.3914      -2177.4474
 95  4 11 17 36 59.9990000  0  8G31G 2G18G19G16G27G28G29
  -9140062.36546  -7046767.81146  21521089.4874   21521092.7104
       116.9534         91.1324
 -10385130.78346  -7976018.80546  22430342.9174   22430346.9834
      2516.4064       1960.8364
   2610509.73347   2042785.01647  20836541.7144   20836544.3154
     -1771.0944      -1380.0734
  -4600185.50347  -3567860.85347  20452306.7924   20452309.8624
       444.7814        346.5834
   -296521.35645   -182313.44145  24081729.4724   24081734.0774
      1283.3754       1000.0324
 -13351331.86747 -10344315.04147  21356500.1594   21356503.1474
      2251.2034       1754.1844
   3130874.427 2   2439638.552 5  24019414.472    24019410.386
     -1907.922       -1486.692
  11084362.64246   8596359.12245  22781540.3084   22781544.6904
     -2798.0164      -2180.2724
 95  4 11 17 37 14.9990000  0  8G31G 2G18G19G16G27G28G29
  -9141742.65746  -7048077.13246  21520769.9334   21520773.0384
       107.0634         83.4254
 -10422843.15646  -8005405.05946  22423166.6984   22423170.6014
      2511.9224       1957.3424
   2637125.17847   2063524.31647  20841606.3944   20841609.1474
     -1777.5624      -1385.1144
  -4606833.95047  -3573041.46347  20451041.8314   20451044.8084
       441.7664        344.2334
   -315716.44145   -197270.67445  24078076.7694   24078081.6554
      1275.9844        994.2744
 -13385084.56547 -10370615.83847  21350077.2454   21350080.3044
      2249.2664       1752.6754
   3159542.609 2   2461977.376 5  24024869.679    24024866.167
     -1914.453       -1491.782
  11126361.48146   8629085.46045  22789532.7454   22789537.1164
     -2801.7504      -2183.1824
 95  4 11 17 37 29.9990000  0  8G31G 2G18G19G16G27G28G29
  -9143274.47246  -7049270.75346  21520478.5504   21520481.6204
        97.0634         75.6334
 -10460488.78146  -8034739.30446  22416003.0344   22416006.8904
      2507.3914       1953.8114
   2663836.34947   2084338.20947  20846689.5264   20846692.2574
     -1784.0784      -1390.1914
  -4613439.22547  -3578188.43247  20449784.9334   20449787.9214
       438.7974        341.9204
   -334804.05645   -212144.13644  24074443.9564   24074449.9914
      1268.8594        988.7224
 -13418810.45547 -10396895.74547  21343659.6904   21343662.8314
      2247.4384       1751.2504
   3188306.356 2   2484390.657 5  24030343.522    24030339.847
     -1920.828       -1496.749
  11168414.03946   8661853.64245  22797535.2224   22797539.7574
     -2805.4224      -2186.0434
 95  4 11 17 37 44.9990000  0  8G31G 2G18G19G16G27G28G29
  -9144655.27546  -7050346.70746  21520215.5194   21520218.5894
        86.9844         67.7804
 -10498067.41046  -8064021.33946  22408851.9334   22408855.9994
      2503.1724       1950.5244
   2690647.02647   2105229.63647  20851791.4254   20851794.0154
     -1790.7344      -1395.3774
  -4619999.49147  -3583300.32647  20448536.6594   20448539.6944
       435.9064        339.6674
   -353782.31745   -226932.39845  24070832.7454   24070838.1364
      1261.4694        982.9634
 -13452509.59747 -10423154.81047  21337246.8004   21337250.0464
      2245.7504       1749.9354
   3217166.561 2   2506879.099 5  24035835.546    24035831.690
     -1927.250       -1501.753
  11210522.70546   8694665.57145  22805547.5974   22805552.0624
     -2809.1094      -2188.9164
 95  4 11 17 37 59.9990000  0  8G31G 2G18G19G16G27G28G29
  -9145885.36646  -7051305.21946  21519981.3704   21519984.3124
        76.9694         59.9764
 -10535585.76046  -8093256.40246  22401712.4254   22401716.5384
      2499.2344       1947.4554
   2717557.30747   2126198.67647  20856912.3784   20856914.8274
     -1797.4224      -1400.5884
  -4626518.88247  -3588380.37147  20447295.8314   20447298.9484
       433.2974        337.6344
   -372649.08645   -241633.77944  24067242.6124   24067248.0034
      1253.9694        977.1194
 -13486184.22647 -10449394.77347  21330838.6904   21330841.9604
      2244.0944       1748.6444
   3246121.779 2   2529441.583 5  24041345.929    24041342.112
     -1933.516       -1506.636
  11252684.76845   8727519.08845  22813571.2304   22813575.7064
     -2812.5784      -2191.6194
 95  4 11 17 38 14.9990000  0  8G31G 2G18G19G16G27G28G29
  -9146965.30546  -7052146.73746  21519775.4484   21519778.8004
        66.8754         52.1104
 -10573046.05546  -8122446.22546  22394584.0424   22394588.2724
      2495.3594       1944.4364
   2744568.77647   2147246.56447  20862052.3624   20862054.9644
     -1804.2194      -1405.8854
  -4632998.98847  -3593429.80847  20446062.5734   20446065.7724
       430.6094        335.5404
   -391400.86445   -256245.56745  24063674.7534   24063680.2494
      1246.1254        971.0064
 -13519832.25047 -10475614.00747  21324435.6514   21324438.7334
      2242.2344       1747.1964
   3275170.796 2   2552077.152 5  24046873.519    24046869.659
     -1939.797       -1511.530
  11294899.55845   8760413.69545  22821603.7064   22821608.5814
     -2816.1724      -2194.4204
 95  4 11 17 38 29.9990000  0  7G31G 2G18G19G16G27G29
  -9147894.11546  -7052870.49346  21519598.9874   21519602.4564
        56.9844         44.4034
 -10610448.93746  -8151591.31546  22387466.0974   22387470.6084
      2491.6724       1941.5634
   2771681.73747   2168373.53747  20867211.6284   20867214.3944
     -1810.9064      -1411.0964
  -4639437.25247  -3598446.63547  20444837.3864   20444840.5034
       427.7504        333.3124
   -410034.28145   -270765.09345  24060128.7144   24060134.1404
      1238.2504        964.8704
 -13553453.23147 -10501812.16847  21318038.1514   21318041.0464
      2240.5634       1745.8934
  11337169.86445   8793351.56245  22829647.6984   22829652.7964
     -2819.9374      -2197.3544
 95  4 11 17 38 44.9990000  0  7G31G 2G18G19G16G27G29
  -9148675.31946  -7053479.23246  21519450.4254   21519453.9054
        47.1724         36.7574
 -10647795.23746  -8180692.31746  22380359.1904   22380363.5504
      2487.8754       1938.6044
   2798897.28547   2189580.44747  20872390.7694   20872393.5464
     -1817.8914      -1416.5384
  -4645830.90147  -3603428.70047  20443620.9644   20443624.2694
       424.7344        330.9624
   -428546.84145   -285190.48244  24056606.0894   24056611.2454
      1230.0944        958.5154
 -13587049.01247 -10527990.69547  21311644.9334   21311647.9094
      2238.9064       1744.6024
  11379498.74145   8826335.05745  22837702.8084   22837707.4254
     -2823.9534      -2200.4834
 95  4 11 17 38 59.9990000  0  7G31G 2G18G19G16G27G29
  -9149311.35246  -7053974.85346  21519329.1754   21519332.5624
        37.6884         29.3674
 -10685086.87946  -8209750.73246  22373262.9094   22373266.9994
      2484.3754       1935.8774
   2826218.21147   2210869.47447  20877589.4954   20877592.6944
     -1824.9064      -1422.0054
  -4652180.99847  -3608376.83447  20442412.2844   20442415.6944
       421.9844        328.8194
   -446936.63545   -299520.18044  24053105.8234   24053111.3784
      1221.8444        952.0864
 -13620622.12147 -10554151.55447  21305255.9724   21305259.1834
      2237.5164       1743.5194
  11421887.34845   8859365.10945  22845769.2304   22845773.6014
     -2827.9534      -2203.6004
 95  4 11 17 39 14.9990000  0  7G31G 2G18G19G16G27G29
  -9149804.99746  -7054359.51546  21519235.3314   21519238.8584
        28.2344         22.0014
 -10722324.99246  -8238767.42846  22366176.3474   22366180.8944
      2480.7974       1933.0884
   2853644.76647   2232240.80247  20882808.4804   20882811.5974
     -1831.8284      -1427.3994
  -4658489.40947  -3613292.47947  20441211.7144   20441215.0894
       419.2664        326.7004
   -465201.71045   -313752.70044  24049630.6754   24049636.3004
      1213.6254        945.6824
 -13654172.94847 -10580295.05547  21298871.8944   21298874.9994
      2236.0474       1742.3744
  11464336.72545   8892442.50545  22853847.6284   22853851.3194
     -2831.8594      -2206.6444
 95  4 11 17 39 29.9990000  0  7G31G 2G18G19G16G27G29
  -9150155.94746  -7054632.99446  21519169.2614   21519172.7414
        18.5944         14.4894
 -10759509.06746  -8267742.01946  22359100.4954   22359104.6794
      2477.0784       1930.1914
   2881176.98247   2253694.46447  20888047.5974   20888050.8554
     -1839.1414      -1433.0974
  -4664757.03447  -3618176.34547  20440018.9484   20440022.5584
       416.3754        324.4484
   -483343.63145   -327889.29345  24046178.0734   24046182.6324
      1205.2974        939.1924
 -13687701.30347 -10606421.03847  21292491.5654   21292494.6244
      2234.4694       1741.1444
  11506843.18245   8925564.40145  22861936.3944   22861940.1794
     -2835.6414      -2209.5904
 95  4 11 17 39 44.9990000  0  7G31G 2G18G19G16G27G29
  -9150364.35446  -7054795.39146  21519129.4404   21519132.3944
         9.0944          7.0864
 -10796638.80546  -8296674.26546  22352035.0194   22352039.4134
      2473.4844       1927.3904
   2908818.68347   2275233.44547  20893308.1124   20893311.3124
     -1846.4844      -1438.8194
  -4670980.08747  -3623025.48147  20438834.7534   20438838.5034
       413.2814        322.0374
   -501360.81645   -341928.65345  24042749.1754   24042753.9334
      1196.8754        932.6304
 -13721206.96347 -10632529.33847  21286115.6904   21286118.6554
      2232.8284       1739.8664
  11549405.31246   8958729.66445  22870035.6444   22870039.7224
     -2839.3754      -2212.5004
 95  4 11 17 39 59.9990000  0  7G31G 2G18G19G16G27G29
  -9150431.00746  -7054847.34046  21519116.3704   21519119.2414
        -0.2814         -0.2194
 -10833716.47246  -8325565.94546  22344979.7454   22344983.7654
      2470.1414       1924.7854
   2936568.74247   2296856.85747  20898588.6204   20898591.7964
     -1853.6094      -1444.3714
  -4677157.92747  -3627839.38747  20437659.3864   20437663.1014
       410.4224        319.8094
   -519251.15245   -355869.18345  24039344.9174   24039348.5734
      1188.4844        926.0924
 -13754687.40247 -10658617.98647  21279744.1674   21279747.0264
      2231.1564       1738.5634
  11592021.60546   8991937.13145  22878145.0584   22878148.9604
     -2842.8594      -2215.2154
 95  4 11 17 40 14.9990000  0  7G31G 2G18G19G16G27G29
  -9150357.12546  -7054789.77946  21519130.5814   21519133.5584
        -9.6724         -7.5374
 -10870741.85246  -8354416.87546  22337933.8084   22337937.7454
      2466.4844       1921.9364
   2964426.42147   2318564.12847  20903889.4874   20903892.6634
     -1860.7664      -1449.9474
  -4683292.34247  -3632619.45347  20436491.9874   20436495.5504
       407.4534        317.4964
   -537016.90745   -369712.62645  24035964.9254   24035968.7104
      1180.3134        919.7244
 -13788141.47647 -10684686.09247  21273378.2224   21273381.1874
      2229.3284       1737.1394
  11634691.85245   9025186.64845  22886264.9174   22886268.6554
     -2846.5784      -2218.1134
 95  4 11 17 40 29.9990000  0  7G31G 2G18G19G16G27G29
  -9150138.12546  -7054619.13746  21519172.2454   21519175.1874
       -19.4694        -15.1704
 -10907707.85846  -8383221.54146  22330899.4094   22330903.3704
      2462.3914       1918.7464
   2992392.89147   2340356.17247  20909211.6124   20909214.8474
     -1867.9374      -1455.5364
  -4689380.39047  -3637363.39247  20435333.5194   20435337.0934
       404.3754        315.0974
   -554659.66645   -383460.25245  24032607.1054   24032611.2764
      1172.2194        913.4174
 -13821567.12847 -10710732.04747  21267017.1904   21267020.2844
      2227.5164       1735.7264
  11677420.08345   9058481.34345  22894395.6444   22894400.1324
     -2850.4534      -2221.1324
 95  4 11 17 40 44.9990000  0  7G31G 2G18G19G16G27G29
  -9149773.19346  -7054334.78246  21519241.5344   21519244.5224
       -29.0474        -22.6344
 -10944612.46846  -8411978.36846  22323876.7454   22323880.5424
      2458.2814       1915.5444
   3020465.72947   2362231.09747  20914553.7304   20914556.9294
     -1874.9694      -1461.0154
  -4695423.39547  -3642072.23347  20434183.8944   20434187.3744
       401.5474        312.8944
   -572182.92145   -397114.73245  24029273.4014   24029277.8314
      1164.3594        907.2934
 -13854965.24747 -10736756.55447  21260661.9804   21260665.0974
      2225.7194       1734.3264
  11720206.64745   9091821.48745  22902537.9804   22902542.0694
     -2854.2194      -2224.0674
 95  4 11 17 40 59.9990000  0  7G31G 2G18G19G16G27G29
  -9149265.44146  -7053939.13746  21519338.2064   21519341.2534
       -38.7194        -30.1704
 -10981454.87346  -8440686.72446  22316865.8314   22316869.6514
      2454.0004       1912.2084
   3048642.12047   2384186.71347  20919915.6594   20919918.7414
     -1881.9374      -1466.4454
  -4701426.92847  -3646750.30747  20433041.4404   20433044.7804
       398.8754        310.8124
   -589591.09245   -410679.54145  24025959.8944   24025964.8154
      1156.7194        901.3394
 -13888337.86547 -10762761.18447  21254311.6054   21254314.6164
      2223.9534       1732.9504
  11763045.34645   9125202.26045  22910690.1124   22910693.7804
     -2857.6254      -2226.7214
 95  4 11 17 41 14.9990000  0  7G31G 2G18G19G16G27G29
  -9148609.83046  -7053428.28546  21519463.1834   21519466.1474
       -48.6874        -37.9384
 -11018230.82846  -8469343.30246  22309867.6514   22309871.7184
      2449.4534       1908.6654
   3076924.59447   2406224.99347  20925297.5424   20925300.5304
     -1889.0004      -1471.9484
  -4707386.52047  -3651394.14947  20431907.3554   20431910.7064
       395.7504        308.3774
   -606882.77945   -424153.58545  24022669.4644   24022674.9834
      1148.8754        895.2274
 -13921681.53047 -10788743.25547  21247966.9334   21247969.6164
      2221.8914       1731.3434
  11805936.35245   9158623.78545  22918852.1054   22918855.8784
     -2861.1724      -2229.4854
 95  4 11 17 41 29.9990000  0  7G31G 2G18G19G16G27G29
  -9147805.25946  -7052801.35146  21519616.3004   21519619.2534
       -58.6724        -45.7184
 -11054939.75046  -8497947.64646  22302881.9254   22302886.2964
      2445.0474       1905.2314
   3105308.46047   2428342.28447  20930698.9094   20930701.8974
     -1895.5624      -1477.0624
  -4713300.63147  -3656002.55447  20430781.7144   20430785.0894
       392.7344        306.0274
   -624059.41545   -437537.99145  24019400.3554   24019406.4834
      1141.2664        889.2984
 -13954996.70447 -10814703.12247  21241627.2064   21241629.8904
      2220.1094       1729.9554
  11848878.83146   9192085.42645  22927024.2694   22927027.7024
     -2864.6094      -2232.1634
 95  4 11 17 41 44.9990000  0  7G31G 2G18G19G16G27G29
  -9146849.45346  -7052056.57546  21519798.1204   21519801.0974
       -68.7664        -53.5844
 -11091582.87646  -8526500.72546  22295908.8944   22295913.5694
      2440.7034       1901.8474
   3133792.45447   2450537.59247  20936119.0264   20936122.1554
     -1902.2504      -1482.2734
  -4719168.69147  -3660575.07947  20429665.1514   20429668.6554
       389.6724        303.6404
   -641118.78245   -450831.00045  24016153.4644   24016158.4684
      1133.3444        883.1254
 -13988284.54247 -10840641.69247  21235292.4804   21235295.0584
      2218.2974       1728.5434
  11891873.58746   9225587.79445  22935205.6594   22935208.5194
     -2868.0474      -2234.8424
 95  4 11 17 41 59.9990000  0  7G31G 2G18G19G16G27G29
  -9145740.88346  -7051192.77046  21520008.7844   21520011.6904
       -79.1874        -61.7054
 -11128160.16346  -8555002.49046  22288948.6054   22288953.4334
      2436.1094       1898.2674
   3162375.74647   2472810.27447  20941558.3394   20941561.6084
     -1908.9844      -1487.5204
  -4724991.79047  -3665112.56547  20428557.0344   20428560.5974
       386.6094        301.2544
   -658057.36945   -464029.88545  24012930.8474   24012936.2494
      1125.0474        876.6604
 -14021544.10347 -10866558.22647  21228963.5034   21228966.5384
      2216.1884       1726.8994
  11934921.58946   9259131.67445  22943397.5264   22943400.4444
     -2871.7814      -2237.7524
 95  4 11 17 42 14.9990000  0  7G31G 2G18G19G16G27G29
  -9144475.86946  -7050207.05346  21520249.7924   21520252.6634
       -89.4534        -69.7044
 -11164666.80746  -8583449.21146  22282001.4254   22282006.1714
      2431.4224       1894.6144
   3191060.11946   2495161.72547  20947016.7694   20947020.1904
     -1915.5624      -1492.6464
  -4730769.68047  -3669614.82147  20427457.4644   20427461.0034
       383.7664        299.0384
   -674872.38645   -477132.53145  24009730.8474   24009735.4874
      1116.9844        870.3774
 -14054773.54547 -10892451.29247  21222639.8784   21222643.0194
      2214.4384       1725.5364
  11978025.48946   9292719.08545  22951599.7844   22951602.8194
     -2875.4224      -2240.5884
 95  4 11 17 42 29.9990000  0  7G31G 2G18G19G16G27G29
  -9143057.72046  -7049102.01046  21520519.5424   21520522.5774
       -99.7034        -77.6914
 -11201104.29046  -8611842.04546  22275067.8084   22275072.4604
      2426.8594       1891.0594
   3219840.08847   2517587.66047  20952493.4404   20952496.7454
     -1921.7504      -1497.4684
  -4736504.79147  -3674083.74347  20426366.2764   20426369.5344
       380.8594        296.7744
   -691567.39545   -490141.62145  24006554.2224   24006559.2964
      1108.9384        864.1074
 -14087978.94847 -10918325.62447  21216321.0424   21216324.1364
      2212.9064       1724.3434
  12021182.22845   9326347.69045  22959811.9724   22959815.1714
     -2878.9064      -2243.3044
 95  4 11 17 42 44.9990000  0  7G31G 2G18G19G16G27G29
  -9141484.87046  -7047876.42046  21520819.0584   21520822.0694
      -109.9374        -85.6664
 -11237474.32446  -8640182.31846  22268146.8084   22268151.4014
      2422.5474       1887.6994
   3248713.05447   2540086.06447  20957988.1284   20957991.2104
     -1927.9534      -1502.3014
  -4742193.70247  -3678516.66447  20425283.7764   20425286.9994
       377.7034        294.3144
   -708139.40245   -503054.87445  24003400.6514   24003406.1944
      1100.7034        857.6914
 -14121160.74847 -10944181.56747  21210006.9254   21210010.1364
      2211.3444       1723.1254
  12064390.41145   9360016.37145  22968034.1444   22968037.4014
     -2882.2034      -2245.8734
 95  4 11 17 42 59.9990000  0  7G31G 2G18G19G16G27G29
  -9139759.91746  -7046532.31146  21521147.2454   21521149.9174
      -120.0474        -93.5434
 -11273781.38046  -8668473.51546  22261237.5424   22261241.8664
      2418.3914       1884.4604
   3277679.32347   2562657.17347  20963500.3394   20963503.1874
     -1934.2344      -1507.1964
  -4747834.84647  -3682912.36747  20424210.0654   20424213.4294
       374.4534        291.7824
   -724586.87845   -515871.09745  24000271.3394   24000275.9804
      1092.2974        851.1404
 -14154319.18547 -10970019.30547  21203696.8314   21203699.9374
      2209.8134       1721.9324
  12107647.38745   9393723.07045  22976266.0504   22976268.9334
     -2885.3754      -2248.3444
 95  4 11 17 43 14.9990000  0  7G31G 2G18G19G16G27G29
  -9137883.34646  -7045070.06246  21521504.5814   21521507.4874
      -130.0944       -101.3724
 -11310028.12146  -8696717.71746  22254339.8474   22254344.1244
      2414.5784       1881.4894
   3306739.00447   2585301.06847  20969030.0264   20969033.0734
     -1940.3594      -1511.9684
  -4753426.11547  -3687269.20747  20423146.3944   20423149.8044
       371.1564        289.2134
   -740909.38945   -528589.93544  23997165.1444   23997169.7724
      1084.0944        844.7484
 -14187455.92747 -10995840.13747  21197391.0814   21197394.0814
      2208.4384       1720.8604
  12150951.31545   9427466.35645  22984507.0114   22984510.0114
     -2888.4844      -2250.7674
 95  4 11 17 43 29.9990000  0  7G31G 2G18G19G16G27G29
  -9135854.99246  -7043489.53446  21521890.3784   21521893.3664
      -140.2504       -109.2864
 -11346216.99946  -8724916.83646  22247453.8704   22247458.1244
      2410.6724       1878.4464
   3335891.44047   2608017.24347  20974577.5194   20974580.5194
     -1946.5004      -1516.7534
  -4758966.50947  -3691586.40147  20422091.8554   20422095.3354
       367.7194        286.5344
   -757106.01645   -541210.67645  23994083.3004   23994089.0774
      1075.5634        838.1014
 -14220568.58547 -11021642.20347  21191089.9874   21191093.0464
      2206.6884       1719.4974
  12194304.73045   9461248.20245  22992756.7224   22992759.5584
     -2891.8754      -2253.4094
 95  4 11 17 43 44.9990000  0  7G31G 2G18G19G16G27G29
  -9133675.99246  -7041791.62146  21522305.1984   21522308.3044
      -150.2504       -117.0784
 -11382347.95046  -8753070.81746  22240578.3084   22240582.4564
      2406.7814       1875.4144
   3365135.43047   2630804.75747  20980142.0654   20980145.1244
     -1952.7664      -1521.6364
  -4764457.72247  -3695865.27047  20421046.9014   20421050.5224
       364.4224        283.9654
   -773175.77145   -553732.57745  23991024.8004   23991030.6124
      1067.0944        831.5024
 -14253655.99747 -11047424.59847  21184793.7614   21184796.7614
      2204.9534       1718.1454
  12237707.34645   9495068.38645  23001016.4874   23001018.9374
     -2895.1094      -2255.9294
 95  4 11 17 43 59.9990000  0  7G31G 2G18G19G16G27G29
  -9131349.65646  -7039978.90246  21522747.4094   21522750.7494
      -160.0314       -124.7004
 -11418421.94746  -8781180.41446  22233713.6514   22233717.8004
      2403.0164       1872.4804
   3394473.66947   2653665.71147  20985725.0734   20985728.2964
     -1959.0784      -1526.5544
  -4769900.09647  -3700106.08947  20420011.2224   20420014.7964
       361.1724        281.4334
   -789119.08845   -566155.93945  23987990.8394   23987995.9374
      1058.6414        824.9154
 -14286718.40147 -11073187.50547  21178502.4804   21178505.4094
      2203.3444       1716.8914
  12281154.75945   9528923.47045  23009284.0584   23009286.8354
     -2898.0004      -2258.1824
 95  4 11 17 44 14.9990000  0  7G31G 2G18G19G16G27G29
  -9128876.94346  -7038052.12746  21523218.0424   21523221.5694
      -169.6414       -132.1874
 -11454439.47246  -8809246.01346  22226859.8084   22226863.9444
      2399.2664       1869.5584
   3423906.40847   2676600.30447  20991326.0734   20991329.0264
     -1965.3444      -1531.4374
  -4775293.34047  -3704308.62247  20418985.1834   20418988.7334
       357.8594        278.8514
   -804937.41145   -578481.91544  23984980.6284   23984986.2414
      1050.4534        818.5354
 -14319756.43447 -11098931.42247  21172215.4484   21172218.2374
      2201.7034       1715.6134
  12324646.80345   9562813.35545  23017559.9804   23017562.6754
     -2900.9694      -2260.4954
 95  4 11 17 44 29.9990000  0  7G31G 2G18G19G16G27G29
  -9126262.88846  -7036015.20846  21523715.7374   21523718.8434
      -179.0004       -139.4814
 -11490402.85546  -8837269.41546  22220016.2534   22220020.2264
      2395.8134       1866.8674
   3453432.13347   2699607.35347  20996945.0814   20996947.9874
     -1971.4534      -1536.1974
  -4780636.42847  -3708472.07247  20417968.4254   20417971.6944
       354.5474        276.2704
   -820633.96145   -590712.99244  23981993.8704   23982000.0934
      1042.3914        812.2524
 -14352771.43647 -11124657.39147  21165932.8624   21165935.6514
      2200.2194       1714.4564
  12368182.40645   9596737.16145  23025844.3084   23025847.1904
     -2903.7974      -2262.6994
 95  4 11 17 44 44.9990000  0  7G31G 2G18G19G16G27G29
  -9123507.45646  -7033868.12246  21524240.0034   21524243.2494
      -188.4064       -146.8104
 -11526314.97746  -8865252.87746  22213182.5424   22213186.3974
      2392.3754       1864.1884
   3483050.96447   2722686.95147  21002581.1124   21002583.8434
     -1977.8284      -1541.1654
  -4785930.49447  -3712597.32947  20416960.9804   20416964.1674
       351.2814        273.7264
   -836210.10145   -602850.23845  23979030.1904   23979035.8514
      1034.4064        806.0314
 -14385763.37347 -11150365.39047  21159654.7614   21159657.4214
      2198.6414       1713.2264
  12411760.11645   9630693.77845  23034136.9724   23034140.2064
     -2906.5784      -2264.8664
